[[{"header":{"parameterUnit":"m.s-1","parameterCategory":1,"la1":30.6,"la2":29.2853,"lo1":-89.7004,"lo2":-87.6739,"dx":0.0162,"dy":0.0183,"nx":112,"ny":82,"refTime":"2022-11-03T12:00:00:Z","depth":0,"parameterNumber":2,"parameterNumberName":"U-component_of_WINDS"},"data":[0.0,0.0,0.0,0.0,0.0,0.0,0.0,0.0,0.0,0.0,0.0,0.0,0.0,0.0,0.0,0.0,0.0,0.0,0.0,0.0,0.0,0.0,0.0,0.0,0.0,0.0,0.0,0.0,0.0,0.0,0.0,0.0,0.0,0.0,0.0,0.0,0.0,0.0,0.0,0.0,0.0,0.0,0.0,0.0,0.0,0.0,0.0,0.0,0.0,0.0,0.0,0.0,0.0,0.0,0.0,0.0,0.0,0.0,0.0,0.0,0.0,0.0,0.0,0.0,0.0,0.0,0.0,0.0,0.0,0.0,0.0,0.0,0.0,0.0,0.0,0.0,0.0,0.0,0.0,0.0,0.0,0.0,0.0,0.0,0.0,0.0,0.0,0.0,0.0,0.0,-0.6883,-0.6964,-0.7902,-0.8096,-0.7062,-0.6981,-0.599,-0.3642,0.0,0.0,0.0,0.0,0.0,0.0,0.0,0.0,0.0,0.0,0.0,0.0,0.0,0.0,0.0,0.0,0.0,0.0,0.0,0.0,0.0,0.0,0.0,0.0,0.0,0.0,0.0,0.0,0.0,0.0,0.0,0.0,0.0,0.0,0.0,0.0,0.0,0.0,0.0,0.0,0.0,0.0,0.0,0.0,0.0,0.0,0.0,0.0,0.0,0.0,0.0,0.0,0.0,0.0,0.0,0.0,0.0,0.0,0.0,0.0,0.0,0.0,0.0,0.0,0.0,0.0,0.0,0.0,0.0,0.0,0.0,0.0,0.0,0.0,0.0,0.0,0.0,0.0,0.0,0.0,0.0,0.0,0.0,0.0,0.0,0.0,0.0,0.0,0.0,0.0,0.0,0.0,0.0,0.0,0.0,0.0,0.0,0.0,0.0,0.0,0.0,0.0,0.0,0.0,-0.772,-0.8177,-0.8388,-0.842,-0.8242,-0.8226,-0.7632,-0.622,0.0,0.0,0.0,0.0,0.0,0.0,0.0,0.0,0.0,0.0,0.0,0.0,0.0,0.0,0.0,0.0,0.0,0.0,0.0,0.0,0.0,0.0,0.0,0.0,0.0,0.0,0.0,0.0,0.0,0.0,0.0,0.0,0.0,0.0,0.0,0.0,0.0,0.0,0.0,0.0,0.0,0.0,0.0,0.0,0.0,0.0,0.0,0.0,0.0,0.0,0.0,0.0,0.0,0.0,0.0,0.0,0.0,0.0,0.0,0.0,0.0,0.0,0.0,0.0,0.0,0.0,0.0,0.0,0.0,0.0,0.0,0.0,0.0,0.0,0.0,0.0,0.0,0.0,0.0,0.0,0.0,0.0,0.0,0.0,0.0,0.0,0.0,0.0,0.0,0.0,0.0,0.0,0.0,0.0,0.0,0.0,0.0,0.0,0.0,0.0,0.0,0.0,0.0,-0.9029,-0.9587,-1.0564,-1.0674,-1.0375,-0.9643,-0.958,-0.8752,-0.6817,-0.5501,0.0,0.0,0.0,0.0,0.0,0.0,0.0,0.0,0.0,0.0,0.0,0.0,0.0,0.0,0.0,0.0,0.0,0.0,0.0,0.0,0.0,0.0,0.0,0.0,0.0,0.0,0.0,0.0,0.0,0.0,0.0,0.0,0.0,0.0,0.0,0.0,0.0,0.0,0.0,0.0,0.0,0.0,0.0,0.0,0.0,0.0,0.0,0.0,0.0,0.0,0.0,0.0,0.0,0.0,0.0,0.0,0.0,0.0,0.0,0.0,0.0,0.0,0.0,0.0,0.0,0.0,0.0,0.0,0.0,0.0,0.0,0.0,0.0,0.0,0.0,0.0,0.0,0.0,0.0,0.0,0.0,0.0,0.0,0.0,0.0,0.0,0.0,0.0,0.0,0.0,0.0,0.0,0.0,0.0,0.0,0.0,0.0,0.0,0.0,0.0,0.0,0.0,-1.0876,-1.1361,-1.2381,-1.2489,-1.2089,-1.1064,-1.0829,-0.9837,-0.7736,-0.6985,0.0,0.0,0.0,0.0,0.0,0.0,0.0,0.0,0.0,0.0,0.0,0.0,0.0,0.0,0.0,0.0,0.0,0.0,0.0,0.0,0.0,0.0,0.0,0.0,0.0,0.0,0.0,0.0,0.0,0.0,0.0,0.0,0.0,0.0,0.0,0.0,0.0,0.0,0.0,0.0,0.0,0.0,0.0,0.0,0.0,0.0,0.0,0.0,0.0,0.0,0.0,0.0,0.0,0.0,0.0,0.0,0.0,0.0,0.0,0.0,0.0,0.0,0.0,0.0,0.0,0.0,0.0,0.0,0.0,0.0,0.0,0.0,0.0,0.0,0.0,0.0,0.0,0.0,0.0,0.0,0.0,0.0,0.0,0.0,0.0,0.0,0.0,0.0,0.0,0.0,0.0,0.0,0.0,0.0,0.0,0.0,0.0,0.0,0.0,0.0,0.0,0.0,-1.1965,-1.2397,-1.2489,-1.2489,-1.2458,-1.2366,-1.1795,-1.1094,-1.0278,-0.8409,0.0,0.0,0.0,0.0,0.0,0.0,0.0,0.0,0.0,0.0,0.0,0.0,0.0,0.0,0.0,0.0,0.0,0.0,0.0,0.0,0.0,0.0,0.0,0.0,0.0,0.0,0.0,0.0,0.0,0.0,0.0,0.0,0.0,0.0,0.0,0.0,0.0,0.0,0.0,0.0,0.0,0.0,0.0,0.0,0.0,0.0,0.0,0.0,0.0,0.0,0.0,0.0,0.0,0.0,0.0,0.0,0.0,0.0,0.0,0.0,0.0,0.0,0.0,0.0,0.0,0.0,0.0,0.0,0.0,0.0,0.0,0.0,0.0,0.0,0.0,0.0,0.0,0.0,0.0,0.0,0.0,0.0,0.0,0.0,0.0,0.0,0.0,0.0,0.0,0.0,0.0,0.0,0.0,0.0,0.0,0.0,0.0,0.0,0.0,0.0,0.0,0.0,-1.2351,-1.2826,-1.3662,-1.3737,-1.342,-1.2565,-1.2274,-1.147,-0.9974,0.0,0.0,0.0,0.0,0.0,0.0,0.0,0.0,0.0,0.0,0.0,0.0,0.0,0.0,0.0,0.0,0.0,0.0,0.0,0.0,0.0,0.0,0.0,0.0,0.0,0.0,0.0,0.0,0.0,0.0,0.0,0.0,0.0,0.0,0.0,0.0,0.0,0.0,0.0,0.0,0.0,0.0,0.0,0.0,0.0,0.0,0.0,0.0,0.0,0.0,0.0,0.0,0.0,0.0,0.0,0.0,0.0,0.0,0.0,0.0,0.0,0.0,0.0,0.0,0.0,0.0,0.0,0.0,0.0,0.0,0.0,0.0,0.0,0.0,0.0,0.0,0.0,0.0,0.0,0.0,0.0,0.0,0.0,0.0,0.0,0.0,0.0,0.0,0.0,0.0,0.0,0.0,0.0,0.0,0.0,0.0,0.0,0.0,0.0,0.0,0.0,0.0,-1.2305,-1.277,-1.3389,-1.4569,-1.4693,-1.4326,-1.3389,-1.3128,-1.2274,-1.0562,0.0,0.0,0.0,0.0,0.0,0.0,0.0,0.0,0.0,0.0,0.0,0.0,0.0,0.0,0.0,0.0,0.0,0.0,0.0,0.0,0.0,0.0,0.0,0.0,0.0,0.0,0.0,0.0,0.0,0.0,0.0,0.0,0.0,0.0,0.0,0.0,0.0,0.0,0.0,0.0,0.0,0.0,0.0,0.0,0.0,0.0,0.0,0.0,0.0,0.0,0.0,0.0,0.0,0.0,0.0,0.0,0.0,0.0,0.0,0.0,0.0,0.0,0.0,0.0,0.0,0.0,0.0,0.0,0.0,0.0,0.0,0.0,0.0,0.0,0.0,0.0,0.0,0.0,0.0,0.0,0.0,0.0,0.0,0.0,0.0,0.0,0.0,0.0,0.0,0.0,0.0,0.0,0.0,0.0,0.0,0.0,0.0,0.0,0.0,0.0,0.0,0.0,-1.246,-1.3322,-1.4217,-1.5,-1.5111,-1.5111,-1.5096,-1.4484,-1.364,0.0,0.0,0.0,0.0,0.0,0.0,0.0,0.0,0.0,0.0,0.0,0.0,0.0,0.0,0.0,0.0,0.0,0.0,0.0,0.0,0.0,0.0,0.0,0.0,0.0,0.0,0.0,0.0,0.0,0.0,0.0,0.0,0.0,0.0,0.0,0.0,0.0,0.0,0.0,0.0,0.0,0.0,0.0,0.0,0.0,0.0,0.0,0.0,0.0,0.0,0.0,0.0,0.0,0.0,0.0,0.0,0.0,0.0,0.0,0.0,0.0,0.0,0.0,0.0,0.0,0.0,0.0,0.0,0.0,0.0,0.0,0.0,0.0,0.0,0.0,0.0,0.0,0.0,0.0,0.0,0.0,0.0,0.0,0.0,0.0,0.0,0.0,0.0,0.0,0.0,0.0,0.0,0.0,0.0,0.0,0.0,0.0,0.0,0.0,0.0,0.0,0.0,0.0,-1.279,-1.3799,-1.4641,-1.5052,-1.5349,-1.5339,-1.4858,-1.4161,-1.3315,-1.2282,0.0,0.0,0.0,0.0,0.0,0.0,0.0,0.0,0.0,0.0,0.0,0.0,0.0,0.0,0.0,0.0,0.0,0.0,0.0,0.0,0.0,0.0,0.0,0.0,0.0,0.0,0.0,0.0,0.0,0.0,0.0,0.0,0.0,0.0,0.0,0.0,0.0,0.0,0.0,0.0,0.0,0.0,0.0,0.0,0.0,0.0,0.0,0.0,0.0,0.0,0.0,0.0,0.0,0.0,0.0,0.0,0.0,0.0,0.0,0.0,0.0,0.0,0.0,0.0,0.0,0.0,0.0,0.0,0.0,0.0,0.0,0.0,0.0,0.0,0.0,0.0,0.0,0.0,0.0,0.0,0.0,0.0,0.0,0.0,0.0,0.0,0.0,0.0,0.0,0.0,0.0,0.0,0.0,0.0,0.0,0.0,0.0,0.0,0.0,0.0,0.0,0.0,-1.3542,-1.4243,-1.49,-1.5508,-1.579,-1.5773,-1.5378,-1.4647,-1.3799,-1.276,0.0,0.0,0.0,0.0,0.0,0.0,0.0,0.0,0.0,0.0,0.0,0.0,0.0,0.0,0.0,0.0,0.0,0.0,0.0,0.0,0.0,0.0,0.0,0.0,0.0,0.0,0.0,0.0,0.0,0.0,0.0,0.0,0.0,0.0,0.0,0.0,0.0,0.0,0.0,0.0,0.0,0.0,0.0,0.0,0.0,0.0,0.0,0.0,0.0,0.0,0.0,0.0,0.0,0.0,0.0,0.0,0.0,0.0,0.0,0.0,0.0,0.0,0.0,0.0,0.0,0.0,0.0,0.0,0.0,0.0,0.0,0.0,0.0,0.0,0.0,0.0,0.0,0.0,0.0,0.0,0.0,0.0,0.0,0.0,0.0,0.0,0.0,0.0,0.0,0.0,0.0,0.0,0.0,0.0,0.0,0.0,0.0,0.0,0.0,0.0,0.0,0.0,-1.4577,-1.4775,-1.5212,-1.6201,-1.6341,-1.636,-1.636,-1.5683,-1.4798,-1.3715,0.0,0.0,0.0,0.0,0.0,0.0,0.0,0.0,0.0,0.0,0.0,0.0,0.0,0.0,0.0,0.0,0.0,0.0,0.0,0.0,0.0,0.0,0.0,0.0,0.0,0.0,0.0,0.0,0.0,0.0,0.0,0.0,0.0,0.0,0.0,0.0,0.0,0.0,0.0,0.0,0.0,0.0,0.0,0.0,0.0,0.0,0.0,0.0,0.0,0.0,0.0,0.0,0.0,0.0,0.0,0.0,0.0,0.0,0.0,0.0,-1.2114,-1.1991,0.0,0.0,0.0,0.0,0.0,0.0,0.0,0.0,0.0,0.0,0.0,0.0,0.0,0.0,0.0,0.0,0.0,0.0,0.0,0.0,0.0,0.0,0.0,0.0,0.0,0.0,0.0,0.0,0.0,0.0,0.0,0.0,0.0,0.0,0.0,0.0,0.0,0.0,0.0,0.0,-1.5153,-1.5941,-1.639,-1.6306,-1.6579,-1.6763,-1.6763,-1.6105,-1.5202,-1.4134,-1.3328,0.0,0.0,0.0,0.0,0.0,0.0,0.0,0.0,0.0,0.0,0.0,0.0,0.0,0.0,0.0,0.0,0.0,0.0,0.0,0.0,0.0,0.0,0.0,0.0,0.0,0.0,0.0,0.0,0.0,0.0,0.0,0.0,0.0,0.0,0.0,0.0,0.0,0.0,0.0,0.0,0.0,0.0,0.0,0.0,0.0,0.0,0.0,0.0,0.0,0.0,0.0,0.0,0.0,0.0,0.0,0.0,0.0,0.0,0.0,-1.246,-1.2103,0.0,0.0,0.0,0.0,0.0,0.0,0.0,0.0,0.0,0.0,0.0,0.0,0.0,0.0,0.0,0.0,0.0,0.0,0.0,0.0,0.0,0.0,0.0,0.0,0.0,0.0,0.0,0.0,0.0,0.0,0.0,0.0,0.0,0.0,0.0,0.0,0.0,0.0,0.0,0.0,-1.5773,-1.567,-1.5791,-1.6511,-1.6469,-1.6508,-1.6874,-1.586,-1.5035,-1.4574,-1.3463,0.0,0.0,0.0,0.0,0.0,0.0,0.0,0.0,0.0,0.0,0.0,0.0,0.0,0.0,0.0,0.0,0.0,0.0,0.0,0.0,0.0,0.0,0.0,0.0,0.0,0.0,0.0,0.0,0.0,0.0,0.0,0.0,0.0,0.0,0.0,0.0,0.0,0.0,0.0,0.0,0.0,0.0,0.0,0.0,0.0,0.0,0.0,0.0,0.0,0.0,0.0,0.0,0.0,-1.4388,-1.3887,-1.3422,-1.3982,-1.3425,-1.2103,-1.2507,-1.1925,-1.0678,-1.0843,0.0,0.0,0.0,0.0,0.0,0.0,0.0,0.0,0.0,0.0,0.0,0.0,0.0,0.0,0.0,0.0,0.0,0.0,0.0,0.0,0.0,0.0,-1.051,-1.0336,-1.0326,-1.0381,-1.0474,0.0,0.0,0.0,0.0,0.0,0.0,0.0,0.0,0.0,0.0,0.0,-1.6001,-1.4981,-1.4736,-1.6385,-1.6017,-1.5895,-1.6542,-1.5436,-1.4724,-1.476,-1.3571,-1.2799,0.0,0.0,0.0,0.0,0.0,0.0,0.0,0.0,0.0,0.0,0.0,0.0,0.0,0.0,0.0,0.0,0.0,0.0,0.0,0.0,0.0,0.0,0.0,0.0,0.0,0.0,0.0,0.0,0.0,0.0,0.0,0.0,-1.2025,-1.2347,0.0,0.0,0.0,0.0,0.0,0.0,0.0,0.0,0.0,0.0,0.0,0.0,0.0,-1.5954,-1.5433,-1.4058,-1.3121,-1.2704,-1.1654,-1.1131,-1.1051,-1.1366,-1.1385,-1.1168,-1.1421,0.0,-1.0963,-1.0977,0.0,0.0,0.0,0.0,0.0,0.0,0.0,0.0,0.0,0.0,0.0,0.0,0.0,0.0,0.0,0.0,0.0,0.0,0.0,0.0,0.0,0.0,-1.0336,-1.0304,-1.0424,-1.0474,-1.0151,-1.0612,-1.1136,-1.1291,-1.2286,-1.3169,0.0,0.0,0.0,0.0,0.0,0.0,-1.5022,-1.478,-1.4678,-1.5117,-1.5081,-1.5117,-1.54,-1.524,-1.4866,-1.4238,-1.4021,-1.3662,-1.3142,-1.2558,0.0,0.0,0.0,0.0,0.0,0.0,0.0,0.0,0.0,0.0,0.0,0.0,0.0,0.0,0.0,0.0,0.0,0.0,0.0,0.0,0.0,0.0,0.0,0.0,0.0,0.0,0.0,0.0,0.0,-1.1605,-1.2016,-1.2507,-1.2326,-1.2583,0.0,0.0,0.0,0.0,0.0,0.0,0.0,0.0,0.0,-1.4261,-1.4223,-1.3987,-1.3491,-1.2486,-1.2017,-1.2119,-1.1442,-1.093,-1.0618,-1.1061,-1.1096,-1.0779,-1.0866,-1.0852,-1.0812,-1.1057,-1.1208,-1.1304,0.0,0.0,0.0,0.0,-1.108,-1.0994,-1.0994,-1.0994,-1.0994,-1.0994,0.0,0.0,0.0,0.0,0.0,0.0,0.0,-1.0865,-1.0865,-1.0865,-1.0771,-1.0387,-1.0367,-1.0275,-0.9673,-0.9948,-1.0342,-1.05,-1.1756,-1.2717,-1.247,-1.3213,0.0,0.0,0.0,-1.4107,-1.4754,-1.4146,-1.4006,-1.4956,-1.4689,-1.4651,-1.5169,-1.4953,-1.4718,-1.4513,-1.4107,-1.3811,-1.3658,-1.2862,-1.2133,0.0,0.0,0.0,0.0,0.0,0.0,0.0,0.0,0.0,0.0,0.0,0.0,0.0,0.0,0.0,0.0,0.0,0.0,0.0,0.0,0.0,0.0,0.0,0.0,0.0,0.0,0.0,0.0,-1.1456,-1.1833,-1.2495,-1.2198,-1.2454,0.0,0.0,0.0,0.0,0.0,0.0,-1.4226,-1.4226,-1.3709,-1.2622,-1.2699,-1.2507,-1.2002,-1.1415,-1.131,-1.164,-1.1384,-1.1031,-1.0618,-1.1138,-1.1131,-1.0704,-1.0768,-1.078,-1.0801,-1.1091,-1.1219,-1.1219,-1.1284,-1.1305,-1.1305,-1.1305,-1.1305,-1.1305,-1.1305,-1.1305,-1.1305,-1.1305,-1.1305,-1.1273,-1.1112,0.0,0.0,0.0,0.0,-1.1198,-1.1091,-1.0995,-1.0783,-1.0157,-1.0013,-0.9849,-0.9192,-0.9399,-0.9768,-0.9877,-1.0977,-1.1808,-1.1503,-1.254,0.0,-1.3317,-1.3469,-1.3749,-1.4253,-1.3567,-1.3498,-1.4688,-1.4402,-1.4372,-1.4976,-1.4695,-1.4551,-1.4717,-1.4035,-1.3691,-1.3844,-1.2928,-1.2267,-1.195,0.0,0.0,0.0,0.0,0.0,0.0,0.0,0.0,0.0,0.0,0.0,0.0,0.0,0.0,0.0,0.0,0.0,0.0,0.0,0.0,0.0,0.0,0.0,0.0,0.0,0.0,0.0,0.0,0.0,-1.137,-1.1586,0.0,0.0,0.0,0.0,-1.3472,-1.4217,-1.4511,-1.4036,-1.4015,-1.3805,-1.3353,-1.3049,-1.2601,-1.2002,-1.1653,-1.1194,-1.0669,-1.0658,-1.0638,-1.0608,-1.0905,-1.1003,-1.0982,-1.1187,-1.1273,-1.1252,-1.109,-1.1025,-1.1025,-1.1241,-1.1305,-1.1305,-1.1305,-1.1305,-1.1305,-1.1305,-1.1305,-1.1305,-1.1305,-1.1305,-1.1305,-1.1295,-1.1284,0.0,0.0,-1.1155,-1.092,-1.048,-1.016,-0.9856,-0.9357,-0.9255,-0.9153,-0.8714,-0.9379,-0.9988,-0.9678,-1.0262,-1.0762,-1.0741,0.0,-1.249,-1.2305,-1.2823,-1.3159,-1.3013,-1.3229,-1.3473,-1.3757,-1.4031,-1.4297,-1.4511,-1.4506,-1.4501,-1.4501,-1.3828,-1.3422,-1.3422,-1.2472,-1.1805,-1.1542,-1.117,0.0,0.0,0.0,0.0,0.0,0.0,0.0,0.0,0.0,0.0,0.0,0.0,0.0,0.0,0.0,0.0,0.0,0.0,0.0,0.0,0.0,0.0,0.0,0.0,0.0,0.0,0.0,0.0,-1.1305,-1.137,0.0,-1.1435,-1.1811,-1.2047,-1.2047,-1.2336,-1.2393,-1.2089,-1.2069,-1.1924,-1.1608,-1.1656,-1.1566,-1.1358,-1.1373,-1.1259,-1.1059,-1.1059,-1.1059,-1.1059,-1.1144,-1.1284,-1.1445,-1.1542,-1.1661,-1.1812,-1.1748,-1.1488,-1.1209,-1.1273,-1.1305,-1.1305,-1.1305,-1.1305,-1.1305,-1.1305,-1.1305,-1.1305,-1.1305,-1.1305,-1.1305,-1.1305,-1.1089,-1.0862,-1.0862,-1.0675,-1.0462,-1.0287,-1.026,-1.0137,-0.9537,-0.9401,-0.9256,-0.8721,-0.888,-0.909,-0.8974,-0.9905,-1.054,-1.0018,-1.0705,-1.1358,-1.1417,-1.1641,-1.1872,-1.2105,-1.2616,-1.3091,-1.3474,-1.4034,-1.4433,-1.4492,-1.4648,-1.4565,-1.4131,-1.3856,-1.3534,-1.3103,-1.2156,-1.1688,-1.1758,-1.1096,-1.0768,0.0,0.0,0.0,0.0,0.0,0.0,0.0,0.0,0.0,0.0,0.0,0.0,0.0,0.0,0.0,0.0,0.0,0.0,0.0,0.0,0.0,0.0,0.0,0.0,0.0,-1.1305,-1.1305,-1.1305,-1.1305,-1.1305,-1.1305,-1.1305,-1.1305,-1.1305,-1.1305,-1.1241,-1.1112,-1.1112,-1.1015,-1.0844,-1.1004,-1.1112,-1.1112,-1.1327,-1.1423,-1.1445,-1.1531,-1.1563,-1.1563,-1.1563,-1.1671,-1.1834,-1.1834,-1.1954,-1.2094,-1.2094,-1.1775,-1.1321,-1.1497,-1.1563,-1.1563,-1.1563,-1.1563,-1.1541,-1.1365,-1.1299,-1.1277,-1.11,-1.1033,-1.1033,-1.1033,-1.0802,-1.0571,-1.0571,-1.0433,-1.0253,-1.0117,-1.015,-1.0121,-0.9506,-0.9366,-0.9264,-0.8861,-0.8769,-0.8769,-0.8769,-0.9377,-0.9721,-0.9195,-0.9764,-1.0474,-1.0997,-1.1026,-1.1247,-1.1958,-1.2343,-1.2654,-1.2967,-1.3688,-1.4119,-1.4119,-1.4504,-1.4453,-1.3774,-1.3733,-1.3444,-1.2758,-1.1905,-1.1532,-1.1691,-1.1117,-1.0763,-1.0636,0.0,0.0,0.0,0.0,0.0,0.0,0.0,0.0,0.0,0.0,0.0,0.0,0.0,0.0,0.0,0.0,0.0,0.0,0.0,0.0,0.0,0.0,0.0,-1.097,-1.1208,-1.1208,-1.1208,-1.123,-1.1251,-1.1219,-1.1241,-1.1262,-1.1273,-1.1273,-1.1283,-1.1305,-1.1305,-1.1305,-1.1327,-1.1305,-1.1305,-1.1327,-1.1574,-1.1715,-1.1715,-1.1986,-1.2094,-1.2071,-1.2071,-1.2071,-1.2059,-1.2059,-1.2059,-1.207,-1.207,-1.1771,-1.1346,-1.1865,-1.2071,-1.2048,-1.2048,-1.2048,-1.198,-1.1464,-1.128,-1.1188,-1.0658,-1.0496,-1.0496,-1.0496,-1.0496,-1.0473,-1.0473,-1.0482,-1.0366,-0.9911,-0.9795,-0.9687,-0.9221,-0.9104,-0.9104,-0.9096,-0.9096,-0.9096,-0.9096,-0.8674,-0.8316,-0.8316,-0.8977,-0.9856,-1.0972,-1.1022,0.0,-1.2465,-1.2339,-1.2168,-1.2209,-1.2924,-1.3396,-1.3417,-1.4032,-1.4103,-1.3417,-1.3396,-1.3098,-1.2414,-1.1694,-1.1327,-1.1316,-1.1273,-1.0808,-0.9898,0.0,0.0,0.0,0.0,0.0,0.0,0.0,0.0,0.0,0.0,0.0,0.0,0.0,0.0,0.0,0.0,0.0,0.0,0.0,0.0,0.0,-0.7623,-0.8431,-0.9281,-0.9424,-0.9424,-0.9424,-0.9714,-0.9881,-0.9777,-1.0125,-1.0389,-1.0502,-1.0499,-1.0736,-1.1279,-1.1312,-1.1471,-1.1877,-1.1493,-1.1493,-1.1877,-1.1579,-1.161,-1.1997,-1.2062,-1.1911,-1.152,-1.152,-1.1394,-1.1155,-1.1155,-1.1267,-1.1452,-1.1452,-1.1356,-1.1255,-1.1435,-1.128,-1.0935,-1.0935,-1.0935,-1.0911,-1.0773,-1.0727,-1.0704,-1.0542,-1.0496,-1.0496,-1.0496,-1.0274,-0.9995,-0.9995,-0.9859,-0.9687,-0.9545,-0.9573,-0.9591,-0.9363,-0.9307,-0.9274,-0.9129,-0.9096,-0.9096,-0.9096,-0.8974,-0.8877,-0.8877,-0.9054,-0.9314,-0.962,-0.9642,-0.9867,-1.0506,-1.0947,-1.1469,-1.2182,-1.2907,-1.3488,-1.3878,-1.4065,-1.3901,-1.3223,-1.3179,-1.2888,-1.2215,-1.199,-1.1802,-1.1585,-1.0933,-1.0291,0.0,0.0,0.0,0.0,0.0,0.0,0.0,0.0,0.0,0.0,0.0,0.0,0.0,0.0,0.0,0.0,0.0,0.0,0.0,0.0,0.0,0.0,-0.6594,-0.6976,-0.732,-0.799,-0.8444,-0.8444,-0.8681,-0.8823,-0.8741,-0.9024,-0.9368,-0.9785,-0.9817,-1.0159,-1.0935,-1.0958,-1.1096,-1.1418,-1.1119,-1.1096,-1.1428,-1.1195,-1.1245,-1.1571,-1.1663,-1.1563,-1.1256,-1.1256,-1.1158,-1.0971,-1.0971,-1.0867,-1.0699,-1.0699,-1.0399,-1.002,0.0,0.0,0.0,0.0,-1.0782,-1.0759,-1.0545,-1.045,-1.0427,-1.0189,-1.0118,-1.0118,-1.0118,-0.9936,-0.9721,-0.9721,-0.9605,-0.9494,-0.9494,-0.9551,-0.9575,-0.9494,-0.9494,-0.9445,-0.934,-0.9324,-0.9324,-0.9324,-0.9324,0.0,-0.9324,-0.9194,-0.9259,-0.9731,-0.9414,-0.9368,-1.0116,-1.0302,-1.0602,-1.1188,-1.1775,-1.2336,-1.2871,-1.3189,0.0,0.0,0.0,-1.2803,-1.214,-1.1681,0.0,0.0,0.0,-0.9156,-0.8387,-0.7832,0.0,0.0,-0.7206,-0.7333,0.0,0.0,0.0,0.0,0.0,0.0,0.0,0.0,0.0,0.0,0.0,0.0,0.0,0.0,0.0,0.0,-0.5251,-0.5288,-0.5391,-0.675,-0.7752,-0.7808,-0.7848,-0.7888,-0.7874,-0.7914,-0.8255,-0.8979,-0.9049,-0.9384,-1.0189,-1.0212,0.0,0.0,0.0,-1.0259,-1.0305,-1.0445,-1.0521,-1.0602,-1.0843,-1.0935,-1.0861,-1.0861,-1.0836,-1.0787,-1.0787,-1.0391,-0.9714,-0.9714,-0.9085,-0.8287,-1.0079,-1.0787,-1.0787,-1.0769,-1.0784,-1.0701,-1.0216,0.0,0.0,-0.9476,-0.9327,-0.9327,-0.9327,-0.9327,-0.9327,-0.9327,-0.9327,-0.9327,-0.9327,-0.9327,-0.9327,-0.9327,-0.9327,-0.9327,-0.9327,-0.9327,-0.9327,-0.9327,-0.9327,-0.9327,-0.9327,-0.922,-0.9497,-1.0496,-0.9792,-0.952,-1.052,-1.0142,-0.9809,-0.9848,-1.0291,0.0,-1.1338,-1.1975,-1.2308,-1.2193,-1.2676,-1.2676,-1.1985,-1.098,-1.0273,-0.9902,-0.8863,-0.7778,-0.6655,-0.6543,-0.6049,-0.5251,-0.6795,-0.7126,0.0,0.0,0.0,0.0,0.0,0.0,0.0,0.0,0.0,0.0,0.0,0.0,0.0,0.0,0.0,-0.5122,-0.4946,-0.4834,-0.4922,-0.5212,-0.559,-0.5945,-0.634,-0.6517,-0.6419,-0.6738,-0.7111,-0.7417,-0.7448,-0.7735,-0.8444,-0.8476,-0.8689,-0.9104,-0.8713,-0.8696,-0.9128,-0.8835,-0.8891,-0.9268,-0.9422,0.0,-0.8862,-0.8862,-0.8636,-0.8228,-0.8228,-0.8124,-0.7995,-0.7995,-0.7851,-0.7668,-0.8053,-0.8228,-0.8215,-0.8165,-0.8125,-0.8105,-0.7897,-0.7808,-0.7808,-0.7708,-0.7658,-0.7658,-0.7658,-0.7658,0.0,-0.7658,-0.7658,-0.7658,-0.7658,-0.7658,-0.7658,-0.7658,-0.7658,-0.7658,-0.7658,-0.7658,-0.7658,-0.7658,-0.7658,-0.7658,-0.7658,-0.8682,-0.9575,-0.9811,-0.9641,-0.9575,-0.9811,-0.9714,-0.982,-1.025,-1.076,-1.1293,-1.1825,-1.2379,-1.2691,-1.2678,-1.2379,-1.1863,-1.1081,-1.0451,-0.9671,-0.8743,-0.7787,-0.6995,-0.6367,-0.5624,-0.5062,-0.4759,-0.5448,-0.5574,0.0,0.0,0.0,0.0,0.0,0.0,0.0,0.0,0.0,0.0,0.0,-0.5128,-0.5178,0.0,-0.4837,-0.4925,-0.4843,-0.4761,-0.4801,-0.4809,-0.4893,-0.5124,-0.5363,-0.5463,-0.5411,-0.5601,-0.5967,-0.6467,-0.6498,-0.6816,-0.7552,-0.7666,-0.7831,-0.8101,-0.7877,-0.7884,-0.8139,-0.7962,-0.7969,-0.8202,-0.8268,-0.8144,-0.7889,-0.7889,-0.7757,-0.7501,-0.7501,-0.7264,-0.6875,-0.6509,-0.6348,-0.6353,-0.6413,-0.6872,-0.7489,-0.7449,-0.7451,-0.7445,-0.7378,-0.736,-0.736,-0.736,-0.736,-0.736,-0.736,-0.736,-0.736,-0.736,-0.736,-0.736,-0.736,-0.736,-0.736,-0.736,-0.736,-0.736,-0.736,-0.736,-0.736,-0.736,-0.736,-0.736,-0.736,-0.8025,-0.8505,-0.8407,-0.8733,-0.9006,-0.9006,-0.9352,-0.9698,-0.9969,-1.024,-1.0609,-1.1149,-1.1688,-1.1824,-1.1433,-1.1185,-1.0685,-0.9879,-0.9138,-0.8429,-0.7768,-0.6771,-0.6063,-0.5707,-0.5187,-0.4893,-0.4794,-0.4969,-0.4971,0.0,0.0,0.0,0.0,0.0,0.0,0.0,-0.5269,-0.5269,-0.5221,-0.5025,-0.4903,-0.5034,-0.4892,-0.4781,-0.4826,-0.485,-0.4862,-0.4862,-0.4862,-0.4862,-0.4862,-0.483,-0.4817,-0.4834,-0.4834,-0.512,-0.5779,-0.583,-0.6108,-0.676,-0.6901,-0.6953,-0.6953,-0.7003,-0.7027,-0.7027,-0.705,-0.7061,-0.7061,-0.7089,-0.71,-0.71,-0.71,-0.71,-0.71,-0.71,-0.6728,-0.6071,-0.5483,-0.5244,-0.5252,-0.5353,-0.6083,-0.7095,-0.7072,-0.7061,-0.7061,-0.7038,-0.7027,-0.7027,-0.7027,-0.7027,-0.7027,-0.7027,-0.7027,-0.7027,-0.7027,-0.7027,-0.7027,-0.7027,-0.7027,-0.7027,-0.7027,-0.7027,-0.7027,-0.7027,-0.7027,-0.7027,-0.7027,-0.7027,-0.7027,-0.7027,-0.7027,-0.709,-0.7244,-0.7818,-0.822,-0.822,-0.8797,-0.9197,-0.9197,-0.9272,-0.9572,-1.0095,-1.0534,-1.0534,-0.9879,-0.9793,-0.9381,-0.8589,-0.7728,-0.71,-0.6732,-0.5871,-0.5324,-0.5108,-0.5035,-0.5024,-0.5024,-0.4895,-0.4809,-0.579,-0.5657,-0.5567,-0.5518,-0.5536,-0.5504,0.0,-0.5209,-0.5134,-0.4906,-0.4831,-0.4806,-0.4843,-0.4913,-0.497,-0.4979,-0.5022,-0.5079,-0.5079,-0.5079,-0.5079,-0.5079,-0.4907,-0.4842,-0.4974,-0.4983,-0.5041,-0.5177,-0.5211,-0.5233,-0.5339,-0.5352,-0.5356,-0.5356,-0.5364,-0.5373,-0.5373,-0.5428,-0.5443,-0.547,-0.5583,-0.5626,-0.5626,-0.5626,-0.5626,-0.5626,-0.5626,-0.5571,-0.5492,-0.5417,-0.5365,-0.5365,-0.5405,-0.5509,-0.5618,-0.5505,-0.5443,-0.5458,-0.5399,-0.5373,-0.5373,-0.5373,-0.5373,-0.5373,-0.5373,-0.5373,-0.5373,-0.5373,-0.5373,-0.5373,-0.5373,-0.5373,-0.5373,-0.5373,-0.5373,-0.5373,-0.5373,-0.5373,-0.5373,-0.5373,-0.5373,-0.5373,-0.5373,-0.5373,-0.5836,-0.725,-0.7537,-0.7616,-0.7616,-0.7688,-0.7746,-0.7746,-0.8157,-0.8671,-0.9209,-0.9313,-0.9313,-0.9209,-0.8763,-0.8144,-0.734,-0.6753,-0.6083,-0.5342,-0.5214,-0.5135,-0.5108,-0.5096,-0.5092,-0.5092,-0.5084,-0.496,-0.5664,-0.5492,-0.5345,-0.5429,-0.5344,-0.5235,-0.5162,-0.5149,-0.5097,-0.4994,-0.4968,-0.4968,-0.4968,-0.5026,-0.5051,-0.5051,-0.5084,-0.5108,-0.5108,-0.5108,-0.5108,-0.5108,-0.5012,-0.501,-0.5047,-0.5051,-0.5067,-0.5104,-0.5108,-0.5108,-0.5108,-0.513,-0.5159,-0.5159,-0.5239,-0.5267,-0.5267,-0.5304,-0.5324,-0.5324,-0.5365,-0.5409,-0.5409,-0.5409,-0.5409,-0.5409,-0.5409,-0.5409,-0.5409,-0.5409,-0.5409,-0.5409,-0.5409,-0.5409,-0.5405,-0.5337,-0.5324,-0.5316,-0.5279,-0.5267,-0.5267,-0.5267,-0.5267,-0.5267,-0.5267,-0.5267,-0.5267,-0.5267,-0.5267,-0.5267,-0.5267,-0.5267,-0.5267,-0.5267,-0.5267,-0.5267,-0.5267,-0.5267,-0.5267,-0.5267,-0.5267,-0.5267,-0.5267,-0.5267,-0.5513,-0.6191,-0.6589,-0.679,-0.679,-0.7211,-0.7501,-0.7501,-0.7705,-0.7915,-0.8144,-0.8171,-0.7961,-0.7489,-0.7302,-0.684,-0.6036,-0.5859,-0.5622,-0.5295,-0.5267,-0.5267,-0.5267,-0.5187,-0.5159,-0.5159,-0.5106,-0.5067,-0.4993,-0.4896,-0.4794,-0.5223,-0.5166,-0.5052,-0.5092,-0.5108,-0.5108,-0.5108,-0.5108,-0.5108,-0.5108,-0.5102,-0.5118,-0.5118,-0.5165,-0.5186,-0.5186,-0.5186,-0.5186,-0.5186,-0.5047,-0.4832,-0.4586,-0.4889,-0.5157,-0.5181,-0.5186,-0.5186,-0.5186,-0.522,-0.5256,-0.5256,-0.5345,-0.5409,-0.5409,-0.5409,-0.5409,-0.5409,-0.5409,-0.5409,-0.5409,-0.5409,-0.5409,-0.5409,-0.5409,-0.5409,-0.5409,-0.5409,-0.5409,-0.5409,-0.5409,-0.5409,-0.5409,-0.5409,-0.5409,-0.5409,-0.5409,-0.5409,-0.5409,-0.5409,-0.5409,-0.5409,-0.5409,-0.5409,-0.5409,-0.5409,-0.5409,-0.5409,-0.5409,-0.5409,-0.5409,-0.5409,-0.5409,-0.5409,-0.5409,-0.5409,-0.5409,-0.5409,-0.5409,-0.5409,-0.5409,-0.5409,-0.5409,-0.5409,-0.5786,-0.6063,-0.6063,-0.6572,-0.692,-0.692,-0.692,-0.692,-0.692,-0.692,-0.6679,-0.609,-0.6108,-0.5854,-0.5279,-0.5345,-0.5409,-0.5409,-0.5409,-0.5409,-0.5409,-0.5316,-0.5256,-0.5252,-0.5214,-0.5186,-0.3548,-0.3672,-0.3716,-0.4842,-0.5104,-0.5104,-0.5108,-0.5108,-0.5108,-0.5108,-0.5108,-0.5108,-0.5108,-0.5155,-0.5184,-0.5184,-0.5316,-0.5401,-0.5401,-0.5401,-0.5401,-0.5401,-0.4868,-0.4164,-0.3238,-0.4405,-0.5248,-0.5393,-0.5401,-0.5401,-0.5401,-0.5405,-0.5405,-0.5405,-0.5409,-0.5409,-0.5409,-0.5409,-0.5409,-0.5409,-0.5409,-0.5409,-0.5409,-0.5409,-0.5409,-0.5409,-0.5409,-0.5409,-0.5409,-0.5409,-0.5409,-0.5409,-0.5409,-0.5409,-0.5409,-0.5409,-0.5409,-0.5409,-0.5409,-0.5409,-0.5409,-0.5409,-0.5409,-0.5409,-0.5409,-0.5409,-0.5409,-0.5409,-0.5409,-0.5409,-0.5409,-0.5409,-0.5409,-0.5409,-0.5409,-0.5409,-0.5409,-0.5409,-0.5409,-0.5409,-0.5409,-0.5409,-0.5409,-0.5409,-0.5409,-0.5409,-0.5405,-0.5429,-0.5429,-0.5457,-0.5457,-0.5457,-0.5457,-0.5457,-0.5457,-0.5457,-0.5457,-0.5429,-0.5433,-0.5405,-0.5405,-0.5409,-0.5409,-0.5409,-0.5409,-0.5409,-0.5409,-0.5405,-0.5405,-0.5405,-0.5401,-0.5401,-0.222,-0.2244,-0.2248,-0.2721,-0.284,-0.2848,-0.2909,-0.2916,-0.2916,-0.2916,-0.2916,-0.2916,-0.2916,-0.3592,-0.3886,-0.308,-0.3653,-0.3835,-0.2826,-0.2686,-0.2602,-0.2431,-0.2235,-0.1984,-0.1676,-0.2589,-0.2976,-0.2459,-0.2938,-0.3276,-0.3276,-0.3866,-0.4204,-0.4204,-0.4204,-0.44,-0.4787,-0.4787,-0.5015,-0.5409,-0.5409,-0.5409,-0.5409,-0.5409,-0.5409,-0.5409,-0.5409,-0.5409,-0.5409,-0.5409,-0.5409,-0.5409,-0.5409,-0.5409,-0.5409,-0.5409,-0.5409,-0.5409,-0.5409,-0.5409,-0.5409,-0.5409,-0.5409,-0.5409,-0.5409,-0.5409,-0.5409,-0.5409,-0.5409,-0.5409,-0.5409,-0.5409,-0.5409,-0.5409,-0.5409,-0.5409,-0.5409,-0.5409,-0.5409,-0.5409,-0.5409,-0.5409,-0.5409,-0.5409,-0.5409,-0.5409,-0.5409,-0.5409,-0.5409,-0.5409,-0.5409,-0.5409,-0.5409,-0.5409,-0.5409,-0.5409,-0.5409,-0.5409,-0.5409,-0.5409,-0.5409,-0.5409,-0.5409,-0.5409,-0.5409,-0.5409,-0.5409,-0.5409,-0.4987,-0.4198,-0.4198,-0.3779,-0.092,-0.0985,-0.1078,-0.1617,-0.1735,-0.1739,-0.1787,-0.1791,-0.1791,-0.1791,-0.1791,-0.1791,-0.1791,-0.2323,-0.2519,-0.1735,-0.2181,-0.2269,-0.1268,-0.1129,-0.1046,-0.0853,-0.0626,-0.0398,-0.0085,-0.0342,-0.0652,-0.0894,-0.1425,-0.1734,-0.1734,-0.2295,-0.2638,-0.2598,-0.261,-0.2807,-0.3188,-0.3197,-0.3413,-0.3804,-0.3804,-0.3804,-0.3804,-0.3804,-0.3804,-0.3804,-0.3804,-0.3835,-0.3921,-0.3945,-0.3982,-0.407,-0.4066,-0.4075,-0.4075,-0.4075,-0.4075,-0.4214,-0.5124,-0.5426,-0.5431,-0.5463,-0.5475,-0.5475,-0.5475,-0.5163,-0.479,-0.479,-0.4448,-0.4075,-0.4075,-0.4075,-0.4075,-0.4075,-0.4075,-0.4075,-0.4075,-0.4075,-0.4075,-0.4075,-0.4075,-0.4075,-0.4075,-0.4075,-0.4075,-0.4075,-0.4075,-0.44,-0.5278,-0.5409,-0.5409,-0.5409,-0.541,-0.5426,-0.5426,-0.5455,-0.5475,-0.5475,-0.5475,-0.5475,-0.5475,-0.5475,-0.5475,-0.5475,-0.5017,-0.479,-0.479,-0.4306,-0.3694,-0.2908,-0.2908,-0.2506,0.0379,0.0082,-0.0192,-0.1338,-0.1623,-0.1623,-0.1623,-0.1623,-0.1623,-0.1595,-0.1595,-0.1595,-0.1567,-0.1372,-0.1176,-0.1092,-0.0923,-0.0759,-0.0629,-0.0602,-0.0548,-0.0469,0.0029,0.0705,0.1526,0.2144,0.1593,-0.0505,-0.07,-0.0728,-0.0727,-0.0783,-0.0789,-0.0715,-0.0789,-0.0788,-0.0772,-0.0844,-0.0894,-0.0894,-0.0894,-0.0894,-0.0894,-0.0894,-0.0894,-0.0895,-0.0895,-0.1036,-0.1293,-0.1283,-0.1463,-0.1698,-0.1695,-0.1706,-0.1706,-0.1706,-0.1706,-0.2055,-0.4479,-0.5316,-0.5328,-0.5381,-0.5409,-0.5409,-0.5409,-0.4555,-0.3587,-0.3587,-0.2674,-0.1706,-0.1706,-0.1706,-0.1706,-0.1706,-0.1706,-0.1706,-0.1706,-0.1706,-0.1706,-0.1706,-0.1706,-0.1706,-0.1706,-0.1706,-0.1706,-0.1706,-0.1706,-0.256,-0.4908,-0.5198,-0.5226,-0.531,-0.5382,-0.5398,-0.5398,-0.5478,-0.5467,-0.5409,-0.5409,-0.5409,-0.5409,-0.5409,-0.5409,-0.5409,-0.4203,-0.3587,-0.3587,-0.2322,-0.1662,-0.1609,-0.1609,-0.1596,0.1418,0.1352,0.1255,0.0952,0.0868,0.0868,0.0868,0.0868,0.0953,0.1149,0.1177,0.1261,0.1514,0.0896,0.0644,0.1542,0.1018,0.0914,0.2036,0.2232,0.2341,0.2616,0.2794,0.2972,0.3178,0.3318,0.314,0.2568,0.1932,0.1531,0.1483,0.0855,0.0511,0.0479,0.0449,0.0224,-0.0197,-0.0672,-0.0894,-0.0894,-0.0894,-0.0894,-0.0894,-0.0894,-0.0872,-0.0825,-0.0825,-0.0975,-0.1219,-0.1223,-0.1401,-0.1696,-0.1703,-0.1706,-0.1706,-0.1706,-0.1706,-0.1796,-0.2489,-0.2714,-0.2661,-0.27,-0.2704,-0.2704,-0.2704,-0.2469,-0.2204,-0.2204,-0.1969,-0.1706,-0.1706,-0.1706,-0.1706,-0.1706,-0.1706,-0.1706,-0.1706,-0.1706,-0.1706,-0.1706,-0.1706,-0.1706,-0.1706,-0.1706,-0.1706,-0.1706,-0.1706,-0.1934,-0.2558,-0.2643,-0.3021,-0.4036,-0.4138,-0.4147,-0.4147,-0.4165,-0.3763,-0.2763,-0.2704,-0.2704,-0.2704,-0.2704,-0.2704,-0.2704,-0.2381,-0.2204,-0.2204,-0.1852,-0.1232,-0.0351,-0.0351,0.0117,0.1793,0.181,0.1795,0.1795,0.1795,0.1823,0.1936,0.1964,0.2048,0.2356,0.2412,0.2468,0.2666,0.2242,0.2101,0.2774,0.25,0.2474,0.3337,0.3533,0.3639,0.3815,0.3856,0.3839,0.3839,0.3784,0.3748,0.3748,0.3236,0.2897,0.2871,0.2413,0.2128,0.2126,0.211,0.1933,0.1595,0.1231,0.1062,0.1062,0.1098,0.1131,0.1131,0.1139,0.1177,0.1217,0.1217,0.1048,0.0764,0.0799,0.0624,0.0327,0.0359,0.036,0.033,0.021,0.015,0.012,-0.0061,-0.0121,-0.027,-0.1441,-0.1831,-0.1831,-0.1831,-0.1411,-0.0961,-0.0961,-0.0541,-0.009,-0.009,-0.009,-0.009,-0.009,-0.009,-0.009,-0.009,-0.009,-0.009,-0.009,-0.009,-0.009,-0.009,-0.009,-0.009,-0.009,-0.009,-0.009,-0.009,-0.1039,-0.2,-0.2733,-0.2838,-0.288,-0.288,-0.2928,-0.2641,-0.1891,-0.1831,-0.1831,-0.1831,-0.1831,-0.1831,-0.1831,-0.1261,-0.0961,-0.0961,-0.036,0.0269,0.0892,0.0892,0.1245,0.1787,0.1795,0.1823,0.1851,0.1851,0.1936,0.2216,0.2272,0.2356,0.2692,0.2748,0.2776,0.2807,0.3001,0.3166,0.3166,0.3473,0.3737,0.379,0.3858,0.3888,0.3901,0.3891,0.3886,0.388,0.3823,0.3787,0.3787,0.368,0.3591,0.36,0.36,0.365,0.3694,0.3644,0.3589,0.3589,0.3594,0.36,0.3628,0.3691,0.3718,0.3721,0.3776,0.3803,0.3812,0.3812,0.3637,0.3322,0.3397,0.3205,0.2905,0.2977,0.296,0.2899,0.2621,0.2467,0.2406,0.2099,0.2008,0.1605,-0.0708,-0.1478,-0.1478,-0.1478,-0.0647,0.0277,0.0277,0.1111,0.2008,0.2008,0.2008,0.2008,0.2008,0.2008,0.2008,0.2008,0.2008,0.2008,0.2008,0.2008,0.2008,0.2008,0.2008,0.2008,0.2008,0.2008,0.2008,0.2008,0.0121,-0.1272,-0.145,-0.1526,-0.1569,-0.1569,-0.168,-0.1662,-0.1478,-0.1478,-0.1478,-0.1478,-0.1478,-0.1478,-0.1478,-0.0339,0.0277,0.0277,0.142,0.1963,0.1907,0.1907,0.1925,0.1794,0.1795,0.1851,0.2076,0.2132,0.2216,0.2524,0.261,0.2692,0.297,0.3026,0.311,0.3393,0.3477,0.3502,0.3502,0.3653,0.3787,0.3798,0.3864,0.389,0.391,0.3897,0.3869,0.382,0.3759,0.3724,0.3724,0.3655,0.3636,0.3688,0.3691,0.3672,0.3633,0.3594,0.3589,0.3589,0.3666,0.3691,0.3691,0.3754,0.3781,0.3784,0.3792,0.3825,0.3875,0.3875,0.3721,0.346,0.3469,0.3288,0.2981,0.2989,0.2837,0.259,0.2529,0.2315,0.2068,0.2008,0.2008,0.1915,0.1451,0.1296,0.1296,0.1296,0.1482,0.1667,0.1667,0.1821,0.2008,0.2008,0.2008,0.2008,0.2008,0.2008,0.2008,0.2008,0.2008,0.2008,0.2008,0.2008,0.2008,0.2008,0.2008,0.2008,0.2008,0.2008,0.2008,0.2008,0.1629,0.0949,-0.0183,-0.0306,-0.0307,-0.0307,-0.0338,0.0123,0.1234,0.1296,0.1296,0.1296,0.1296,0.1296,0.1296,0.1543,0.1667,0.1667,0.1884,0.2005,0.1969,0.1969,0.1978,0.1795,0.1908,0.2048,0.216,0.2328,0.2552,0.2833,0.2917,0.3001,0.3306,0.3362,0.3418,0.3558,0.3589,0.3589,0.3589,0.3718,0.3798,0.3798,0.3845,0.3899,0.3897,0.3861,0.3817,0.3757,0.3696,0.3658,0.3658,0.3605,0.3628,0.3658,0.3658,0.3661,0.3663,0.3663,0.3677,0.371,0.374,0.3754,0.3757,0.3817,0.3847,0.3847,0.385,0.388,0.3907,0.3907,0.3832,0.3704,0.3704,0.3609,0.3455,0.3301,0.3178,0.2991,0.2621,0.2406,0.2222,0.2069,0.2008,0.2008,0.2008,0.2008,0.2008,0.2008,0.2008,0.2008,0.2008,0.2008,0.2008,0.2008,0.2008,0.2008,0.2008,0.2008,0.2008,0.2008,0.2008,0.2008,0.2008,0.2008,0.2008,0.2008,0.2008,0.2008,0.2008,0.2008,0.2008,0.2008,0.1989,0.1743,0.1111,0.1049,0.1049,0.1049,0.1049,0.13,0.1966,0.1999,0.2005,0.2053,0.2053,0.2053,0.2053,0.2053,0.2053,0.2053,0.2053,0.2053,0.2053,0.2053,0.2157,0.188,0.2104,0.2328,0.2384,0.258,0.2917,0.3474,0.3583,0.367,0.3921,0.4173,0.4285,0.4033,0.3977,0.3983,0.3999,0.3899,0.3803,0.3817,0.3853,0.3893,0.388,0.3828,0.3768,0.3694,0.3655,0.3636,0.3636,0.3647,0.365,0.3636,0.3647,0.3677,0.3726,0.3726,0.3751,0.3798,0.3812,0.3817,0.382,0.388,0.391,0.391,0.3899,0.3889,0.3889,0.3889,0.3889,0.3889,0.3889,0.3889,0.3889,0.3671,0.3548,0.3425,0.2899,0.2683,0.256,0.2315,0.2162,0.213,0.2193,0.2131,0.2008,0.2008,0.2008,0.2008,0.2008,0.2008,0.2008,0.2008,0.2008,0.2008,0.2008,0.2008,0.2008,0.2008,0.2008,0.2008,0.2008,0.2008,0.2008,0.2008,0.2008,0.2009,0.1985,0.1986,0.2019,0.2026,0.2015,0.202,0.2028,0.2027,0.2027,0.2027,0.2027,0.2037,0.2027,0.2029,0.2039,0.2095,0.2161,0.2193,0.2193,0.229,0.2322,0.2322,0.2322,0.2322,0.2322,0.2322,0.2456,0.216,0.2412,0.272,0.2942,0.3054,0.3446,0.4868,0.5174,0.5202,0.523,0.6061,0.6473,0.5425,0.5234,0.5258,0.5309,0.448,0.3817,0.3875,0.391,0.3877,0.382,0.3803,0.3754,0.3636,0.3669,0.3699,0.3699,0.3751,0.3757,0.3702,0.3751,0.3784,0.379,0.379,0.3792,0.3798,0.3856,0.3883,0.3883,0.3882,0.3912,0.3912,0.3887,0.3889,0.3889,0.3889,0.3889,0.3889,0.3889,0.3889,0.3889,0.3859,0.3704,0.3486,0.3425,0.3209,0.296,0.2931,0.2714,0.2498,0.2806,0.25,0.2008,0.2008,0.2008,0.2008,0.2008,0.2008,0.2008,0.2008,0.2008,0.2008,0.2008,0.2008,0.2008,0.2008,0.2008,0.2008,0.2008,0.2008,0.2008,0.2008,0.2008,0.1985,0.2011,0.2015,0.2024,0.2084,0.2091,0.2091,0.2088,0.2088,0.2088,0.2088,0.2088,0.2089,0.2092,0.2092,0.2093,0.2096,0.2386,0.2547,0.2547,0.2839,0.3001,0.3001,0.3001,0.3001,0.3001,0.3001,0.3055,0.3776,0.4334,0.5139,0.525,0.5389,0.5667,0.6283,0.6422,0.6422,0.6422,0.6783,0.6972,0.6505,0.6422,0.6484,0.6625,0.6301,0.6079,0.6235,0.6272,0.596,0.5042,0.4979,0.4947,0.4814,0.4872,0.4919,0.4919,0.5726,0.5848,0.502,0.4215,0.3814,0.3853,0.3853,0.3872,0.3847,0.3872,0.3916,0.3916,0.3909,0.3889,0.3889,0.3889,0.3889,0.3889,0.3889,0.3889,0.3889,0.3889,0.3889,0.3889,0.3735,0.3579,0.3486,0.3271,0.3116,0.2991,0.2991,0.2899,0.2837,0.296,0.2808,0.2592,0.2592,0.2469,0.2315,0.2315,0.216,0.2008,0.2008,0.2008,0.2008,0.2008,0.2008,0.2008,0.2008,0.2008,0.2008,0.2008,0.199,0.2001,0.2001,0.2049,0.2064,0.2075,0.2046,0.2082,0.2095,0.2113,0.2091,0.2091,0.2107,0.2096,0.2096,0.2096,0.2105,0.209,0.2287,0.2427,0.2449,0.278,0.2977,0.2977,0.3076,0.3175,0.3175,0.3175,0.3175,0.3175,0.3175,0.332,0.5361,0.5968,0.6828,0.6828,0.6972,0.7193,0.7559,0.7642,0.7642,0.7642,0.7913,0.8051,0.7697,0.7642,0.7694,0.792,0.7708,0.7586,0.7799,0.7862,0.7508,0.6459,0.6353,0.6359,0.6244,0.6289,0.6332,0.6364,0.7264,0.743,0.6473,0.5514,0.4853,0.4519,0.4488,0.4483,0.4502,0.4899,0.5083,0.5083,0.5083,0.4868,0.4502,0.4502,0.4287,0.3889,0.3889,0.3889,0.392,0.4318,0.4256,0.392,0.413,0.3979,0.3579,0.3363,0.3271,0.3271,0.3271,0.3209,0.3147,0.324,0.3147,0.3022,0.3116,0.2837,0.2498,0.2498,0.2253,0.2008,0.2008,0.2008,0.2008,0.2008,0.2008,0.2008,0.2008,0.2008,0.2008,0.2008,0.1993,0.2007,0.2007,0.2023,0.2073,0.2081,0.2082,0.2085,0.2095,0.2181,0.226,0.226,0.2345,0.2374,0.2286,0.2287,0.2329,0.2419,0.2653,0.2798,0.286,0.3196,0.3362,0.3362,0.3463,0.3533,0.3533,0.3533,0.3732,0.4132,0.4132,0.4492,0.6689,0.6883,0.7083,0.7083,0.711,0.7415,0.8616,0.8892,0.8892,0.8892,0.9836,1.0304,0.9085,0.8892,0.8959,0.9227,0.8288,0.7584,0.7853,0.7886,0.7873,0.7777,0.7766,0.7746,0.7682,0.7753,0.7815,0.7875,0.7886,0.7886,0.7886,0.7856,0.7245,0.5935,0.5874,0.5874,0.5878,0.7189,0.7856,0.7856,0.7856,0.7159,0.5878,0.5878,0.5145,0.3889,0.3889,0.3889,0.4013,0.5325,0.5083,0.4043,0.5356,0.5053,0.3889,0.3889,0.3889,0.3889,0.3889,0.3704,0.3548,0.3797,0.3486,0.3055,0.3394,0.3022,0.2498,0.2498,0.2253,0.2008,0.2008,0.2008,0.2008,0.2008,0.2008,0.2008,0.2008,0.2008,0.2008,0.2008,0.2008,0.2008,0.2008,0.2008,0.1988,0.2015,0.1987,0.203,0.2092,0.2386,0.2581,0.2581,0.2877,0.2984,0.2722,0.2692,0.2827,0.3161,0.3194,0.3194,0.3194,0.3566,0.3801,0.3801,0.4104,0.4274,0.4274,0.4274,0.501,0.6376,0.6376,0.7053,0.8416,0.8858,0.9554,0.9554,0.9554,0.9664,1.0056,1.0139,1.0139,1.0139,1.0441,1.0578,1.0194,1.0239,1.0385,1.0572,1.039,1.0303,1.0521,1.0581,1.0213,0.9212,0.9103,0.9093,0.9144,0.9984,1.0153,0.9255,1.0058,1.0179,0.9255,0.9195,0.8617,0.7312,0.7276,0.6823,0.5908,0.7215,0.7429,0.6547,0.7464,0.7673,0.7276,0.7276,0.7037,0.6639,0.6639,0.6639,0.667,0.7098,0.7006,0.667,0.7098,0.7006,0.6639,0.6639,0.6639,0.6517,0.5571,0.5049,0.4803,0.4899,0.4653,0.4527,0.5782,0.4462,0.2467,0.2222,0.2068,0.2008,0.2008,0.2008,0.2008,0.2008,0.2008,0.2008,0.2008,0.2191,0.2344,0.2344,0.252,0.2696,0.2696,0.2718,0.2742,0.2753,0.2755,0.276,0.2773,0.2872,0.2936,0.2936,0.3045,0.3071,0.2984,0.3013,0.3094,0.3194,0.3463,0.36,0.36,0.3936,0.4607,0.5573,0.5674,0.6243,0.724,0.7106,0.7201,0.7487,0.7487,0.8242,0.9781,1.0139,1.0688,1.0688,1.0688,1.0688,1.0688,1.0688,1.0688,1.0688,1.0688,1.0712,1.0813,1.0919,1.1074,1.1289,1.1427,1.1565,1.1782,1.1806,1.1457,1.0614,1.0479,1.0524,1.0559,1.1315,1.1436,1.0634,1.1345,1.1436,1.0604,1.0543,1.0179,0.9383,0.8891,0.8221,0.7368,0.8714,0.8958,0.8136,0.8958,0.911,0.8617,0.8617,0.8343,0.7886,0.7886,0.7886,0.0,0.8404,0.8343,0.7947,0.8434,0.8313,0.7886,0.7886,0.7886,0.7764,0.6945,0.6517,0.6329,0.6333,0.6119,0.6023,0.694,0.5441,0.3233,0.2406,0.2191,0.2222,0.2346,0.2745,0.3081,0.3081,0.3081,0.3081,0.3081,0.3266,0.3418,0.3418,0.402,0.4561,0.4561,0.4209,0.4123,0.4634,0.4283,0.4123,0.4666,0.4827,0.4923,0.4923,0.5042,0.5144,0.5125,0.4026,0.3408,0.3543,0.3774,0.3907,0.3907,0.4601,0.539,0.6275,0.6769,0.7454,0.8372,0.8861,0.903,0.8928,0.9473,1.0242,0.0,1.0688,1.0688,1.0688,1.0704,1.0712,1.0712,1.072,0.0,1.0729,1.0729,1.0785,1.0984,1.1025,1.1147,1.1443,1.1508,1.1581,1.1782,1.1806,1.1806,1.1806,1.1806,1.1806,1.1806,1.1806,1.1806,1.1806,1.1806,1.1806,1.1806,1.1806,1.1806,1.1806,1.0604,0.9893,0.9802,1.1126,1.1746,1.1655,1.1746,1.1156,0.993,0.993,0.9286,0.816,0.816,0.816,0.8282,0.9481,0.9275,0.8299,0.9494,0.9257,0.8219,0.8219,0.8219,0.8189,0.8097,0.8066,0.8036,0.8005,0.7877,0.7627,0.7204,0.6127,0.4742,0.324,0.2843,0.2907,0.3246,0.4198,0.5087,0.5087,0.5087,0.5087,0.5087,0.5087,0.5118,0.5118,0.6226,0.7192,0.7192,0.6267,0.5977,0.7284,0.6357,0.601,0.7316,0.7758,0.7949,0.7949,0.8285,0.8524,0.8524,0.5717,0.4104,0.4394,0.4427,0.443,0.4435,0.5623,0.6359,0.6464,0.7713,0.8349,0.8338,0.9832,1.0563,1.0557,1.1928,1.258,1.0688,0.0,1.0688,1.0688,1.0829,1.0935,0.0,1.1005,1.1066,1.1066,1.1066,1.111,1.1122,1.1281,1.1403,1.1484,1.1622,1.1758,1.1798,1.1806,1.1806,1.1806,1.1806,1.1806,1.1806,1.1806,1.1806,1.1806,1.1806,1.1806,1.1806,1.1806,1.1806,1.1806,1.1496,1.0853,0.9802,1.1126,1.1285,1.0293,1.1315,1.1625,1.1345,1.1345,1.1163,1.0883,1.0883,1.0883,1.0921,1.1325,1.131,1.1079,1.1526,1.1549,1.1259,1.1259,1.1259,1.1134,1.0085,0.9607,0.9393,0.9142,0.984,1.0531,0.9205,0.7781,0.6491,0.6118,0.6141,0.6258,0.6353,0.6575,0.6828,0.6828,0.6828,0.6828,0.6828,0.7017,0.7202,0.7202,0.7669,0.8102,0.8102,0.7875,0.7795,0.8113,0.789,0.7795,0.8113,0.8241,0.8273,0.8273,0.8517,0.8654,0.8654,0.7896,0.7464,0.7535,0.7535,0.7602,0.7679,0.7981,0.8727,0.998,1.1261,1.1843,1.1657,1.1957,1.201,1.1853,1.2202,1.2369,1.0688,1.0688,1.0712,1.0802,1.0919,1.1017,1.107,1.1159,1.1195,1.1195,1.1195,1.1219,1.133,1.1435,1.1524,1.1614,1.1741,1.1806,1.1806,1.1806,1.1806,1.1806,1.1806,1.1806,1.1806,1.1806,1.1806,1.1806,1.1806,1.1806,1.1806,1.1806,1.1806,1.1806,1.1806,1.1436,1.0725,1.1515,1.1516,1.0836,1.1633,1.202,1.202,1.202,1.202,1.202,1.202,1.202,1.2028,1.2117,1.2127,1.2135,1.2272,1.2304,1.2304,1.2304,1.2304,1.2209,1.1467,1.1119,1.096,1.0802,1.1316,1.1862,1.0992,1.0211,0.9323,0.787,0.7553,0.7662,0.7827,0.8305,0.8718,0.8718,0.8718,0.8718,0.8718,0.8872,0.8999,0.8999,0.9723,1.0319,1.0319,0.9832,0.9676,1.033,0.9961,0.9836,1.0457,1.0655,1.0696,1.0696,1.0804,1.0852,1.0852,1.0826,1.0208,0.8812,0.8734,0.8762,0.8828,0.9438,1.0456,1.1895,1.2618,1.2896,1.2807,1.2816,1.2718,1.2524,1.2629,1.2629,1.0756,1.0764,1.0797,1.096,1.1041,1.1114,1.1232,1.126,1.1276,1.1276,1.1276,1.1354,1.1508,1.1541,1.1581,1.1741,1.1766,1.1774,1.1806,1.1806,1.1806,1.1806,1.1806,1.1806,1.1806,1.1806,1.1806,1.1806,1.1806,1.1806,1.1806,1.1806,1.1806,1.1806,1.1831,1.1847,1.1847,1.1924,1.2013,1.2046,1.2231,1.2304,1.2304,1.2304,1.2304,1.2304,1.2304,1.2304,1.2312,1.2337,1.2345,1.2353,1.2377,1.2385,1.2385,1.2385,1.2385,1.2385,1.2385,1.2385,1.2385,1.2385,1.2385,1.2385,1.2385,1.2491,1.208,0.9415,0.8642,0.8706,0.9006,0.987,1.0668,1.0668,1.0668,1.0668,1.0668,1.0668,1.0668,1.0668,1.1753,1.2637,1.2637,1.176,1.1468,1.2674,1.2007,1.1801,1.2998,1.3305,1.3402,1.3402,1.3427,1.3417,1.3417,1.3467,1.2388,0.9832,0.9616,0.9604,0.9622,1.0725,1.1851,1.2969,1.2937,1.2929,1.2929,1.3076,1.3059,1.2888,1.3068,1.3059,1.0911,1.0951,1.096,1.0992,1.12,1.1427,1.1451,1.1581,1.1725,1.1725,1.1725,1.1733,1.1758,1.1766,1.1725,1.1565,1.1541,1.1598,1.1782,1.1806,1.1806,1.1806,1.1806,1.1806,1.1806,1.1806,1.1806,1.1806,1.1806,1.1806,1.1806,1.1806,1.1806,1.1806,1.1914,1.1965,1.1965,1.1989,1.2078,1.2264,1.2296,1.2304,1.2304,1.2304,1.2304,1.2304,1.2304,1.2304,1.232,1.2499,1.2556,1.2572,1.2694,1.2726,1.2726,1.2726,1.2726,1.2726,1.2726,1.2726,1.2726,1.2726,1.2726,1.2726,1.2726,1.2742,1.266,1.2194,1.2055,1.2055,1.2121,1.226,1.2423,1.2423,1.2423,1.2423,1.2423,1.2423,1.2423,1.2423,1.2611,1.2759,1.2759,1.2738,1.2817,1.3018,1.3036,1.3122,1.3327,1.3386,1.3402,1.3402,1.3506,1.3569,1.3569,1.3734,1.3613,1.3169,1.2862,1.2769,1.2882,1.3232,1.3522,1.3734,1.3561,1.3488,1.3488,1.3392,1.3353,1.3321,1.3353,1.3345,1.0943,1.1037,1.1126,1.1232,1.1378,1.1524,1.163,1.1741,1.1806,1.1806,1.1806,1.1774,1.1676,1.163,1.1598,1.1516,1.1581,1.1679,1.179,1.1806,1.1806,1.1806,1.1806,1.1806,1.1806,1.1806,1.1806,1.1806,1.1806,1.1806,1.1806,1.1806,1.1817,1.1906,1.1957,1.2086,1.2312,1.232,1.2361,1.2442,1.2548,1.2564,1.2564,1.2564,1.2564,1.2564,1.2564,1.2564,1.2564,1.2678,1.271,1.2718,1.2767,1.2807,1.2807,1.2807,1.2807,1.2807,1.2807,1.2807,1.2807,1.2807,1.2807,1.2807,1.2807,1.2807,1.2807,1.2807,1.2807,1.2807,1.2807,1.2807,1.2807,1.2807,1.2807,1.2807,1.2807,1.2807,1.2807,1.2807,1.2807,1.2831,1.2929,1.3043,1.3124,1.3264,1.3401,1.3514,1.3514,1.3595,1.366,1.366,1.3617,1.3609,1.3609,1.3628,1.3701,1.3888,1.375,1.3693,1.3747,1.3855,1.3904,1.3904,1.3823,1.3747,1.3747,1.3701,1.3612,1.3514,1.3514,1.3465,1.0988,1.1159,1.133,1.1516,1.1565,1.1606,1.1774,1.1806,1.179,1.1749,1.1741,1.1654,1.1468,1.1435,1.1459,1.1549,1.1646,1.1758,1.1798,1.1806,1.1806,1.1806,1.1806,1.1806,1.1806,1.1806,1.1806,1.1806,1.1806,1.1823,1.1863,1.1833,1.1914,1.2062,1.2134,1.2288,1.2596,1.2637,1.2661,1.2661,1.2734,1.2807,1.2807,1.2807,1.2807,1.2807,1.2807,1.2807,1.2807,1.2807,1.2807,1.2807,1.2807,1.2807,1.2807,1.2807,1.2807,1.2807,1.2807,1.2831,1.2864,1.2864,1.2896,1.2929,1.2929,1.2929,1.2929,1.2929,1.2929,1.2913,1.2823,1.2807,1.2815,1.2856,1.2864,1.288,1.2921,1.2929,1.2929,1.2929,1.2929,1.3003,1.3133,1.3197,1.3271,1.3409,1.3552,1.3666,1.3666,1.3787,1.3904,1.3904,1.3747,1.3666,1.3666,1.3579,1.3647,1.3888,1.3823,1.3774,1.3774,1.3815,1.3839,1.3839,1.388,1.3904,1.3904,1.3904,1.3831,1.3666,1.3666,1.3628,1.1171,1.1338,1.1524,1.1741,1.179,1.179,1.1806,1.1806,1.1758,1.1557,1.1516,1.1459,1.1244,1.1211,1.1354,1.1733,1.1622,1.1581,1.1782,1.1806,1.1806,1.1806,1.1806,1.1806,1.1806,1.1806,1.1806,1.1806,1.1806,1.1849,1.1973,1.1981,1.2062,1.228,1.2474,1.2572,1.2596,1.2735,1.2783,1.2783,1.2799,1.2807,1.2807,1.2807,1.2807,1.2807,1.2807,1.2807,1.2807,1.2807,1.2807,1.2807,1.2807,1.2807,1.2807,1.2807,1.2807,1.2807,1.2807,1.2904,1.3076,1.3076,1.3189,1.337,1.337,1.337,1.337,1.337,1.337,1.3254,1.2888,1.2807,1.2848,1.3035,1.3076,1.3124,1.3329,1.337,1.337,1.337,1.337,1.337,1.3386,1.349,1.3577,1.3585,1.3739,1.388,1.388,1.3896,1.3904,1.3904,1.3888,1.388,1.388,1.3872,1.3872,1.3896,1.363,1.3443,1.3443,1.3571,1.3625,1.3625,1.3787,1.3904,1.3904,1.3904,1.3896,1.388,1.388,1.3872,1.1191,1.1362,1.1541,1.1758,1.2401,1.2784,1.1988,1.2248,1.264,1.256,1.2572,1.2554,1.2561,1.1912,1.1699,1.2631,1.2167,1.1695,1.1798,1.1806,1.1806,1.1806,1.1806,1.1806,1.1806,1.1806,1.1806,1.1806,1.1874,1.1963,1.1997,1.2111,1.228,1.249,1.2564,1.2653,1.2735,1.2767,1.2856,1.2994,1.2856,1.2807,1.2807,1.2807,1.2807,1.2807,1.2807,1.2864,1.2994,1.2994,1.3068,1.3165,1.3165,1.3165,1.3165,1.3165,1.3165,1.3165,1.3165,1.3214,1.3305,1.3305,1.3345,1.3402,1.3402,1.3402,1.3402,1.3402,1.3402,1.337,1.3206,1.3165,1.3181,1.3288,1.3305,1.3321,1.3394,1.3402,1.3402,1.3402,1.3402,1.3443,1.3522,1.3561,1.3642,1.3755,1.3863,1.3904,1.3904,1.3904,1.3904,1.3904,1.3807,1.3693,1.3614,1.3606,1.3606,1.3606,1.3652,1.3701,1.3701,1.3625,1.3609,1.3609,1.3595,1.3606,1.3606,1.3606,1.3606,1.3606,1.3606,1.3606,1.1281,1.1728,1.2141,1.1864,1.2701,1.3292,1.2092,1.2618,1.3232,1.2757,1.2973,1.3294,1.3392,1.2698,1.2422,1.335,1.2546,1.1927,1.2341,1.204,1.1806,1.1806,1.1806,1.1806,1.1806,1.1806,1.1831,1.1849,1.1963,1.2046,1.219,1.232,1.2467,1.2678,1.2653,1.271,1.2799,1.2807,1.2864,1.3011,1.2856,1.2831,1.288,1.2831,1.2807,1.2807,1.2864,1.2986,1.31,1.3157,1.3288,1.3402,1.3402,1.3402,1.3402,1.3402,1.3402,1.3402,1.3402,1.3443,1.3457,1.3457,1.349,1.3573,1.3573,1.3573,1.3573,1.3573,1.3573,1.3573,1.3573,1.3492,1.3419,1.3441,1.3457,1.3474,1.3522,1.3573,1.3573,1.3573,1.3573,1.3579,1.3666,1.369,1.3731,1.3888,1.3904,1.3904,1.3904,1.3904,1.3904,1.3904,1.3798,1.3677,1.3581,1.3573,1.3573,1.3573,1.3766,1.3847,1.3742,1.3642,1.3609,1.3609,1.3571,1.3573,1.3573,1.3482,1.3457,1.3457,1.3435,1.3402,1.153,1.2595,1.3396,1.213,1.2634,1.3145,1.2058,1.2805,1.331,1.1858,1.2572,1.3441,1.345,1.343,1.3497,1.3696,1.2664,1.2281,1.3545,1.2634,1.1837,1.1837,1.1837,1.1837,1.1837,1.1837,1.191,1.202,1.2036,1.2222,1.2612,1.2628,1.2718,1.2832,1.2832,1.2807,1.2807,1.2807,1.2807,1.2807,1.2807,1.2896,1.3084,1.288,1.2807,1.2815,1.3019,1.3092,1.3116,1.3329,1.341,1.341,1.341,1.341,1.341,1.341,1.341,1.341,1.341,1.3498,1.3609,1.3609,1.3731,1.3904,1.3904,1.3904,1.3904,1.3904,1.3904,1.3904,1.3904,1.3644,1.3459,1.3569,1.3609,1.3658,1.3863,1.3904,1.3904,1.3904,1.3904,1.3904,1.3904,1.3904,1.3904,1.3904,1.3904,1.3904,1.3904,1.3904,1.3904,1.3904,1.3904,1.3904,1.3904,1.3904,1.3904,1.3904,1.3904,1.3742,1.3427,1.3512,1.3609,1.3609,1.3771,1.3896,1.3896,1.369,1.3609,1.3601,1.3492,1.3402,1.2836,1.3247,1.3567,1.3072,1.3947,1.4616,1.3358,1.3976,1.4993,1.5616,1.6008,1.6272,1.6283,1.555,1.5258,1.6227,1.5302,1.4589,1.4976,1.4708,1.448,1.448,1.448,1.454,1.4751,1.4761,1.4851,1.5073,1.5223,1.5364,1.5463,1.5623,1.5268,1.4324,1.4292,1.3809,1.2807,1.2807,1.2864,1.3019,1.2864,1.2831,1.288,1.2823,1.2872,1.3019,1.3076,1.3238,1.3463,1.3669,1.3742,1.3742,1.3742,1.3742,1.3742,1.3742,1.3742,1.3742,1.3742,1.3782,1.3823,1.3823,1.3863,1.3904,1.3904,1.3904,1.3904,1.3904,1.3904,1.3904,1.3904,1.3823,1.3758,1.3815,1.3823,1.3839,1.3888,1.3904,1.3904,1.3904,1.3904,1.3904,1.3904,1.3904,1.3904,1.3904,1.3904,1.3904,1.3904,1.3904,1.3904,1.3904,1.3904,1.3904,1.3904,1.3904,1.3904,1.3904,1.3904,1.3855,1.375,1.3642,1.3609,1.3609,1.3571,1.3565,1.3565,1.3474,1.3449,1.3484,1.4481,1.4967,1.2876,1.358,1.4292,1.3681,1.4961,1.6208,1.5534,1.5494,1.5969,1.7369,1.7612,1.7546,1.7496,1.6868,1.6603,1.7367,1.6426,1.5776,1.6279,1.6001,1.5801,1.5899,1.5909,1.6037,1.6337,1.6241,1.6243,1.6512,1.6633,1.672,1.6817,1.6926,1.6624,1.5749,1.5716,1.5326,1.4488,1.4455,1.4256,1.381,1.3697,1.3358,1.2807,1.2872,1.2994,1.31,1.3246,1.3439,1.3714,1.3855,1.3904,1.3904,1.3904,1.3904,1.3904,1.3904,1.3904,1.3904,1.3904,1.3904,1.3904,1.3904,1.3904,1.3904,1.3904,1.3904,1.3904,1.3904,1.3953,1.401,1.401,1.4058,1.4075,1.3937,1.3904,1.3904,1.3904,1.3904,1.3904,1.3904,1.3904,1.3904,1.3904,1.3904,1.3904,1.3904,1.3904,1.3904,1.3904,1.3904,1.3904,1.3904,1.3904,1.3904,1.3904,1.3904,1.3904,1.3904,1.3904,1.3904,1.3904,1.3763,1.3714,1.3714,1.3636,1.3893,1.4475,1.4432,1.4707,1.5282,1.6108,1.6509,1.259,1.4003,1.551,1.4351,1.5846,1.774,1.82,1.7264,1.668,1.7811,1.7973,1.787,1.7708,1.766,1.7672,1.7726,1.6726,1.6412,1.7586,1.698,1.6522,1.6775,1.6797,1.6928,1.7235,1.6972,1.6897,1.7098,1.7089,1.7188,1.7356,1.7367,1.7302,1.7206,1.7173,1.7077,1.6818,1.6818,1.6106,1.4716,1.4716,1.4048,1.2831,1.3027,1.3116,1.3165,1.348,1.3723,1.3904,1.3904,1.3904,1.3904,1.3904,1.3904,1.3904,1.392,1.3928,1.3928,1.3945,1.3953,1.3953,1.3953,1.3953,1.3953,1.3953,1.3953,1.3953,1.3953,1.4075,1.4241,1.4241,1.4318,1.4314,1.4026,1.3953,1.3953,1.3953,1.3953,1.3953,1.3953,1.3953,1.3953,1.3953,1.3953,1.3953,1.3953,1.3953,1.3953,1.3953,1.3953,1.3953,1.3953,1.3953,1.3953,1.3953,1.3953,1.3945,1.3928,1.3928,1.392,1.3904,1.3904,1.3904,1.3904,1.4039,1.475,1.6079,1.6136,1.6827,1.8136,1.8157,1.8149,1.6344,1.6662,1.7044,1.6809,1.7375,1.8302,1.9495,1.9348,1.9073,1.9341,1.9371,1.9292,1.9034,1.8981,1.9047,1.9269,1.9072,1.906,1.955,1.9641,1.9725,1.9789,1.9789,1.9905,2.0188,1.9925,1.9874,2.0124,2.0137,2.0163,2.0227,2.0208,1.9718,1.8588,1.8556,1.7517,1.5359,1.5359,1.4651,1.326,1.326,1.317,1.3043,1.3076,1.3254,1.3504,1.375,1.3863,1.3904,1.3904,1.3904,1.3904,1.3904,1.3904,1.392,1.4066,1.4151,1.414,1.427,1.4282,1.4282,1.4282,1.4282,1.4282,1.4282,1.4282,1.4282,1.4282,1.4306,1.4375,1.4375,1.4371,1.4379,1.4298,1.4282,1.4282,1.4282,1.4282,1.4282,1.4282,1.4282,1.4282,1.4282,1.4282,1.4282,1.4282,1.4282,1.4282,1.4282,1.4282,1.4282,1.4282,1.4282,1.4282,1.4282,1.4282,1.4261,1.4123,1.4151,1.405,1.3904,1.3904,1.3904,1.3904,1.5026,1.577,1.6079,1.7288,1.8025,1.8374,1.9473,2.0001,1.675,1.7044,1.7721,1.8614,1.8984,1.9344,2.0252,2.0214,1.997,1.997,1.9893,1.976,1.9629,1.9693,1.9826,1.9987,2.0134,2.0267,2.0428,2.0846,2.1127,2.1127,2.1127,2.1181,2.1341,2.1056,2.0949,2.1096,2.1109,2.1109,2.1109,2.1109,2.0748,2.0036,2.0005,1.9323,1.7882,1.7882,1.7162,1.5781,1.5914,1.5895,1.5693,1.407,1.3506,1.3739,1.3863,1.3953,1.4034,1.4034,1.4083,1.4156,1.4156,1.4156,1.4164,1.4261,1.4302,1.431,1.4363,1.4395,1.4395,1.4395,1.4395,1.4395,1.4395,1.4395,1.4395,1.4395,1.446,1.4525,1.4525,1.4627,1.4684,1.4684,1.4554,1.4395,1.4395,1.4395,1.4395,1.4395,1.4395,1.4395,1.4395,1.4395,1.4395,1.4395,1.4395,1.4395,1.4395,1.4395,1.4395,1.4395,1.4395,1.4395,1.4395,1.4395,1.4724,1.5465,1.5493,1.5804,1.6443,1.6479,1.5991,1.4964,1.6433,1.7549,1.825,1.9054,1.982,2.0583,2.1355,2.1712,1.6544,1.705,1.8269,1.9822,2.017,2.0241,2.0535,2.0374,2.013,2.013,1.997,1.988,1.988,2.0037,2.0237,2.0344,2.0588,2.082,2.0913,2.1395,2.1716,2.1662,2.1662,2.1636,2.1582,2.1315,2.1109,2.1109,2.1109,2.1109,2.1109,2.1109,2.1109,2.1109,2.1109,2.0982,2.0748,2.08,2.0138,1.8814,1.9203,1.9139,1.8595,1.5819,1.4663,1.4801,1.4523,1.4508,1.465,1.4367,1.4302,1.4395,1.4395,1.4395,1.4395,1.4427,1.4444,1.4444,1.4476,1.4484,1.4484,1.4484,1.4484,1.4484,1.4484,1.4484,1.4484,1.4484,1.4635,1.4757,1.4757,1.4901,1.5006,1.5006,1.4741,1.4484,1.4484,1.4484,1.4484,1.4484,1.4484,1.4484,1.4484,1.4484,1.4484,1.4484,1.4484,1.4484,1.4484,1.4484,1.4484,1.4484,1.4484,1.4484,1.4484,1.4745,1.55,1.6858,1.7179,1.7929,1.9235,1.9562,1.8835,1.7081,1.8297,1.9504,2.0702,2.0945,2.1694,2.2893,2.2893,2.2893,1.8952,1.9194,1.9605,2.0087,2.001,1.9933,2.0197,2.0037,1.9853,1.9853,1.9997,2.0144,2.0144,2.0184,2.037,2.0877,2.1029,2.1229,2.1737,2.2098,2.2205,2.1951,2.1957,2.1863,2.1609,2.1315,2.1109,2.1109,2.1109,2.1109,2.1109,2.1109,2.1109,2.1109,2.1109,2.0526,1.9291,1.9556,1.9134,1.8061,1.8736,1.903,1.8951,1.8659,1.8564,1.8487,1.7117,1.6516,1.6434,1.4982,1.4371,1.4395,1.4395,1.4395,1.4411,1.4611,1.4676,1.4692,1.4838,1.4933,1.4933,1.4933,1.4933,1.4933,1.4933,1.4933,1.4933,1.4933,1.4949,1.4966,1.4966,1.499,1.5006,1.5006,1.4966,1.4933,1.4933,1.4933,1.4933,1.4933,1.4933,1.4933,1.4933,1.4933,1.4933,1.4933,1.4933,1.4933,1.4933,1.4933,1.4933,1.4933,1.4933,1.4933,1.4933,1.6183,1.7011,1.7085,1.8367,1.9195,1.9308,2.0549,2.1054,2.078,2.0983,2.1054,2.105,2.2339,2.2918,2.2893,2.2893,2.2893,1.9401,1.9615,1.9867,2.013,2.0104,2.009,2.0414,2.0388,2.0294,2.0294,2.0521,2.0681,2.0508,2.0748,2.1056,2.1355,2.163,2.1937,2.2191,2.2485,2.2498,2.2044,2.1991,2.1804,2.1349,2.1189,2.1109,2.1109,2.1109,2.1109,2.1109,2.1109,2.1189,2.1381,2.1395,2.1173,2.0701,2.0829,2.0846,2.07,2.1365,2.1771,2.1919,2.2153,2.1181,1.9199,1.7597,1.6941,1.6907,1.5251,1.4643,1.4732,1.4732,1.4732,1.4741,1.4822,1.4854,1.4862,1.4982,1.5006,1.5006,1.5006,1.5006,1.5006,1.5006,1.5006,1.5006,1.5006,1.5006,1.5006,1.5006,1.5006,1.5006,1.5006,1.5006,1.5006,1.5006,1.5006,1.5006,1.5006,1.5006,1.5006,1.5006,1.5006,1.5006,1.5006,1.5006,1.5006,1.5006,1.5006,1.5006,1.5006,1.5006,1.5006,1.5006,1.565,1.679,1.8499,1.9276,2.0463,2.2203,2.2911,2.3239,2.3239,2.2932,2.2714,2.2598,2.3249,2.35,2.3402,2.3402,2.3402,1.9401,1.9562,1.976,2.0024,2.009,2.017,2.0494,2.0561,2.0619,2.0686,2.0855,2.0975,2.094,2.1288,2.1636,2.1783,2.2138,2.2445,2.2525,2.276,2.2679,2.2058,2.1991,2.175,2.1162,2.1109,2.1109,2.1109,2.1109,2.1149,2.1216,2.1216,2.1349,2.1689,2.1689,2.1796,2.201,2.2218,2.2619,2.3241,2.3777,2.4102,2.4329,2.4506,2.316,2.0553,1.8943,1.8309,1.8275,1.6644,1.5826,1.565,1.6071,1.5727,1.5045,1.5459,1.5344,1.5006,1.5006,1.5006,1.5006,1.5006,1.5006,1.5006,1.5006,1.5006,1.5006,1.5006,1.5006,1.5006,1.5006,1.5006,1.5006,1.5006,1.5006,1.5006,1.5006,1.5006,1.5006,1.5006,1.5006,1.5006,1.5006,1.5006,1.5006,1.5006,1.5006,1.5006,1.5006,1.5006,1.516,1.5573,1.5612,1.5765,1.6177,1.6597,1.7844,2.0263,2.0789,2.2111,2.4488,2.4599,2.4599,2.4599,2.4209,2.3955,2.391,2.391,2.3884,2.3803,2.3803,2.3803,1.9401,1.9401,1.9495,1.9746,1.9826,1.9893,2.0157,2.0224,2.0304,2.0615,2.0712,2.09,2.1435,2.1569,2.177,2.2285,2.2371,2.2512,2.284,2.288,2.2679,2.2058,2.1991,2.175,2.1162,2.1109,2.1109,2.1109,2.1109,2.1229,2.1542,2.1569,2.1703,2.1984,2.1964,2.201,2.1991,2.2832,2.3554,2.4142,2.4412,2.4559,2.4572,2.4586,2.4512,2.4251,2.2633,2.1926,2.1826,2.0204,1.863,1.7445,1.8943,1.7692,1.519,1.6721,1.6301,1.5006,1.5006,1.5006,1.5006,1.5006,1.5006,1.5006,1.5006,1.5006,1.5006,1.5006,1.5006,1.5006,1.5006,1.5006,1.5006,1.5006,1.5006,1.5006,1.5006,1.5006,1.5006,1.5006,1.5006,1.5006,1.5006,1.5006,1.5006,1.5006,1.5006,1.5006,1.5006,1.5006,1.5573,1.7102,1.7293,1.7892,1.9434,2.0939,2.1887,2.2073,2.35,2.4451,2.4599,2.4599,2.4599,2.4599,2.4572,2.4412,2.4182,2.4182,2.4035,2.3803,2.3803,2.3803,1.9348,1.9401,1.9468,1.9733,1.98,1.988,2.0144,2.0374,2.0548,2.0686,2.0828,2.1136,2.1756,2.1863,2.1997,2.2352,2.2579,2.2773,2.288,2.2893,2.2679,2.2058,2.1991,2.175,2.1162,2.1109,2.1189,2.1408,2.1422,2.1555,2.185,2.1863,2.1964,2.2258,2.2258,2.2458,2.2846,2.3541,2.3995,2.4209,2.4466,2.4599,2.4599,2.4599,2.4599,2.4562,2.3994,2.3166,2.2073,2.0451,1.9472,1.8981,1.9585,1.9094,1.8148,1.8716,1.8694,1.8355,1.8355,1.8482,1.8678,1.8678,1.8678,1.8446,1.7318,1.6976,1.6742,1.5623,1.5317,1.5317,1.5317,1.5317,1.5584,1.6702,1.6124,1.5937,1.8174,1.6799,1.5449,1.6602,1.6886,1.7318,1.8484,1.8482,1.8355,1.8355,1.8198,1.8072,1.8072,1.8072,1.8299,1.8868,1.8943,1.917,1.9736,2.0338,2.1089,2.2148,2.2744,2.35,2.4562,2.4599,2.4599,2.4599,2.4599,2.4546,2.4439,2.4439,2.4422,2.4329,2.4329,2.4329,1.9348,1.9401,1.9441,1.9599,1.9733,1.9853,2.001,2.0321,2.0548,2.0686,2.0828,2.1149,2.177,2.1877,2.2037,2.2485,2.276,2.2867,2.276,2.2712,2.2532,2.1943,2.1877,2.1716,2.1296,2.1256,2.1408,2.1703,2.1729,2.185,2.2111,2.2124,2.2271,2.2565,2.2672,2.2966,2.3474,2.3955,2.4249,2.4356,2.4506,2.4546,2.4452,2.4452,2.4436,2.4356,2.4412,2.3903,2.2943,2.1849,2.1146,2.0838,2.1366,2.097,2.0163,2.0696,2.0681,2.0362,2.0362,2.0498,2.0717,2.0717,2.0717,2.0472,1.9299,1.8985,1.872,1.7587,1.7241,1.7241,1.7241,1.7241,1.7548,1.872,1.8091,1.7864,2.0199,1.8329,1.6681,1.8426,1.8895,1.9338,2.0511,2.0498,2.0362,2.0362,2.0222,2.0086,2.0086,2.0086,2.0315,2.0848,2.0924,2.108,2.1528,2.1604,2.1982,2.2943,2.3017,2.35,2.4562,2.4599,2.4599,2.4599,2.4599,2.4599,2.4599,2.4599,2.4599,2.4599,2.4599,2.4599,0.0,0.0,0.0,1.9401,1.9615,1.9786,1.98,1.9983,2.0277,2.0632,2.0699,2.0886,2.1462,2.1582,2.1863,2.2733,2.288,2.2786,2.2472,2.2418,2.2205,2.1676,2.1609,2.1596,2.1596,2.1596,2.1716,2.1977,2.2004,2.2124,2.2418,2.2398,2.2565,2.2893,2.318,2.3474,2.3803,2.4062,2.4342,2.4572,2.4572,2.4426,2.4209,2.4209,2.4062,2.3843,2.4102,2.4382,2.4613,2.4613,2.3878,2.2937,2.4512,2.3363,2.1018,2.2582,2.2195,2.0873,2.0873,2.0845,2.0856,2.0856,2.0856,2.0856,2.0728,2.0689,2.0689,2.0572,2.0583,2.0583,2.0583,2.0583,2.0572,2.0689,2.0689,2.0689,2.0806,1.9515,1.8769,2.0455,2.0806,2.0817,2.0845,2.0845,2.0873,2.0873,2.0834,2.0834,2.0834,2.0834,2.1457,2.3007,2.3174,2.3691,2.5004,2.509,2.497,2.4639,2.4626,2.4626,2.4626,2.4613,2.4613,2.4613,2.4599,2.4599,2.4599,2.4599,2.4599,2.4599,2.4599,2.4599,1.9334,0.0,0.0,0.0,0.0,0.0,1.976,1.9867,2.0,2.0264,2.0521,2.082,2.1162,2.1435,2.1729,2.2184,2.2405,2.2592,2.276,2.2552,2.2352,2.2205,2.2024,2.1903,2.1903,2.1903,2.1991,2.2271,2.2298,2.2432,2.2726,2.2773,2.2886,2.3193,2.3487,2.3723,2.3803,2.4062,2.4142,2.4008,2.4008,2.4075,2.4209,2.4209,2.4275,2.4409,2.4716,2.4877,2.4957,2.4957,2.4867,2.4775,2.5232,2.489,2.4227,2.4649,2.4701,2.4531,2.4531,2.4658,2.4823,2.4823,2.4823,2.4338,2.1827,2.1068,2.0548,1.8021,1.7301,1.7301,1.7301,1.7301,1.7949,2.0467,2.0096,2.0217,2.4022,2.3468,2.2338,2.2666,2.2863,2.3349,2.4626,2.4658,2.4531,2.4531,2.4315,2.4188,2.4188,2.4188,2.4342,2.4777,2.4841,2.4968,2.536,2.5398,2.5358,2.5277,2.5239,2.5239,2.5239,2.5064,2.4957,2.4957,2.4706,2.4599,2.4599,2.4599,2.4599,2.4599,2.4599,2.4599,1.9348,1.9401,1.9401,1.9401,0.0,0.0,1.9615,1.972,1.984,1.9983,2.0281,2.0548,2.0708,2.0989,2.1315,2.1577,2.1871,2.2164,2.2492,2.2352,2.2231,2.2231,2.201,2.193,2.2151,2.2058,2.2151,2.2565,2.2605,2.2686,2.288,2.2893,2.2974,2.3126,2.3434,2.3581,2.3581,2.3875,2.3995,2.3991,2.3991,2.4035,2.4209,2.4209,2.4302,2.4439,2.477,2.5037,2.5277,2.5436,2.5583,2.5692,2.5692,2.5772,2.5879,2.5879,2.5985,2.6172,2.6172,2.6292,2.6386,2.6386,2.6386,2.603,2.4004,2.3352,2.2952,2.0899,2.0332,2.0332,2.0332,2.0332,2.0858,2.2871,2.2579,2.2699,2.574,2.5581,2.4855,2.4718,2.4779,2.5224,2.6228,2.6292,2.6172,2.6172,2.5985,2.5879,2.5879,2.5879,2.5879,2.5879,2.5879,2.5825,2.5705,2.5692,2.5651,2.5518,2.5518,2.5518,2.5518,2.5344,2.5264,2.5264,2.509,2.4959,2.4959,2.4719,2.4599,2.4599,2.4599,2.4599,1.9401,1.9401,1.9401,1.9401,1.9401,0.0,1.9401,1.9559,1.976,1.976,1.9987,2.0157,2.0157,2.0428,2.0708,2.0975,2.1288,2.1609,2.1937,2.1951,2.1997,2.2031,2.181,2.1863,2.2418,2.2231,2.2331,2.2853,2.2893,2.2893,2.2893,2.2893,2.2907,2.2947,2.318,2.3292,2.3292,2.3621,2.3888,2.4102,2.4142,2.4168,2.4209,2.4209,2.4235,2.4315,2.4572,2.5013,2.5585,2.5917,2.6038,2.6038,2.6038,2.6198,2.6386,2.6386,2.6386,2.6386,2.6386,2.6386,2.6386,2.6386,2.6386,2.6347,2.6188,2.6109,2.607,2.5858,2.5819,2.5819,2.5819,2.5819,2.5858,2.607,2.6109,2.6149,2.6347,2.6386,2.6386,2.6386,2.6386,2.6386,2.6386,2.6386,2.6386,2.6386,2.6386,2.6386,2.6386,2.6386,2.6386,2.6386,2.6386,2.6279,2.6065,2.6038,2.5931,2.5625,2.5611,2.5611,2.5611,2.5585,2.5558,2.5558,2.5531,2.5518,2.5518,2.4919,2.4653,2.4653,2.4613,2.4599,1.9401,1.9401,1.9401,0.0,0.0,0.0,1.9401,1.9441,1.9481,1.9481,1.9679,1.988,1.988,2.012,2.0304,2.0357,2.0655,2.1141,2.1871,2.181,2.1836,2.2271,2.2084,2.2171,2.276,2.276,2.2773,2.2893,2.2893,2.2893,2.2893,2.2893,2.3014,2.3233,2.3265,2.3292,2.3292,2.3621,2.3674,2.3465,2.3741,2.3981,2.4209,2.4209,2.4462,2.493,2.5211,2.5545,2.5931,2.6225,2.6306,2.6306,2.6306,2.6333,2.6386,2.6386,2.6386,2.6386,2.6386,2.6386,2.6386,2.6386,2.6386,2.6149,2.4734,2.4295,2.4016,2.2591,2.2229,2.2229,2.2229,2.2229,2.255,2.3976,2.4295,2.4706,2.6109,2.6386,2.6386,2.6386,2.6386,2.6386,2.6386,2.6386,2.6386,2.6386,2.6386,2.6386,2.6386,2.6386,2.6386,2.6386,2.6386,2.6373,2.6306,2.6306,2.6279,2.6226,2.6213,2.6213,2.6213,2.6038,2.5904,2.5904,2.5638,2.5518,2.5518,2.5157,2.4997,2.4983,2.4743,2.4599,0.0,0.0,0.0,1.9401,0.0,0.0,0.0,1.9401,1.9401,1.9401,1.9508,1.9615,1.9615,1.9826,1.9983,1.9983,2.0267,2.0601,2.1056,2.1395,2.1743,2.2151,2.1951,2.2037,2.2592,2.2546,2.2586,2.288,2.2893,2.2893,2.2893,2.2893,2.2974,2.3086,2.3247,2.3292,2.3292,2.3621,2.3768,2.3768,2.3915,2.4142,2.4422,2.4569,2.4877,2.5317,2.5611,2.5944,2.6225,2.6333,2.6386,2.6386,2.6386,2.6386,2.6386,2.6386,2.6386,2.6386,2.6386,2.6386,2.6386,2.6386,2.6386,2.6228,2.5343,2.5104,2.4893,2.4044,2.3804,2.3804,2.3804,2.3804,2.4004,2.4893,2.5104,2.5343,2.6228,2.6386,2.6386,2.6386,2.6386,2.6386,2.6386,2.6386,2.6386,2.6386,2.6386,2.6386,2.6386,2.6386,2.6386,2.6386,2.6386,2.6386,2.6386,2.6386,2.6386,2.6386,2.6386,2.6386,2.6386,2.6292,2.6212,2.6212,2.6026,2.5945,2.5945,2.5703,2.5476,2.5291,2.5144,2.5039,0.0,0.0,0.0,0.0,0.0,1.9401,0.0,0.0,0.0,1.9401,1.9401,1.9401,1.9401,1.9589,1.9693,1.9639,1.992,2.0104,2.0037,2.0775,2.1462,2.1777,2.1689,2.1796,2.2285,2.2178,2.2318,2.2853,2.2893,2.2893,2.2893,2.2893,2.292,2.2987,2.3193,2.3319,2.3407,2.3701,2.3968,2.4209,2.4262,2.4372,2.4613,2.4943,2.5237,2.5531,2.5864,2.6158,2.6386,2.6386,2.6386,2.6386,2.6386,2.6386,2.6386,2.6386,2.6386,2.6386,2.6386,2.6386,2.6386,2.6386,2.6386,2.6386,2.6386,2.6386,2.6386,2.6386,2.6386,2.6386,2.6386,2.6386,2.6386,2.6386,2.6386,2.6386,2.6386,2.6386,2.6386,2.6386,2.6386,2.6386,2.6386,2.6386,2.6386,2.6386,2.6386,2.6386,2.6386,2.6386,2.6386,2.6386,2.6386,2.6386,2.6386,2.6386,2.6386,2.6386,2.6386,2.6386,2.6386,2.6386,2.6386,2.6386,2.6386,2.6386,2.6386,2.6198,2.5931,2.5598,2.5545,2.5518,0.0,0.0,0.0,0.0,1.9401,0.0,0.0,0.0,1.9401,1.9401,0.0,1.9401,1.9401,0.0,0.0,1.9036,1.9492,1.976,1.9535,2.0,2.0557,2.1149,2.1448,2.1716,2.2004,2.2231,2.2512,2.2867,2.2893,2.2893,2.2893,2.2893,2.3027,2.326,2.3278,2.3447,2.375,2.4008,2.4168,2.4209,2.4426,2.4572,2.4613,2.4943,2.5237,2.5531,2.5864,2.6158,2.6386,2.6386,2.6386,2.6386,2.6386,2.6386,2.6386,2.6386,2.6386,2.6386,2.6386,2.6386,2.6386,2.6386,2.6386,2.6386,2.6386,2.6386,2.6386,2.6386,2.6386,2.6386,2.6386,2.6386,2.6386,2.6386,2.6386,2.6386,2.6386,2.6386,2.6386,2.6386,2.6386,2.6386,2.6386,2.6386,2.6386,2.6386,2.6386,2.6386,2.6386,2.6386,2.6386,2.6386,2.6386,2.6386,2.6386,2.6386,2.6386,2.6386,2.6386,2.6386,2.6386,2.6386,2.6386,2.6386,2.6386,2.6386,2.6386,2.636,2.6225,2.5944,2.5638,2.5518,0.0,0.0,0.0,0.0,0.0,0.0,1.9401,0.0,1.9401,0.0,0.0,0.0,0.0,0.0,0.0,0.0,1.9386,0.0,0.0,0.0,2.0201,2.0788,2.0993,2.1261,2.1716,2.2151,2.2472,2.2592,2.28,2.2893,2.2893,2.3033,2.3193,2.3292,2.3625,2.3888,2.4022,2.4302,2.4412,2.4412,2.4546,2.4693,2.4903,2.5197,2.5491,2.5824,2.6079,2.6319,2.6386,2.6386,2.6386,2.6386,2.6386,2.6386,2.6386,2.6386,2.6386,2.6386,2.6386,2.6386,2.6386,2.6386,2.6386,2.6386,2.6386,2.6386,2.6386,2.6386,2.6386,2.6386,2.6386,2.6386,2.6386,2.6386,2.6386,2.6386,2.6386,2.6386,2.6386,2.6386,2.6386,2.6386,2.6386,2.6386,2.6386,2.6386,2.6386,2.6386,2.6386,2.6386,2.6386,2.6386,2.6386,2.6386,2.6386,2.6386,2.6386,2.6386,2.6386,2.6386,2.6386,2.6386,2.6386,2.6386,2.6386,2.6386,2.6386,2.6386,2.6333,2.6238,2.6079,2.6026,1.9522,0.0,0.0,0.0,0.0,0.0,0.0,0.0,0.0,0.0,0.0,0.0,0.0,0.0,0.0,0.0,0.0,1.9361,0.0,1.9492,0.0,0.0,0.0,0.0,0.0,2.1964,2.2338,2.2371,2.2699,2.2893,2.2893,2.3153,2.3332,2.3447,2.3941,2.4249,2.4329,2.4492,2.4599,2.4599,2.4599,2.4796,2.5128,2.5384,2.5678,2.6011,2.6266,2.6386,2.6386,2.6386,2.6386,2.6386,2.6386,2.6386,2.6386,2.6386,2.6386,2.6386,2.6386,2.6386,2.6386,2.6386,2.6386,2.6386,2.6386,2.6386,2.6386,2.6386,2.6386,2.6386,2.6386,2.6386,2.6386,2.6386,2.6386,2.6386,2.6386,2.6386,2.6386,2.6386,2.6386,2.6386,2.6386,2.6386,2.6386,2.6386,2.6386,2.6386,2.6386,2.6386,2.6386,2.6386,2.6386,2.6386,2.6386,2.6386,2.6386,2.6386,2.6386,2.6386,2.6386,2.6386,2.6386,2.6386,2.6386,2.6386,2.6386,2.6386,2.6386,2.6386,2.6386,2.6386,1.9786,1.9615,1.9401,1.9401,1.9401,1.9401,0.0,0.0,1.9401,0.0,0.0,0.0,0.0,0.0,0.0,0.0,0.0,0.0,0.0,0.0,0.0,0.0,0.0,0.0,0.0,2.1657,2.2111,0.0,2.2699,2.2893,2.2893,2.3153,2.346,2.379,2.4048,2.4342,2.4586,2.4599,2.4599,2.4599,2.4599,2.4796,2.5128,2.5384,2.5678,2.6011,2.6266,2.6386,2.6386,2.6386,2.6386,2.6386,2.6386,2.6386,2.6386,2.6386,2.6386,2.6386,2.6386,2.6386,2.6386,2.6386,2.6386,2.6386,2.6386,2.6386,2.6386,2.6386,2.6386,2.6386,2.6386,2.6386,2.6386,2.6386,2.6386,2.6386,2.6386,2.6386,2.6386,2.6386,2.6386,2.6386,2.6386,2.6386,2.6386,2.6386,2.6386,2.6386,2.6386,2.6386,2.6386,2.6386,2.6386,2.6386,2.6386,2.6386,2.6386,2.6386,2.6386,2.6386,2.6386,2.6386,2.6386,2.6386,2.6386,2.6386,2.6386,2.6386,2.6386,2.6386,2.6386,2.6386,2.005,1.988,1.9653,1.9653,1.9535,1.9401,1.9401,0.0,0.0,0.0,0.0,0.0,0.0,0.0,0.0,0.0,0.0,0.0,0.0,0.0,0.0,0.0,0.0,0.0,0.0,0.0,0.0,0.0,2.2405,0.0,2.288,2.334,2.3661,2.3803,2.4235,2.4492,2.4599,2.4599,2.4599,2.4599,2.4836,2.509,2.5371,2.5678,2.5998,2.6292,2.6346,2.6386,2.6386,2.6386,2.6386,2.6386,2.6386,2.6386,2.6386,2.6386,2.6386,2.6386,2.6386,2.6386,2.6386,2.6386,2.6386,2.6386,2.6386,2.6386,2.6386,2.6386,2.6386,2.6386,2.6386,2.6386,2.6386,2.6386,2.6386,2.6386,2.6386,2.6386,2.6386,2.6386,2.6386,2.6386,2.6386,2.6386,2.6386,2.6386,2.6386,2.6386,2.6386,2.6386,2.6386,2.6386,2.6386,2.6386,2.6386,2.6386,2.6386,2.6386,2.6386,2.6386,2.6386,2.6386,2.6386,2.6386,2.6386,2.6293,2.6145,2.6145,2.5999,2.5812,2.5812,2.6012,2.0388,2.0144,1.996,1.996,1.9813,1.9679,1.9679,1.9629,1.9548,0.0,0.0,0.0,0.0,0.0,0.0,0.0,0.0,0.0,0.0,0.0,0.0,0.0,0.0,0.0,0.0,0.0,0.0,0.0,0.0,0.0,0.0,2.3375,2.3696,2.3803,2.4235,2.4492,2.4599,2.4599,2.4599,2.4599,2.4943,2.5237,2.5518,2.5864,2.6158,2.6386,2.6386,2.6386,2.6386,2.6319,2.6279,2.6265,2.6119,2.6079,2.6106,2.6306,2.6386,2.6386,2.6386,2.6386,2.6386,2.6386,2.6386,2.6386,2.6386,2.6386,2.6346,2.6132,2.6226,2.6346,2.6132,2.6226,2.6386,2.6386,2.6386,2.6386,2.6386,2.6386,2.6386,2.6386,2.6386,2.6386,2.6386,2.6386,2.6386,2.6386,2.6386,2.6386,2.6386,2.6386,2.6386,2.6386,2.6386,2.6386,2.6386,2.6386,2.6386,2.6386,2.6386,2.6386,2.6386,2.6386,2.6346,2.6279,2.6333,2.6199,2.5837,2.5944,2.5837,2.5518,2.5518,2.5718]},{"header":{"parameterUnit":"m.s-1","parameterCategory":1,"la1":30.6,"la2":29.2853,"lo1":-89.7004,"lo2":-87.6739,"dx":0.0162,"dy":0.0183,"nx":112,"ny":82,"refTime":"2022-11-03T12:00:00:Z","depth":0,"parameterNumber":3,"parameterNumberName":"V-component_of_WINDS"},"data":[0.0,0.0,0.0,0.0,0.0,0.0,0.0,0.0,0.0,0.0,0.0,0.0,0.0,0.0,0.0,0.0,0.0,0.0,0.0,0.0,0.0,0.0,0.0,0.0,0.0,0.0,0.0,0.0,0.0,0.0,0.0,0.0,0.0,0.0,0.0,0.0,0.0,0.0,0.0,0.0,0.0,0.0,0.0,0.0,0.0,0.0,0.0,0.0,0.0,0.0,0.0,0.0,0.0,0.0,0.0,0.0,0.0,0.0,0.0,0.0,0.0,0.0,0.0,0.0,0.0,0.0,0.0,0.0,0.0,0.0,0.0,0.0,0.0,0.0,0.0,0.0,0.0,0.0,0.0,0.0,0.0,0.0,0.0,0.0,0.0,0.0,0.0,0.0,0.0,0.0,2.9962,2.9943,2.975,2.9697,2.992,2.9939,3.0113,3.0486,0.0,0.0,0.0,0.0,0.0,0.0,0.0,0.0,0.0,0.0,0.0,0.0,0.0,0.0,0.0,0.0,0.0,0.0,0.0,0.0,0.0,0.0,0.0,0.0,0.0,0.0,0.0,0.0,0.0,0.0,0.0,0.0,0.0,0.0,0.0,0.0,0.0,0.0,0.0,0.0,0.0,0.0,0.0,0.0,0.0,0.0,0.0,0.0,0.0,0.0,0.0,0.0,0.0,0.0,0.0,0.0,0.0,0.0,0.0,0.0,0.0,0.0,0.0,0.0,0.0,0.0,0.0,0.0,0.0,0.0,0.0,0.0,0.0,0.0,0.0,0.0,0.0,0.0,0.0,0.0,0.0,0.0,0.0,0.0,0.0,0.0,0.0,0.0,0.0,0.0,0.0,0.0,0.0,0.0,0.0,0.0,0.0,0.0,0.0,0.0,0.0,0.0,0.0,0.0,2.9717,2.9675,2.9616,2.9607,2.9657,2.9662,2.978,3.0066,0.0,0.0,0.0,0.0,0.0,0.0,0.0,0.0,0.0,0.0,0.0,0.0,0.0,0.0,0.0,0.0,0.0,0.0,0.0,0.0,0.0,0.0,0.0,0.0,0.0,0.0,0.0,0.0,0.0,0.0,0.0,0.0,0.0,0.0,0.0,0.0,0.0,0.0,0.0,0.0,0.0,0.0,0.0,0.0,0.0,0.0,0.0,0.0,0.0,0.0,0.0,0.0,0.0,0.0,0.0,0.0,0.0,0.0,0.0,0.0,0.0,0.0,0.0,0.0,0.0,0.0,0.0,0.0,0.0,0.0,0.0,0.0,0.0,0.0,0.0,0.0,0.0,0.0,0.0,0.0,0.0,0.0,0.0,0.0,0.0,0.0,0.0,0.0,0.0,0.0,0.0,0.0,0.0,0.0,0.0,0.0,0.0,0.0,0.0,0.0,0.0,0.0,0.0,2.9304,2.9127,2.8828,2.8788,2.8897,2.9191,2.9211,2.9429,2.9977,2.9769,0.0,0.0,0.0,0.0,0.0,0.0,0.0,0.0,0.0,0.0,0.0,0.0,0.0,0.0,0.0,0.0,0.0,0.0,0.0,0.0,0.0,0.0,0.0,0.0,0.0,0.0,0.0,0.0,0.0,0.0,0.0,0.0,0.0,0.0,0.0,0.0,0.0,0.0,0.0,0.0,0.0,0.0,0.0,0.0,0.0,0.0,0.0,0.0,0.0,0.0,0.0,0.0,0.0,0.0,0.0,0.0,0.0,0.0,0.0,0.0,0.0,0.0,0.0,0.0,0.0,0.0,0.0,0.0,0.0,0.0,0.0,0.0,0.0,0.0,0.0,0.0,0.0,0.0,0.0,0.0,0.0,0.0,0.0,0.0,0.0,0.0,0.0,0.0,0.0,0.0,0.0,0.0,0.0,0.0,0.0,0.0,0.0,0.0,0.0,0.0,0.0,0.0,2.8754,2.8566,2.8139,2.8091,2.8265,2.8682,2.8772,2.9084,2.9712,2.9095,0.0,0.0,0.0,0.0,0.0,0.0,0.0,0.0,0.0,0.0,0.0,0.0,0.0,0.0,0.0,0.0,0.0,0.0,0.0,0.0,0.0,0.0,0.0,0.0,0.0,0.0,0.0,0.0,0.0,0.0,0.0,0.0,0.0,0.0,0.0,0.0,0.0,0.0,0.0,0.0,0.0,0.0,0.0,0.0,0.0,0.0,0.0,0.0,0.0,0.0,0.0,0.0,0.0,0.0,0.0,0.0,0.0,0.0,0.0,0.0,0.0,0.0,0.0,0.0,0.0,0.0,0.0,0.0,0.0,0.0,0.0,0.0,0.0,0.0,0.0,0.0,0.0,0.0,0.0,0.0,0.0,0.0,0.0,0.0,0.0,0.0,0.0,0.0,0.0,0.0,0.0,0.0,0.0,0.0,0.0,0.0,0.0,0.0,0.0,0.0,0.0,0.0,2.836,2.8132,2.8091,2.8091,2.8105,2.8145,2.8432,2.8713,2.8973,2.8675,0.0,0.0,0.0,0.0,0.0,0.0,0.0,0.0,0.0,0.0,0.0,0.0,0.0,0.0,0.0,0.0,0.0,0.0,0.0,0.0,0.0,0.0,0.0,0.0,0.0,0.0,0.0,0.0,0.0,0.0,0.0,0.0,0.0,0.0,0.0,0.0,0.0,0.0,0.0,0.0,0.0,0.0,0.0,0.0,0.0,0.0,0.0,0.0,0.0,0.0,0.0,0.0,0.0,0.0,0.0,0.0,0.0,0.0,0.0,0.0,0.0,0.0,0.0,0.0,0.0,0.0,0.0,0.0,0.0,0.0,0.0,0.0,0.0,0.0,0.0,0.0,0.0,0.0,0.0,0.0,0.0,0.0,0.0,0.0,0.0,0.0,0.0,0.0,0.0,0.0,0.0,0.0,0.0,0.0,0.0,0.0,0.0,0.0,0.0,0.0,0.0,0.0,2.8195,2.7982,2.7627,2.759,2.7745,2.8057,2.8228,2.8522,2.9121,0.0,0.0,0.0,0.0,0.0,0.0,0.0,0.0,0.0,0.0,0.0,0.0,0.0,0.0,0.0,0.0,0.0,0.0,0.0,0.0,0.0,0.0,0.0,0.0,0.0,0.0,0.0,0.0,0.0,0.0,0.0,0.0,0.0,0.0,0.0,0.0,0.0,0.0,0.0,0.0,0.0,0.0,0.0,0.0,0.0,0.0,0.0,0.0,0.0,0.0,0.0,0.0,0.0,0.0,0.0,0.0,0.0,0.0,0.0,0.0,0.0,0.0,0.0,0.0,0.0,0.0,0.0,0.0,0.0,0.0,0.0,0.0,0.0,0.0,0.0,0.0,0.0,0.0,0.0,0.0,0.0,0.0,0.0,0.0,0.0,0.0,0.0,0.0,0.0,0.0,0.0,0.0,0.0,0.0,0.0,0.0,0.0,0.0,0.0,0.0,0.0,0.0,2.8215,2.8265,2.815,2.769,2.7669,2.7816,2.815,2.8273,2.8483,2.8871,0.0,0.0,0.0,0.0,0.0,0.0,0.0,0.0,0.0,0.0,0.0,0.0,0.0,0.0,0.0,0.0,0.0,0.0,0.0,0.0,0.0,0.0,0.0,0.0,0.0,0.0,0.0,0.0,0.0,0.0,0.0,0.0,0.0,0.0,0.0,0.0,0.0,0.0,0.0,0.0,0.0,0.0,0.0,0.0,0.0,0.0,0.0,0.0,0.0,0.0,0.0,0.0,0.0,0.0,0.0,0.0,0.0,0.0,0.0,0.0,0.0,0.0,0.0,0.0,0.0,0.0,0.0,0.0,0.0,0.0,0.0,0.0,0.0,0.0,0.0,0.0,0.0,0.0,0.0,0.0,0.0,0.0,0.0,0.0,0.0,0.0,0.0,0.0,0.0,0.0,0.0,0.0,0.0,0.0,0.0,0.0,0.0,0.0,0.0,0.0,0.0,0.0,2.8275,2.857,2.879,2.8435,2.842,2.842,2.8428,2.8657,2.8636,0.0,0.0,0.0,0.0,0.0,0.0,0.0,0.0,0.0,0.0,0.0,0.0,0.0,0.0,0.0,0.0,0.0,0.0,0.0,0.0,0.0,0.0,0.0,0.0,0.0,0.0,0.0,0.0,0.0,0.0,0.0,0.0,0.0,0.0,0.0,0.0,0.0,0.0,0.0,0.0,0.0,0.0,0.0,0.0,0.0,0.0,0.0,0.0,0.0,0.0,0.0,0.0,0.0,0.0,0.0,0.0,0.0,0.0,0.0,0.0,0.0,0.0,0.0,0.0,0.0,0.0,0.0,0.0,0.0,0.0,0.0,0.0,0.0,0.0,0.0,0.0,0.0,0.0,0.0,0.0,0.0,0.0,0.0,0.0,0.0,0.0,0.0,0.0,0.0,0.0,0.0,0.0,0.0,0.0,0.0,0.0,0.0,0.0,0.0,0.0,0.0,0.0,0.0,2.9025,2.9382,2.9365,2.8495,2.8868,2.9271,2.9518,2.9816,2.9775,2.9244,0.0,0.0,0.0,0.0,0.0,0.0,0.0,0.0,0.0,0.0,0.0,0.0,0.0,0.0,0.0,0.0,0.0,0.0,0.0,0.0,0.0,0.0,0.0,0.0,0.0,0.0,0.0,0.0,0.0,0.0,0.0,0.0,0.0,0.0,0.0,0.0,0.0,0.0,0.0,0.0,0.0,0.0,0.0,0.0,0.0,0.0,0.0,0.0,0.0,0.0,0.0,0.0,0.0,0.0,0.0,0.0,0.0,0.0,0.0,0.0,0.0,0.0,0.0,0.0,0.0,0.0,0.0,0.0,0.0,0.0,0.0,0.0,0.0,0.0,0.0,0.0,0.0,0.0,0.0,0.0,0.0,0.0,0.0,0.0,0.0,0.0,0.0,0.0,0.0,0.0,0.0,0.0,0.0,0.0,0.0,0.0,0.0,0.0,0.0,0.0,0.0,0.0,2.963,2.982,2.9803,2.9359,2.9696,3.0058,3.0262,3.0579,3.0543,3.006,0.0,0.0,0.0,0.0,0.0,0.0,0.0,0.0,0.0,0.0,0.0,0.0,0.0,0.0,0.0,0.0,0.0,0.0,0.0,0.0,0.0,0.0,0.0,0.0,0.0,0.0,0.0,0.0,0.0,0.0,0.0,0.0,0.0,0.0,0.0,0.0,0.0,0.0,0.0,0.0,0.0,0.0,0.0,0.0,0.0,0.0,0.0,0.0,0.0,0.0,0.0,0.0,0.0,0.0,0.0,0.0,0.0,0.0,0.0,0.0,0.0,0.0,0.0,0.0,0.0,0.0,0.0,0.0,0.0,0.0,0.0,0.0,0.0,0.0,0.0,0.0,0.0,0.0,0.0,0.0,0.0,0.0,0.0,0.0,0.0,0.0,0.0,0.0,0.0,0.0,0.0,0.0,0.0,0.0,0.0,0.0,0.0,0.0,0.0,0.0,0.0,0.0,3.0179,3.0127,3.0302,3.0671,3.0774,3.0809,3.0809,3.1115,3.1113,3.0624,0.0,0.0,0.0,0.0,0.0,0.0,0.0,0.0,0.0,0.0,0.0,0.0,0.0,0.0,0.0,0.0,0.0,0.0,0.0,0.0,0.0,0.0,0.0,0.0,0.0,0.0,0.0,0.0,0.0,0.0,0.0,0.0,0.0,0.0,0.0,0.0,0.0,0.0,0.0,0.0,0.0,0.0,0.0,0.0,0.0,0.0,0.0,0.0,0.0,0.0,0.0,0.0,0.0,0.0,0.0,0.0,0.0,0.0,0.0,0.0,3.6602,3.6231,0.0,0.0,0.0,0.0,0.0,0.0,0.0,0.0,0.0,0.0,0.0,0.0,0.0,0.0,0.0,0.0,0.0,0.0,0.0,0.0,0.0,0.0,0.0,0.0,0.0,0.0,0.0,0.0,0.0,0.0,0.0,0.0,0.0,0.0,0.0,0.0,0.0,0.0,0.0,0.0,3.0855,3.1159,3.1234,3.0748,3.1223,3.1568,3.1568,3.1865,3.1872,3.1377,3.1686,0.0,0.0,0.0,0.0,0.0,0.0,0.0,0.0,0.0,0.0,0.0,0.0,0.0,0.0,0.0,0.0,0.0,0.0,0.0,0.0,0.0,0.0,0.0,0.0,0.0,0.0,0.0,0.0,0.0,0.0,0.0,0.0,0.0,0.0,0.0,0.0,0.0,0.0,0.0,0.0,0.0,0.0,0.0,0.0,0.0,0.0,0.0,0.0,0.0,0.0,0.0,0.0,0.0,0.0,0.0,0.0,0.0,0.0,0.0,3.7104,3.6976,0.0,0.0,0.0,0.0,0.0,0.0,0.0,0.0,0.0,0.0,0.0,0.0,0.0,0.0,0.0,0.0,0.0,0.0,0.0,0.0,0.0,0.0,0.0,0.0,0.0,0.0,0.0,0.0,0.0,0.0,0.0,0.0,0.0,0.0,0.0,0.0,0.0,0.0,0.0,0.0,3.2161,3.1907,3.1629,3.1259,3.1722,3.1966,3.1818,3.2249,3.2426,3.2165,3.2603,0.0,0.0,0.0,0.0,0.0,0.0,0.0,0.0,0.0,0.0,0.0,0.0,0.0,0.0,0.0,0.0,0.0,0.0,0.0,0.0,0.0,0.0,0.0,0.0,0.0,0.0,0.0,0.0,0.0,0.0,0.0,0.0,0.0,0.0,0.0,0.0,0.0,0.0,0.0,0.0,0.0,0.0,0.0,0.0,0.0,0.0,0.0,0.0,0.0,0.0,0.0,0.0,0.0,3.6064,3.5883,3.6018,3.6014,3.6267,3.677,3.7583,3.7608,3.7087,3.7202,0.0,0.0,0.0,0.0,0.0,0.0,0.0,0.0,0.0,0.0,0.0,0.0,0.0,0.0,0.0,0.0,0.0,0.0,0.0,0.0,0.0,0.0,3.6729,3.6047,3.601,3.6278,3.6983,0.0,0.0,0.0,0.0,0.0,0.0,0.0,0.0,0.0,0.0,0.0,3.3266,3.2451,3.1919,3.1941,3.2214,3.2231,3.1948,3.2453,3.2782,3.2766,3.3276,3.3288,0.0,0.0,0.0,0.0,0.0,0.0,0.0,0.0,0.0,0.0,0.0,0.0,0.0,0.0,0.0,0.0,0.0,0.0,0.0,0.0,0.0,0.0,0.0,0.0,0.0,0.0,0.0,0.0,0.0,0.0,0.0,0.0,3.9254,3.9236,0.0,0.0,0.0,0.0,0.0,0.0,0.0,0.0,0.0,0.0,0.0,0.0,0.0,3.6638,3.686,3.6445,3.6295,3.6443,3.6751,3.6913,3.6937,3.7617,3.7979,3.8084,3.8946,0.0,3.7085,3.7814,0.0,0.0,0.0,0.0,0.0,0.0,0.0,0.0,0.0,0.0,0.0,0.0,0.0,0.0,0.0,0.0,0.0,0.0,0.0,0.0,0.0,0.0,3.6047,3.5935,3.6428,3.6983,3.7154,3.6334,3.5522,3.5473,3.5554,3.5695,0.0,0.0,0.0,0.0,0.0,0.0,3.2819,3.2715,3.2632,3.2603,3.262,3.2603,3.2514,3.2589,3.2762,3.3039,3.3132,3.3239,3.3364,3.3588,0.0,0.0,0.0,0.0,0.0,0.0,0.0,0.0,0.0,0.0,0.0,0.0,0.0,0.0,0.0,0.0,0.0,0.0,0.0,0.0,0.0,0.0,0.0,0.0,0.0,0.0,0.0,0.0,0.0,3.9258,3.9379,3.9144,3.9242,3.9161,0.0,0.0,0.0,0.0,0.0,0.0,0.0,0.0,0.0,3.6911,3.7051,3.7224,3.7448,3.7384,3.7332,3.7299,3.7063,3.6973,3.7104,3.7341,3.7535,3.7668,3.8049,3.7769,3.717,3.8482,3.9008,3.902,0.0,0.0,0.0,0.0,3.88,3.85,3.85,3.85,3.85,3.85,0.0,0.0,0.0,0.0,0.0,0.0,0.0,3.7968,3.7968,3.7968,3.7873,3.7454,3.7621,3.7768,3.7402,3.7289,3.6979,3.5878,3.5198,3.4821,3.491,3.4761,0.0,0.0,0.0,3.3901,3.3581,3.3376,3.3096,3.2677,3.2798,3.2858,3.2622,3.3194,3.3597,3.3729,3.3901,3.4022,3.4126,3.3892,3.391,0.0,0.0,0.0,0.0,0.0,0.0,0.0,0.0,0.0,0.0,0.0,0.0,0.0,0.0,0.0,0.0,0.0,0.0,0.0,0.0,0.0,0.0,0.0,0.0,0.0,0.0,0.0,0.0,3.9546,3.9394,3.9107,3.9283,3.9202,0.0,0.0,0.0,0.0,0.0,0.0,3.7426,3.7426,3.7286,3.705,3.7477,3.7789,3.7993,3.7929,3.7879,3.7779,3.7163,3.6943,3.7104,3.7155,3.728,3.7405,3.763,3.7749,3.7824,3.8838,3.9289,3.9289,3.9514,3.9589,3.9589,3.9589,3.9589,3.9589,3.9589,3.9589,3.9589,3.9589,3.9589,3.9477,3.8832,0.0,0.0,0.0,0.0,3.9295,3.9325,3.9149,3.8884,3.8325,3.8202,3.8083,3.7564,3.7874,3.7942,3.6783,3.5694,3.4974,3.5076,3.4926,0.0,3.4805,3.4579,3.43,3.4094,3.3952,3.3727,3.3184,3.3521,3.3704,3.344,3.4203,3.4647,3.4619,3.4901,3.5037,3.4977,3.4868,3.5065,3.5586,0.0,0.0,0.0,0.0,0.0,0.0,0.0,0.0,0.0,0.0,0.0,0.0,0.0,0.0,0.0,0.0,0.0,0.0,0.0,0.0,0.0,0.0,0.0,0.0,0.0,0.0,0.0,0.0,0.0,3.9571,3.9508,0.0,0.0,0.0,0.0,3.8781,3.8473,3.8363,3.8498,3.8505,3.8581,3.8781,3.8101,3.7798,3.7993,3.7243,3.6975,3.713,3.7093,3.7099,3.7148,3.7875,3.8213,3.83,3.9095,3.9477,3.9401,3.8676,3.8369,3.845,3.9283,3.9589,3.9589,3.9589,3.9589,3.9589,3.9589,3.9589,3.9589,3.9589,3.9589,3.9589,3.9552,3.9514,0.0,0.0,3.8982,3.8399,3.8522,3.8001,3.7435,3.7442,3.7468,3.7493,3.7557,3.7356,3.744,3.8369,3.8297,3.8079,3.8085,0.0,3.5027,3.5175,3.424,3.3567,3.3625,3.4295,3.4703,3.4591,3.5281,3.5722,3.5635,3.5679,3.5724,3.5724,3.5906,3.6018,3.6018,3.7141,3.7441,3.6746,3.7635,0.0,0.0,0.0,0.0,0.0,0.0,0.0,0.0,0.0,0.0,0.0,0.0,0.0,0.0,0.0,0.0,0.0,0.0,0.0,0.0,0.0,0.0,0.0,0.0,0.0,0.0,0.0,0.0,3.9589,3.9571,0.0,3.9552,3.94,3.9329,3.9329,3.9198,3.8935,3.8416,3.8423,3.8181,3.7748,3.7978,3.8128,3.8191,3.8471,3.8627,3.8725,3.8725,3.8725,3.8725,3.9026,3.9433,3.9915,4.0253,4.0666,4.111,4.0803,4.0065,3.917,3.9477,3.9589,3.9589,3.9589,3.9589,3.9589,3.9589,3.9589,3.9589,3.9589,3.9589,3.9589,3.9589,3.965,3.9672,3.9672,3.9926,4.0184,4.0229,4.0397,4.0468,4.0012,3.9924,3.9797,3.9438,3.9242,3.9274,3.9661,3.8472,3.7451,3.7635,3.6876,3.623,3.6211,3.5894,3.5612,3.5534,3.5687,3.5724,3.5623,3.5742,3.5835,3.5812,3.6254,3.6624,3.6752,3.6815,3.6934,3.7131,3.7205,3.7355,3.7578,3.7535,3.763,0.0,0.0,0.0,0.0,0.0,0.0,0.0,0.0,0.0,0.0,0.0,0.0,0.0,0.0,0.0,0.0,0.0,0.0,0.0,0.0,0.0,0.0,0.0,0.0,0.0,3.9589,3.9589,3.9589,3.9589,3.9589,3.9589,3.9589,3.9589,3.9589,3.9589,3.9364,3.8751,3.8751,3.8494,3.7974,3.8456,3.8751,3.8751,3.9583,4.0002,3.9996,4.0297,4.0409,4.0409,4.0409,4.0703,4.1185,4.1185,4.1516,4.2004,4.2004,4.1405,4.0478,4.0428,4.0409,4.0409,4.0409,4.0409,4.0416,4.0466,4.0484,4.049,4.0539,4.0557,4.0557,4.0557,4.0579,4.0599,4.0599,4.1079,4.1607,4.164,4.2074,4.2362,4.1904,4.1815,4.1678,4.1246,4.1146,4.1146,4.1146,3.9247,3.7672,3.7844,3.7419,3.6983,3.6831,3.6781,3.6714,3.653,3.669,3.675,3.6682,3.6794,3.684,3.684,3.7236,3.7591,3.7845,3.786,3.7963,3.8199,3.7901,3.8016,3.8539,3.8139,3.8241,3.8844,0.0,0.0,0.0,0.0,0.0,0.0,0.0,0.0,0.0,0.0,0.0,0.0,0.0,0.0,0.0,0.0,0.0,0.0,0.0,0.0,0.0,0.0,0.0,3.9724,3.9657,3.9657,3.9657,3.9651,3.9645,3.9614,3.9608,3.9602,3.9639,3.9639,3.9677,3.9671,3.9671,3.9671,3.9664,3.9671,3.9671,3.9664,4.0447,4.0854,4.0854,4.1629,4.2004,4.2011,4.2011,4.2011,4.2055,4.2055,4.2055,4.2093,4.2093,4.2177,4.2253,4.207,4.2011,4.2018,4.2018,4.2018,4.2037,4.214,4.219,4.2214,4.2351,4.2392,4.2392,4.2392,4.2392,4.2397,4.2397,4.2435,4.2464,4.2612,4.2639,4.2704,4.2807,4.2832,4.2832,4.2794,4.2794,4.2794,4.2794,4.0807,3.9126,3.9126,3.8218,3.7354,3.7042,3.6986,0.0,3.6525,3.735,3.794,3.7927,3.8556,3.8973,3.8966,3.8749,3.8681,3.8966,3.8973,3.9074,3.9297,3.9558,3.9664,3.9627,3.9639,3.9728,3.9884,0.0,0.0,0.0,0.0,0.0,0.0,0.0,0.0,0.0,0.0,0.0,0.0,0.0,0.0,0.0,0.0,0.0,0.0,0.0,0.0,0.0,4.1255,4.1097,4.0914,4.0921,4.0921,4.0921,4.0853,4.0572,3.9954,3.9867,4.0082,4.0698,4.0779,4.096,4.1462,4.1493,4.145,4.1335,4.1444,4.1444,4.1335,4.1663,4.1776,4.1667,4.1892,4.2057,4.2165,4.2165,4.2523,4.3232,4.3232,4.3567,4.4084,4.4084,4.4108,4.4013,4.2674,4.219,4.2281,4.2281,4.2281,4.2287,4.2322,4.2334,4.234,4.238,4.2392,4.2392,4.2392,4.2486,4.2553,4.2553,4.3025,4.3585,4.3616,4.409,4.4406,4.3815,4.3668,4.3515,4.2947,4.2794,4.2794,4.2794,4.2221,4.1762,4.1762,4.1484,4.1267,4.1156,4.1151,4.1098,4.0899,4.0945,4.0923,4.0798,4.078,4.0756,4.0666,4.056,4.0658,4.0924,4.0939,4.1031,4.1237,4.1303,4.1072,4.0484,4.0625,4.0429,0.0,0.0,0.0,0.0,0.0,0.0,0.0,0.0,0.0,0.0,0.0,0.0,0.0,0.0,0.0,0.0,0.0,0.0,0.0,0.0,0.0,0.0,4.2381,4.2399,4.2737,4.2338,4.1971,4.1971,4.1963,4.1734,4.1232,4.1131,4.1294,4.1759,4.1792,4.1911,4.2281,4.2275,4.2239,4.2153,4.2233,4.2239,4.219,4.2616,4.2805,4.2718,4.3058,4.3246,4.3327,4.3327,4.3635,4.4206,4.4206,4.4513,4.4995,4.4995,4.5266,4.5551,0.0,0.0,0.0,0.0,4.3448,4.3453,4.3506,4.3529,4.3534,4.3591,4.3607,4.3607,4.3607,4.3689,4.3737,4.3737,4.4123,4.4546,4.4546,4.4934,4.5168,4.4666,4.4546,4.4437,4.394,4.3864,4.3864,4.3864,4.3864,0.0,4.3864,4.3252,4.2759,4.2574,4.2685,4.2695,4.2444,4.2399,4.2325,4.2214,4.2014,4.1812,4.1691,4.1592,0.0,0.0,0.0,4.1794,4.1991,4.2121,0.0,0.0,0.0,4.1622,4.1226,4.1375,0.0,0.0,4.0735,4.0553,0.0,0.0,0.0,0.0,0.0,0.0,0.0,0.0,0.0,0.0,0.0,0.0,0.0,0.0,0.0,0.0,4.3552,4.3862,4.4715,4.3858,4.3137,4.3047,4.3,4.2953,4.2877,4.283,4.2845,4.2819,4.2804,4.2772,4.2748,4.2742,0.0,0.0,0.0,4.2731,4.272,4.361,4.4034,4.4055,4.484,4.522,4.5238,4.5238,4.5244,4.5256,4.5256,4.5348,4.5458,4.5458,4.6066,4.6851,4.5699,4.5256,4.5256,4.518,4.5136,4.5115,4.5148,0.0,0.0,4.5309,4.5339,4.5339,4.5339,4.5339,4.5339,4.5339,4.5339,4.5339,4.5339,4.5339,4.5339,4.5339,4.5339,4.5339,4.5339,4.5339,4.5339,4.5339,4.5339,4.5339,4.5339,4.4085,4.2947,4.2593,4.284,4.2942,4.2587,4.2759,4.2917,4.2868,4.2763,0.0,4.2498,4.2282,4.2227,4.2261,4.2118,4.2118,4.232,4.2551,4.2687,4.2574,4.2843,4.3013,4.3083,4.3139,4.3211,4.3355,4.1439,4.1066,0.0,0.0,0.0,0.0,0.0,0.0,0.0,0.0,0.0,0.0,0.0,0.0,0.0,0.0,0.0,4.4314,4.4491,4.4818,4.5634,4.5523,4.5124,4.4408,4.4235,4.3933,4.3276,4.3149,4.3366,4.4028,4.4062,4.429,4.4876,4.491,4.483,4.4747,4.4825,4.4868,4.4742,4.5717,4.6143,4.6069,4.6835,0.0,4.7381,4.7381,4.7463,4.7575,4.7575,4.7593,4.7615,4.7615,4.7718,4.7906,4.7644,4.7575,4.7498,4.6753,4.6522,4.6407,4.5809,4.5586,4.5586,4.5603,4.5611,4.5611,4.5611,4.5611,0.0,4.5611,4.5611,4.5611,4.5611,4.5611,4.5611,4.5611,4.5611,4.5611,4.5611,4.5611,4.5611,4.5611,4.5611,4.5611,4.5611,4.5189,4.4809,4.4717,4.4755,4.4809,4.4717,4.4739,4.4756,4.4619,4.4499,4.4366,4.4228,4.4076,4.3987,4.4031,4.4076,4.4177,4.4339,4.4492,4.4308,4.3704,4.3885,4.3701,4.3087,4.3269,4.3377,4.3451,4.3016,4.2881,0.0,0.0,0.0,0.0,0.0,0.0,0.0,0.0,0.0,0.0,0.0,4.3527,4.3954,0.0,4.4386,4.5201,4.5367,4.5533,4.5921,4.5999,4.5833,4.5415,4.5309,4.51,4.4673,4.4611,4.476,4.5125,4.516,4.5271,4.5589,4.5967,4.6177,4.609,4.6604,4.6801,4.6758,4.7264,4.7461,4.7421,4.7806,4.8025,4.8107,4.8107,4.8129,4.8209,4.8209,4.8245,4.8342,4.8826,4.9044,4.9083,4.9548,4.9092,4.8132,4.7703,4.7545,4.7506,4.7082,4.6966,4.6966,4.6966,4.6966,4.6966,4.6966,4.6966,4.6966,4.6966,4.6966,4.6966,4.6966,4.6966,4.6966,4.6966,4.6966,4.6966,4.6966,4.6966,4.6966,4.6966,4.6966,4.6966,4.6966,4.6857,4.6454,4.5638,4.5458,4.5404,4.5404,4.5334,4.5262,4.5203,4.5142,4.5057,4.4926,4.4789,4.4713,4.4814,4.528,4.5601,4.5742,4.6334,4.6468,4.6108,4.6344,4.6245,4.5857,4.5526,4.5362,4.5372,4.4921,4.4489,0.0,0.0,0.0,0.0,0.0,0.0,0.0,4.3904,4.3904,4.3909,4.3893,4.4103,4.4835,4.5126,4.5491,4.6155,4.6388,4.6504,4.6504,4.6504,4.6504,4.6504,4.6193,4.6077,4.6232,4.6232,4.628,4.6439,4.6432,4.6396,4.6266,4.6877,4.7225,4.7225,4.7929,4.828,4.828,4.8435,4.8512,4.8512,4.8705,4.8783,4.8783,4.8783,4.8783,4.8783,4.8783,4.8836,4.9,4.9816,5.0156,5.0234,5.093,5.0219,4.8744,4.8589,4.8512,4.8512,4.8358,4.828,4.828,4.828,4.828,4.828,4.828,4.828,4.828,4.828,4.828,4.828,4.828,4.828,4.828,4.828,4.828,4.828,4.828,4.828,4.828,4.828,4.828,4.828,4.828,4.828,4.7797,4.6391,4.61,4.603,4.603,4.5923,4.5844,4.5844,4.5829,4.5768,4.5655,4.5516,4.5516,4.5622,4.632,4.6763,4.6915,4.7777,4.823,4.8283,4.8474,4.8615,4.8599,4.79,4.7548,4.7548,4.6815,4.5999,4.3247,4.3895,4.4536,4.4542,4.5091,4.5646,0.0,4.572,4.5728,4.5714,4.5722,4.5725,4.5839,4.6499,4.7043,4.712,4.7784,4.8327,4.8327,4.8327,4.8327,4.8327,4.6932,4.631,4.7082,4.7159,4.7467,4.8239,4.8313,4.8272,4.826,4.8377,4.8415,4.8415,4.8493,4.8571,4.8571,4.9311,4.9703,4.97,5.0473,5.0862,5.0862,5.0862,5.0862,5.0862,5.0862,5.0868,5.0915,5.1002,5.1047,5.1047,5.116,5.1071,5.0784,5.001,4.9703,4.9583,4.8804,4.8571,4.8571,4.8571,4.8571,4.8571,4.8571,4.8571,4.8571,4.8571,4.8571,4.8571,4.8571,4.8571,4.8571,4.8571,4.8571,4.8571,4.8571,4.8571,4.8571,4.8571,4.8571,4.8571,4.8571,4.8571,4.8399,4.7971,4.7926,4.7914,4.7914,4.7863,4.7893,4.7893,4.7785,4.7655,4.7514,4.7494,4.7494,4.7514,4.7718,4.7867,4.8036,4.824,4.8448,4.8535,4.8588,4.8597,4.8599,4.8483,4.8444,4.8444,4.8366,4.7437,4.4721,4.5136,4.5586,4.6087,4.6451,4.6857,4.7376,4.7495,4.7501,4.7512,4.7514,4.7514,4.7514,4.7822,4.8055,4.8055,4.8366,4.8599,4.8599,4.8599,4.8599,4.8599,4.7942,4.7667,4.8017,4.8055,4.8211,4.8561,4.8599,4.8599,4.8599,4.9068,4.934,4.934,4.9843,5.0114,5.0114,5.0464,5.0658,5.0658,5.1047,5.1199,5.1199,5.1199,5.1199,5.1199,5.1199,5.1199,5.1199,5.1199,5.1199,5.1199,5.1199,5.1199,5.116,5.0775,5.0658,5.0581,5.0231,5.0114,5.0114,5.0114,5.0114,5.0114,5.0114,5.0114,5.0114,5.0114,5.0114,5.0114,5.0114,5.0114,5.0114,5.0114,5.0114,5.0114,5.0114,5.0114,5.0114,5.0114,5.0114,5.0114,5.0114,5.0114,5.0088,4.9969,4.9012,4.8314,4.8314,4.8253,4.8209,4.8209,4.8137,4.8103,4.8025,4.8021,4.8056,4.8132,4.8674,4.9057,4.9162,4.9734,5.0076,5.0112,5.0114,5.0114,5.0114,4.9612,4.934,4.934,4.8835,4.8211,4.6058,4.6344,4.659,4.7448,4.765,4.782,4.8444,4.8599,4.8599,4.8599,4.8599,4.8599,4.8599,4.8796,4.8952,4.8952,4.9143,4.9337,4.9337,4.9337,4.9337,4.9337,4.9313,4.9334,4.9318,4.9093,4.9066,4.9299,4.9337,4.9337,4.9337,4.9923,5.0273,5.0273,5.0853,5.1199,5.1199,5.1199,5.1199,5.1199,5.1199,5.1199,5.1199,5.1199,5.1199,5.1199,5.1199,5.1199,5.1199,5.1199,5.1199,5.1199,5.1199,5.1199,5.1199,5.1199,5.1199,5.1199,5.1199,5.1199,5.1199,5.1199,5.1199,5.1199,5.1199,5.1199,5.1199,5.1199,5.1199,5.1199,5.1199,5.1199,5.1199,5.1199,5.1199,5.1199,5.1199,5.1199,5.1199,5.1199,5.1199,5.1199,5.1199,5.1199,5.1199,5.1199,5.0057,4.9159,4.9159,4.9093,4.9045,4.9045,4.9045,4.9045,4.9045,4.9045,4.9079,4.9155,4.9744,5.0167,5.0231,5.0853,5.1199,5.1199,5.1199,5.1199,5.1199,5.0581,5.0273,5.0234,4.9609,4.9337,4.7054,4.7319,4.755,4.8352,4.8561,4.8561,4.8599,4.8599,4.8599,4.8599,4.8599,4.8599,4.8599,4.9301,4.9848,4.9848,5.0581,5.1122,5.1122,5.1122,5.1122,5.1122,5.1136,5.112,5.1108,5.0354,5.0195,5.1044,5.1122,5.1122,5.1122,5.116,5.116,5.116,5.1199,5.1199,5.1199,5.1199,5.1199,5.1199,5.1199,5.1199,5.1199,5.1199,5.1199,5.1199,5.1199,5.1199,5.1199,5.1199,5.1199,5.1199,5.1199,5.1199,5.1199,5.1199,5.1199,5.1199,5.1199,5.1199,5.1199,5.1199,5.1199,5.1199,5.1199,5.1199,5.1199,5.1199,5.1199,5.1199,5.1199,5.1199,5.1199,5.1199,5.1199,5.1199,5.1199,5.1199,5.1199,5.1199,5.1199,5.1199,5.1199,5.1199,5.1199,5.1199,5.116,5.1119,5.1119,5.1116,5.1116,5.1116,5.1116,5.1116,5.1116,5.1116,5.1116,5.1119,5.1157,5.116,5.116,5.1199,5.1199,5.1199,5.1199,5.1199,5.1199,5.116,5.116,5.116,5.1122,5.1122,4.7292,4.7799,4.8463,4.9339,4.9528,4.9684,5.0267,5.0384,5.0384,5.0384,5.0384,5.0384,5.0384,5.0576,5.0789,5.0805,5.1041,5.1224,5.125,5.1258,5.1262,5.1192,5.1201,5.1211,5.1183,5.0989,5.0929,5.1191,5.1244,5.1263,5.1263,5.1261,5.1273,5.1273,5.1273,5.1257,5.1183,5.1183,5.12,5.1199,5.1199,5.1199,5.1199,5.1199,5.1199,5.1199,5.1199,5.1199,5.1199,5.1199,5.1199,5.1199,5.1199,5.1199,5.1199,5.1199,5.1199,5.1199,5.1199,5.1199,5.1199,5.1199,5.1199,5.1199,5.1199,5.1199,5.1199,5.1199,5.1199,5.1199,5.1199,5.1199,5.1199,5.1199,5.1199,5.1199,5.1199,5.1199,5.1199,5.1199,5.1199,5.1199,5.1199,5.1199,5.1199,5.1199,5.1199,5.1199,5.1199,5.1199,5.1199,5.1199,5.1199,5.1199,5.1199,5.1199,5.1199,5.1199,5.1199,5.1199,5.1199,5.1199,5.1199,5.1199,5.1199,5.1199,5.1199,5.1199,5.1203,5.1195,5.1195,5.1228,4.8194,4.8779,4.9402,5.0247,5.0478,5.0595,5.118,5.1297,5.1297,5.1297,5.1297,5.1297,5.1297,5.1275,5.1266,5.1299,5.1243,5.1317,5.1664,5.1745,5.1825,5.2102,5.2145,5.2147,5.2148,5.2186,5.1949,5.1242,5.123,5.126,5.126,5.1277,5.1417,5.1732,5.1418,5.1408,5.1659,5.1346,5.1214,5.1187,5.1187,5.1187,5.1187,5.1187,5.1187,5.1187,5.1187,5.1224,5.1256,5.1568,5.1683,5.1715,5.2029,5.2146,5.2146,5.2146,5.2146,5.2095,5.1739,5.163,5.1668,5.1979,5.2096,5.2096,5.2096,5.2128,5.2124,5.2124,5.2154,5.2146,5.2146,5.2146,5.2146,5.2146,5.2146,5.2146,5.2146,5.2146,5.2146,5.2146,5.2146,5.2146,5.2146,5.2146,5.2146,5.2146,5.2146,5.1923,5.1292,5.1199,5.1199,5.1199,5.1474,5.163,5.163,5.1901,5.2096,5.2096,5.2096,5.2096,5.2096,5.2096,5.2096,5.2096,5.2103,5.2124,5.2124,5.2166,5.2017,5.1715,5.1715,5.158,4.9686,5.0117,5.0351,5.1115,5.1302,5.1302,5.1302,5.1302,5.1302,5.1303,5.1303,5.1303,5.1304,5.131,5.1315,5.1316,5.1281,5.1557,5.2379,5.2535,5.2888,5.3709,5.3867,5.3862,5.3806,5.3824,5.3101,5.1404,5.1323,5.1323,5.1284,5.1283,5.1634,5.2417,5.1634,5.1595,5.2416,5.1595,5.1203,5.1203,5.1203,5.1203,5.1203,5.1203,5.1203,5.1281,5.1281,5.1318,5.1507,5.225,5.2597,5.2746,5.3567,5.3918,5.3918,5.3918,5.3918,5.3789,5.2857,5.2505,5.2621,5.3441,5.3713,5.3713,5.3713,5.3753,5.3826,5.3826,5.384,5.3918,5.3918,5.3918,5.3918,5.3918,5.3918,5.3918,5.3918,5.3918,5.3918,5.3918,5.3918,5.3918,5.3918,5.3918,5.3918,5.3918,5.3918,5.3298,5.1564,5.1339,5.1336,5.1328,5.2027,5.2457,5.2457,5.3234,5.3707,5.3713,5.3713,5.3713,5.3713,5.3713,5.3713,5.3713,5.3781,5.3826,5.3826,5.3856,5.3451,5.2671,5.2671,5.2241,4.998,5.0568,5.1117,5.1319,5.136,5.136,5.136,5.136,5.1358,5.1354,5.1354,5.1352,5.1384,5.132,5.1324,5.1383,5.1865,5.2336,5.2539,5.3117,5.3621,5.3843,5.3873,5.3902,5.3891,5.3295,5.2758,5.2281,5.2855,5.2946,5.2284,5.2259,5.2068,5.1677,5.1443,5.1445,5.1601,5.1324,5.1203,5.1203,5.1203,5.1203,5.1203,5.1203,5.1555,5.2181,5.2181,5.2569,5.3189,5.3384,5.3497,5.3606,5.3801,5.3918,5.3918,5.3918,5.3918,5.3954,5.4279,5.4033,5.3567,5.376,5.3838,5.3838,5.3838,5.385,5.3861,5.3861,5.387,5.3918,5.3918,5.3918,5.3918,5.3918,5.3918,5.3918,5.3918,5.3918,5.3918,5.3918,5.3918,5.3918,5.3918,5.3918,5.3918,5.3918,5.3918,5.3715,5.3259,5.3216,5.3195,5.3128,5.3316,5.3433,5.3433,5.3667,5.3814,5.3835,5.3838,5.3838,5.3838,5.3838,5.3838,5.3838,5.3854,5.3861,5.3861,5.3874,5.3775,5.3553,5.3553,5.3476,5.0554,5.1022,5.1414,5.1414,5.1414,5.1413,5.1409,5.1408,5.1404,5.1391,5.1389,5.1386,5.1415,5.1357,5.1324,5.1331,5.2049,5.2715,5.3137,5.3908,5.4605,5.4985,5.4708,5.4474,5.4474,5.3695,5.3188,5.3188,5.2909,5.2537,5.2069,5.2014,5.1988,5.1949,5.1558,5.1331,5.1303,5.1274,5.1239,5.1239,5.1629,5.1823,5.1823,5.2214,5.2643,5.3111,5.3111,5.3388,5.3862,5.4252,5.4449,5.4491,5.4882,5.5038,5.5038,5.5039,5.5039,5.5117,5.5586,5.5468,5.5077,5.502,5.5008,5.5008,5.5008,5.5021,5.5031,5.5031,5.5075,5.5078,5.5078,5.5078,5.5078,5.5078,5.5078,5.5078,5.5078,5.5078,5.5078,5.5078,5.5078,5.5078,5.5078,5.5078,5.5078,5.5078,5.5078,5.5078,5.5078,5.4404,5.3908,5.3837,5.4144,5.4377,5.4377,5.4726,5.4976,5.5006,5.5008,5.5008,5.5008,5.5008,5.5008,5.5008,5.5024,5.5031,5.5031,5.5077,5.4882,5.4524,5.4524,5.4322,5.118,5.1414,5.1413,5.1412,5.1412,5.1409,5.1397,5.1395,5.1391,5.1375,5.1372,5.137,5.1408,5.1358,5.1309,5.1309,5.2111,5.3032,5.3773,5.4747,5.5606,5.6232,5.5645,5.5137,5.5059,5.424,5.3734,5.3734,5.2214,5.1359,5.1476,5.1476,5.1785,5.2409,5.1708,5.132,5.132,5.1398,5.1476,5.1474,5.237,5.276,5.2799,5.3578,5.3968,5.4084,5.4084,5.4136,5.4312,5.5051,5.5376,5.5432,5.621,5.6485,5.6488,5.6502,5.6509,5.6511,5.6563,5.6605,5.6579,5.6441,5.6426,5.6426,5.6426,5.6481,5.6523,5.6523,5.6551,5.6605,5.6605,5.6605,5.6605,5.6605,5.6605,5.6605,5.6605,5.6605,5.6605,5.6605,5.6605,5.6605,5.6605,5.6605,5.6605,5.6605,5.6605,5.6605,5.6605,5.5234,5.4243,5.4238,5.4861,5.529,5.529,5.599,5.6421,5.6426,5.6426,5.6426,5.6426,5.6426,5.6426,5.6426,5.6483,5.6523,5.6523,5.6584,5.6216,5.5475,5.5475,5.5123,5.1375,5.1414,5.1412,5.1403,5.1401,5.1397,5.1383,5.1418,5.1375,5.132,5.1317,5.1312,5.1333,5.1328,5.1287,5.1287,5.2647,5.3734,5.389,5.5256,5.6076,5.5487,5.5292,5.4903,5.4201,5.3344,5.2838,5.2838,5.1863,5.1591,5.2331,5.237,5.2097,5.1552,5.1398,5.132,5.132,5.2019,5.237,5.237,5.3266,5.3656,5.3695,5.3812,5.4279,5.4981,5.4981,5.5383,5.6065,5.6221,5.6271,5.6288,5.6444,5.6491,5.6503,5.6506,5.6554,5.6564,5.6605,5.6605,5.6608,5.6583,5.6587,5.6587,5.6587,5.6582,5.6577,5.6577,5.6572,5.6605,5.6605,5.6605,5.6605,5.6605,5.6605,5.6605,5.6605,5.6605,5.6605,5.6605,5.6605,5.6605,5.6605,5.6605,5.6605,5.6605,5.6605,5.6605,5.6605,5.6344,5.6125,5.6054,5.6171,5.6249,5.6249,5.6405,5.6523,5.6549,5.6587,5.6587,5.6587,5.6587,5.6587,5.6587,5.658,5.6577,5.6577,5.6609,5.6527,5.6372,5.6372,5.6645,5.1414,5.141,5.1404,5.14,5.1392,5.1382,5.1367,5.1362,5.1358,5.13,5.1296,5.1292,5.1283,5.132,5.132,5.132,5.276,5.389,5.389,5.5414,5.6193,5.5292,5.4786,5.4162,5.3305,5.2448,5.1902,5.1902,5.1554,5.1474,5.1902,5.1902,5.1941,5.198,5.198,5.2175,5.2643,5.3071,5.3266,5.3305,5.4162,5.4591,5.4591,5.5061,5.5489,5.5879,5.5879,5.6119,5.6519,5.6519,5.6486,5.6496,5.6505,5.6512,5.6483,5.6502,5.6511,5.6558,5.6603,5.6605,5.6605,5.6605,5.6605,5.6605,5.6605,5.6605,5.6605,5.6605,5.6605,5.6605,5.6605,5.6605,5.6605,5.6605,5.6605,5.6605,5.6605,5.6605,5.6605,5.6605,5.6605,5.6605,5.6605,5.6605,5.6605,5.6605,5.6605,5.6605,5.6605,5.6957,5.7044,5.6591,5.6553,5.6553,5.6553,5.6553,5.6743,5.7193,5.7231,5.7426,5.7893,5.7893,5.7893,5.7893,5.7893,5.7893,5.7893,5.7893,5.7893,5.7893,5.7893,5.8124,5.1411,5.1402,5.1392,5.139,5.138,5.1362,5.1289,5.1242,5.1275,5.1256,5.1236,5.1227,5.1248,5.1252,5.133,5.1525,5.2864,5.3968,5.4162,5.553,5.6115,5.5059,5.4318,5.3461,5.2409,5.1863,5.1591,5.1591,5.1747,5.1785,5.1591,5.1747,5.2175,5.2877,5.2877,5.3227,5.389,5.4084,5.4162,5.4201,5.5059,5.5487,5.5487,5.6193,5.6507,5.6507,5.6507,5.6507,5.6507,5.6507,5.6507,5.6507,5.6482,5.649,5.6498,5.6488,5.6499,5.6504,5.6554,5.6599,5.6561,5.6598,5.66,5.6605,5.6605,5.6605,5.6605,5.6605,5.6605,5.6605,5.6605,5.6605,5.6605,5.6605,5.6605,5.6605,5.6605,5.6605,5.6605,5.6605,5.6605,5.6605,5.6605,5.6605,5.6644,5.684,5.6879,5.6917,5.7112,5.7699,5.7855,5.719,5.7151,5.7151,5.7151,5.7151,5.7425,5.805,5.8089,5.8402,5.9064,5.9101,5.91,5.91,5.9096,5.9095,5.9095,5.9095,5.9095,5.9095,5.9095,5.9207,5.14,5.1389,5.1373,5.1322,5.1315,5.129,5.1136,5.1106,5.1103,5.11,5.0969,5.0879,5.108,5.1139,5.1372,5.2152,5.321,5.4162,5.4981,5.5918,5.5881,5.4201,5.3968,5.3266,5.1591,5.2058,5.2487,5.2487,5.3227,5.3305,5.2526,5.3227,5.3695,5.3773,5.3773,5.3812,5.389,5.4708,5.5098,5.5098,5.5959,5.6388,5.6388,5.6468,5.6507,5.6507,5.6507,5.6507,5.6507,5.6507,5.6507,5.6507,5.6509,5.6519,5.6494,5.6498,5.651,5.6485,5.6525,5.6497,5.6507,5.6493,5.6546,5.6605,5.6605,5.6605,5.6605,5.6605,5.6605,5.6605,5.6605,5.6605,5.6605,5.6605,5.6605,5.6605,5.6605,5.6605,5.6605,5.6605,5.6605,5.6605,5.6605,5.6605,5.684,5.7582,5.7699,5.7972,5.8752,5.8947,5.8947,5.8869,5.8869,5.8869,5.8869,5.8869,5.8908,5.8986,5.8986,5.9025,5.9103,5.9092,5.9086,5.9086,5.9111,5.9103,5.9103,5.9103,5.9103,5.9103,5.9103,5.9531,5.1189,5.1145,5.1031,5.102,5.1005,5.0975,5.0942,5.0925,5.0925,5.0925,5.0878,5.0813,5.0914,5.0925,5.1192,5.208,5.2986,5.3877,5.4724,5.5585,5.554,5.3905,5.4186,5.3836,5.2083,5.2705,5.3211,5.3211,5.3915,5.4217,5.3986,5.3937,5.4123,5.4669,5.4669,5.4942,5.5453,5.5803,5.5996,5.5996,5.6349,5.6507,5.6507,5.6507,5.6507,5.6507,5.6507,5.6507,5.6507,5.6507,5.6507,5.6507,5.6517,5.6488,5.6494,5.6507,5.6516,5.6483,5.6483,5.6488,5.6491,5.6485,5.6532,5.6542,5.6542,5.6548,5.6554,5.6554,5.656,5.6605,5.6605,5.6605,5.6605,5.6605,5.6605,5.6605,5.6605,5.6605,5.6605,5.6605,5.6996,5.7309,5.7309,5.7776,5.8205,5.8518,5.8597,5.8713,5.9064,5.9572,5.9885,5.9885,5.9416,5.9103,5.9103,5.9103,5.9338,5.9846,5.9878,6.0107,6.0654,6.0639,6.0591,6.0591,6.0586,6.0581,6.0581,6.0581,6.0581,6.0581,6.0581,6.0808,5.1008,5.0901,5.0793,5.0793,5.0813,5.0782,5.0768,5.0756,5.0756,5.0756,5.0675,5.0653,5.0748,5.0756,5.1104,5.2215,5.2957,5.3764,5.4839,5.55,5.5392,5.4069,5.4435,5.4238,5.2757,5.3381,5.4005,5.4276,5.4715,5.5048,5.5208,5.4762,5.4785,5.548,5.5483,5.5797,5.6422,5.635,5.6333,5.6333,5.6333,5.6352,5.6422,5.6422,5.6439,5.6507,5.6507,5.6507,5.6505,5.6437,5.6441,5.6505,5.6411,5.6461,5.6488,5.6501,5.6507,5.6507,5.6507,5.651,5.6514,5.6509,5.6514,5.6482,5.6516,5.6491,5.6507,5.6507,5.6557,5.6605,5.6605,5.6605,5.6605,5.6605,5.6605,5.6605,5.6605,5.6605,5.6605,5.6605,5.7074,5.7465,5.7465,5.7933,5.844,5.8674,5.8713,5.8791,5.9064,5.9648,6.0035,6.0035,5.968,5.9601,5.9839,5.9878,6.0111,6.0733,6.0762,6.103,6.1652,6.1636,6.1588,6.1588,6.1582,6.1617,6.1617,6.1617,6.1567,6.1502,6.1502,6.1359,5.0811,5.0786,5.0798,5.0798,5.0794,5.075,5.0639,5.0592,5.0592,5.0592,5.0456,5.0363,5.0557,5.0592,5.1135,5.2833,5.3265,5.3962,5.5659,5.5892,5.5578,5.4684,5.4607,5.4254,5.3395,5.4096,5.4955,5.5814,5.5892,5.5892,5.5892,5.5896,5.5978,5.6172,5.6178,5.6178,5.6217,5.6025,5.5896,5.5896,5.5896,5.6029,5.6217,5.6217,5.6328,5.6507,5.6507,5.6507,5.6498,5.6272,5.6333,5.6496,5.6269,5.6336,5.6507,5.6507,5.6507,5.6507,5.6507,5.6519,5.649,5.6513,5.6494,5.6519,5.65,5.6482,5.6507,5.6507,5.6557,5.6605,5.6605,5.6605,5.6605,5.6605,5.6605,5.6605,5.6605,5.6605,5.6605,5.6605,5.6605,5.6605,5.6605,5.6605,5.6918,5.7699,5.7817,5.8128,5.8986,5.9092,5.9123,5.9123,5.9892,6.0747,6.158,6.166,6.1654,6.1598,6.1597,6.1597,6.1597,6.1615,6.1601,6.1601,6.1582,6.161,6.161,6.161,6.1515,6.131,6.131,6.0724,5.0633,5.0558,5.0471,5.0471,5.0471,5.045,5.0413,5.0396,5.0396,5.0396,5.0335,5.0306,5.0385,5.0894,5.1622,5.27,5.3453,5.4265,5.5416,5.5564,5.5275,5.45,5.44,5.452,5.4828,5.5039,5.5286,5.5681,5.5621,5.5599,5.5681,5.5691,5.5784,5.6009,5.5974,5.6071,5.6214,5.5982,5.5954,5.6104,5.5989,5.5921,5.5974,5.5974,5.6044,5.6093,5.6093,5.6093,5.6089,5.6037,5.6048,5.6089,5.6037,5.6048,5.6093,5.6093,5.6093,5.6107,5.6248,5.6297,5.6319,5.635,5.6371,5.6342,5.6188,5.6308,5.6509,5.6558,5.6564,5.6605,5.6605,5.6605,5.6605,5.6605,5.6605,5.6605,5.6605,5.6559,5.6514,5.6514,5.7014,5.7437,5.7437,5.7905,5.8412,5.8646,5.8685,5.8802,5.9075,5.911,5.9107,5.9107,5.9336,5.9843,6.0747,6.1332,6.1602,6.1597,6.1582,6.1614,6.1614,6.1593,6.1546,6.1388,6.1379,6.1324,6.1174,6.06,5.9999,5.9373,5.9373,5.9116,5.0467,5.0396,5.0283,5.0283,5.0283,5.0283,5.0283,5.0283,5.0283,5.0283,5.0283,5.0397,5.0735,5.1232,5.1958,5.311,5.376,5.4409,5.5282,5.5396,5.523,5.4762,5.4708,5.4939,5.5449,5.5459,5.5434,5.5514,5.5453,5.5434,5.552,5.5531,5.5599,5.5699,5.5741,5.5843,5.5962,5.5808,5.5769,5.5895,5.5769,5.5745,5.5784,5.5784,5.5825,5.5892,5.5892,5.5892,0.0,5.5816,5.5825,5.5883,5.5811,5.583,5.5892,5.5892,5.5892,5.5909,5.6056,5.6107,5.6089,5.6128,5.6152,5.6123,5.6017,5.6182,5.6392,5.6511,5.6559,5.6558,5.6553,5.6496,5.6439,5.6439,5.6439,5.6439,5.6439,5.6429,5.6381,5.6381,5.7046,5.7554,5.7554,5.8364,5.8957,5.888,5.8946,5.8957,5.8878,5.8865,5.8857,5.8857,5.9121,5.9544,6.0094,6.0413,6.0607,6.0639,6.0625,6.0616,6.0616,6.0568,6.0463,6.0338,6.0285,6.0165,6.0044,5.9737,5.9316,5.8858,5.8773,5.8644,0.0,5.0283,5.0283,5.0283,5.0359,5.0397,5.0397,5.0436,0.0,5.0474,5.0474,5.0741,5.1538,5.1729,5.2302,5.3836,5.4142,5.4486,5.5282,5.5396,5.5396,5.5396,5.5396,5.5396,5.5396,5.5396,5.5396,5.5396,5.5396,5.5396,5.5396,5.5396,5.5396,5.5396,5.552,5.5572,5.5588,5.5457,5.5409,5.5428,5.5409,5.5451,5.5605,5.5605,5.5676,5.5852,5.5852,5.5852,5.5834,5.5722,5.5797,5.595,5.5799,5.5879,5.6041,5.6041,5.6041,5.6045,5.6059,5.6063,5.6068,5.6072,5.6051,5.6046,5.6141,5.623,5.6324,5.6509,5.6608,5.6644,5.6626,5.6485,5.6372,5.6372,5.6372,5.6372,5.6372,5.6372,5.637,5.637,5.6847,5.7284,5.7284,5.81,5.872,5.8533,5.8641,5.8717,5.8529,5.8432,5.8407,5.8407,5.9188,5.9707,5.9707,5.9374,5.9155,5.9134,5.9131,5.917,5.9248,5.9069,5.8955,5.9022,5.8832,5.8706,5.8629,5.9149,5.934,5.9302,5.9121,5.9026,5.0283,0.0,5.0283,5.0283,5.0812,5.1308,0.0,5.1773,5.2199,5.2199,5.2199,5.227,5.2467,5.3072,5.3645,5.4027,5.4677,5.5167,5.5358,5.5396,5.5396,5.5396,5.5396,5.5396,5.5396,5.5396,5.5396,5.5396,5.5396,5.5396,5.5396,5.5396,5.5396,5.5396,5.5422,5.5511,5.5588,5.5457,5.5465,5.5538,5.5459,5.5435,5.5453,5.5453,5.549,5.5505,5.5505,5.5505,5.5538,5.6134,5.6377,5.6502,5.713,5.7404,5.7422,5.7422,5.7422,5.7446,5.7561,5.7603,5.7677,5.7718,5.7643,5.752,5.7708,5.7405,5.6975,5.7016,5.7525,5.8023,5.8012,5.7988,5.7958,5.7958,5.7958,5.7958,5.7958,5.7936,5.7874,5.7874,5.8011,5.811,5.811,5.8338,5.8467,5.8424,5.8454,5.8467,5.8424,5.8406,5.8401,5.8401,5.9195,5.9688,5.9688,6.0227,6.0518,6.0548,6.0548,6.0816,6.1436,6.1397,6.1611,6.2133,6.1318,6.0572,5.9971,5.9434,5.8865,5.8259,5.8187,5.8192,5.0283,5.0283,5.0397,5.0818,5.1232,5.1691,5.2079,5.2499,5.2811,5.2811,5.2811,5.2925,5.3301,5.3798,5.4218,5.4639,5.5091,5.5396,5.5396,5.5396,5.5396,5.5396,5.5396,5.5396,5.5396,5.5396,5.5396,5.5396,5.5396,5.5396,5.5396,5.5396,5.5396,5.5396,5.5396,5.5434,5.5497,5.5817,5.5976,5.6072,5.6391,5.6549,5.6549,5.6549,5.6549,5.6549,5.6549,5.6549,5.6587,5.7008,5.7205,5.7243,5.7734,5.7886,5.7886,5.7886,5.7886,5.7906,5.7978,5.8046,5.8076,5.8106,5.8048,5.7979,5.807,5.8094,5.8045,5.7826,5.8105,5.8445,5.8463,5.8397,5.8336,5.8336,5.8336,5.8336,5.8336,5.8274,5.8254,5.8254,5.8494,5.8709,5.8709,5.9149,5.9412,5.9342,5.9722,5.998,5.9875,6.0237,6.0467,6.0467,6.0885,6.1154,6.1154,6.1595,6.1621,6.1007,6.094,6.1133,6.1597,6.1546,6.1659,6.1914,6.1333,6.0835,6.0415,6.0293,5.9835,5.9078,5.9415,5.9415,5.0468,5.0506,5.0659,5.1423,5.1805,5.2149,5.2843,5.3116,5.3193,5.3193,5.3193,5.3416,5.4142,5.4295,5.4486,5.5091,5.5205,5.5244,5.5396,5.5396,5.5396,5.5396,5.5396,5.5396,5.5396,5.5396,5.5396,5.5396,5.5396,5.5396,5.5396,5.5396,5.5396,5.5396,5.5511,5.5587,5.5587,5.625,5.667,5.6823,5.7542,5.7886,5.7886,5.7886,5.7886,5.7886,5.7886,5.7886,5.7925,5.8039,5.8077,5.8116,5.823,5.8268,5.8268,5.8268,5.8268,5.8268,5.8268,5.8268,5.8268,5.8268,5.8268,5.8268,5.8268,5.8765,5.921,5.8821,5.8703,5.8694,5.8727,5.8588,5.8448,5.8448,5.8448,5.8448,5.8448,5.8448,5.8448,5.8448,5.8917,5.9293,5.9293,6.015,6.0763,6.0603,6.1415,6.1972,6.1812,6.2426,6.2884,6.2884,6.2999,6.3121,6.3121,6.319,6.2813,6.1643,6.136,6.1283,6.1399,6.1414,6.1326,6.1179,6.1027,6.0988,6.0988,6.1516,6.144,6.0797,6.1478,6.144,5.1194,5.1385,5.1423,5.1576,5.269,5.376,5.3874,5.4486,5.5014,5.5014,5.5014,5.5052,5.5167,5.5205,5.5014,5.4409,5.4295,5.4562,5.5282,5.5396,5.5396,5.5396,5.5396,5.5396,5.5396,5.5396,5.5396,5.5396,5.5396,5.5396,5.5396,5.5396,5.5396,5.5396,5.6052,5.6441,5.6441,5.6556,5.6976,5.7695,5.7848,5.7886,5.7886,5.7886,5.7886,5.7886,5.7886,5.7886,5.7963,5.8644,5.8911,5.8988,5.972,6.0033,6.0033,6.0033,6.0033,6.0033,6.0033,6.0033,6.0033,6.0033,6.0033,6.0033,6.0033,6.0109,6.0207,6.0103,6.0092,6.0092,6.0078,6.009,6.0056,6.0056,6.0056,6.0056,6.0056,6.0056,6.0056,6.0056,6.0137,6.0186,6.0186,6.0909,6.1451,6.1409,6.2163,6.2744,6.2701,6.2808,6.2884,6.2884,6.3541,6.4007,6.4007,6.4611,6.4916,6.4728,6.3396,6.2936,6.3671,6.4317,6.4656,6.4611,6.3969,6.3625,6.3625,6.3006,6.2655,6.2502,6.2655,6.2617,5.1347,5.1926,5.2346,5.2843,5.3531,5.4218,5.4715,5.5091,5.5396,5.5396,5.5396,5.5244,5.4785,5.4715,5.4562,5.418,5.4486,5.4944,5.532,5.5396,5.5396,5.5396,5.5396,5.5396,5.5396,5.5396,5.5396,5.5396,5.5396,5.5396,5.5396,5.5396,5.5594,5.6014,5.6403,5.7014,5.7925,5.7963,5.8154,5.8536,5.9033,5.9269,5.9269,5.9269,5.9269,5.9269,5.9269,5.9269,5.9269,5.9644,5.9797,5.9835,6.0224,6.0415,6.0415,6.0415,6.0415,6.0415,6.0415,6.0415,6.0415,6.0415,6.0415,6.0415,6.0415,6.0415,6.0415,6.0415,6.0415,6.0415,6.0415,6.0415,6.0415,6.0415,6.0415,6.0415,6.0415,6.0415,6.0415,6.0415,6.0415,6.053,6.0988,6.1363,6.1745,6.2235,6.3045,6.3579,6.3579,6.3962,6.4267,6.4267,6.4236,6.4198,6.4198,6.4114,6.4458,6.5337,6.4688,6.442,6.4848,6.5184,6.5413,6.5413,6.5031,6.4848,6.4848,6.4458,6.4038,6.3579,6.3579,6.335,5.1697,5.2499,5.3301,5.418,5.4409,5.46,5.5244,5.5396,5.532,5.5129,5.5091,5.483,5.3951,5.3798,5.3913,5.4333,5.4791,5.5167,5.5358,5.5396,5.5396,5.5396,5.5396,5.5396,5.5396,5.5396,5.5396,5.5396,5.5396,5.5473,5.5664,5.567,5.6052,5.6899,5.7084,5.781,5.9102,5.9293,5.9408,5.9408,6.0071,6.0415,6.0415,6.0415,6.0415,6.0415,6.0415,6.0415,6.0415,6.0415,6.0415,6.0415,6.0415,6.0415,6.0415,6.0415,6.0415,6.0415,6.0415,6.053,6.0683,6.0683,6.0835,6.0988,6.0988,6.0988,6.0988,6.0988,6.0988,6.0912,6.0492,6.0415,6.0453,6.0644,6.0683,6.0759,6.095,6.0988,6.0988,6.0988,6.0988,6.1172,6.1784,6.2089,6.2433,6.3083,6.3931,6.4466,6.4466,6.5039,6.5413,6.5413,6.4848,6.4466,6.4466,6.3885,6.4031,6.5337,6.5031,6.4802,6.4802,6.4993,6.5108,6.5108,6.5299,6.5413,6.5413,6.5413,6.507,6.4466,6.4466,6.4114,5.2696,5.3339,5.4218,5.5091,5.532,5.532,5.5396,5.5396,5.5167,5.4371,5.418,5.3913,5.304,5.2887,5.3416,5.5052,5.4677,5.4486,5.5282,5.5396,5.5396,5.5396,5.5396,5.5396,5.5396,5.5396,5.5396,5.5396,5.5396,5.5747,5.6479,5.6517,5.6899,5.7772,5.8529,5.8988,5.9102,5.9911,6.03,6.03,6.0377,6.0415,6.0415,6.0415,6.0415,6.0415,6.0415,6.0415,6.0415,6.0415,6.0415,6.0415,6.0415,6.0415,6.0415,6.0415,6.0415,6.0415,6.0415,6.0874,6.1516,6.1516,6.2051,6.2732,6.2732,6.2732,6.2732,6.2732,6.2732,6.2357,6.0797,6.0415,6.0606,6.1325,6.1516,6.1745,6.2541,6.2732,6.2732,6.2732,6.2732,6.2732,6.2808,6.3465,6.4045,6.4084,6.481,6.5299,6.5299,6.5375,6.5413,6.5413,6.5337,6.5299,6.5299,6.5261,6.5261,6.5375,6.3954,6.3075,6.3075,6.3847,6.4275,6.4275,6.5039,6.5413,6.5413,6.5413,6.5375,6.5299,6.5299,6.5261,5.2652,5.3454,5.4295,5.5167,5.5226,5.5099,5.5357,5.482,5.421,5.3867,5.3785,5.3708,5.3346,5.3454,5.3741,5.4172,5.4598,5.5021,5.5358,5.5396,5.5396,5.5396,5.5396,5.5396,5.5396,5.5396,5.5396,5.5396,5.5861,5.6282,5.6594,5.7129,5.7772,5.8606,5.8949,5.937,5.9911,6.0224,6.0644,6.1134,6.0644,6.0415,6.0415,6.0415,6.0415,6.0415,6.0415,6.0683,6.1134,6.1134,6.1478,6.1936,6.1936,6.1936,6.1936,6.1936,6.1936,6.1936,6.1936,6.2166,6.2426,6.2426,6.2617,6.2884,6.2884,6.2884,6.2884,6.2884,6.2884,6.2732,6.2128,6.1936,6.2013,6.235,6.2426,6.2502,6.2846,6.2884,6.2884,6.2884,6.2884,6.3075,6.3618,6.3969,6.4351,6.4886,6.5222,6.5413,6.5413,6.5413,6.5413,6.5413,6.4955,6.442,6.3878,6.384,6.384,6.384,6.4229,6.4458,6.4458,6.4275,6.4198,6.4198,6.3962,6.384,6.384,6.384,6.384,6.384,6.384,6.384,5.3072,5.3735,5.4484,5.5224,5.4877,5.4577,5.5255,5.4656,5.3948,5.3781,5.3649,5.357,5.3586,5.3795,5.394,5.3919,5.4753,5.537,5.524,5.5306,5.5396,5.5396,5.5396,5.5396,5.5396,5.5396,5.5511,5.5747,5.6282,5.6823,5.7351,5.7963,5.8651,5.9484,5.9529,5.9797,6.0377,6.0415,6.0683,6.1211,6.0644,6.053,6.0759,6.053,6.0415,6.0415,6.0683,6.1096,6.1631,6.1898,6.235,6.2884,6.2884,6.2884,6.2884,6.2884,6.2884,6.2884,6.2884,6.3075,6.3312,6.3312,6.3465,6.3687,6.3687,6.3687,6.3687,6.3687,6.3687,6.3687,6.3687,6.3305,6.2961,6.3236,6.3312,6.3388,6.3618,6.3687,6.3687,6.3687,6.3687,6.3885,6.4466,6.458,6.4771,6.5337,6.5413,6.5413,6.5413,6.5413,6.5413,6.5413,6.4917,6.4344,6.3725,6.3687,6.3687,6.3687,6.4764,6.5146,6.4649,6.4351,6.4198,6.4198,6.3847,6.3687,6.3687,6.3427,6.3312,6.3312,6.3037,6.2884,5.4097,5.4421,5.4873,5.5286,5.4452,5.3848,5.5102,5.5054,5.4652,5.4186,5.3785,5.3534,5.3572,5.3617,5.3882,5.4678,5.5127,5.5253,5.4836,5.5133,5.539,5.539,5.539,5.539,5.539,5.539,5.5734,5.6549,5.6625,5.7345,5.9019,5.9095,5.9515,6.037,6.037,6.0415,6.0415,6.0415,6.0415,6.0415,6.0415,6.0835,6.1554,6.0759,6.0415,6.0453,6.1249,6.1593,6.1707,6.2541,6.2923,6.2923,6.2923,6.2923,6.2923,6.2923,6.2923,6.2923,6.2923,6.3503,6.4198,6.4198,6.4771,6.5413,6.5413,6.5413,6.5413,6.5413,6.5413,6.5413,6.5413,6.4191,6.3152,6.4007,6.4198,6.4428,6.5222,6.5413,6.5413,6.5413,6.5413,6.5413,6.5413,6.5413,6.5413,6.5413,6.5413,6.5413,6.5413,6.5413,6.5413,6.5413,6.5413,6.5413,6.5413,6.5413,6.5413,6.5413,6.5413,6.4649,6.2999,6.374,6.4198,6.4198,6.4962,6.5375,6.5375,6.458,6.4198,6.416,6.3305,6.2884,5.3722,5.4266,5.467,5.4188,5.405,5.4075,5.4078,5.38,5.3607,5.3795,5.372,5.3641,5.3678,5.3895,5.41,5.4022,5.4372,5.4568,5.4463,5.4536,5.4637,5.4637,5.4637,5.4864,5.5414,5.5452,5.5791,5.6622,5.7188,5.7717,5.8216,5.882,5.9437,5.9953,5.9961,6.0114,6.0415,6.0415,6.0683,6.1249,6.0683,6.053,6.0759,6.0492,6.0721,6.1249,6.1516,6.228,6.351,6.4305,6.4649,6.4649,6.4649,6.4649,6.4649,6.4649,6.4649,6.4649,6.4649,6.484,6.5031,6.5031,6.5222,6.5413,6.5413,6.5413,6.5413,6.5413,6.5413,6.5413,6.5413,6.5031,6.4726,6.4993,6.5031,6.5108,6.5337,6.5413,6.5413,6.5413,6.5413,6.5413,6.5413,6.5413,6.5413,6.5413,6.5413,6.5413,6.5413,6.5413,6.5413,6.5413,6.5413,6.5413,6.5413,6.5413,6.5413,6.5413,6.5413,6.5184,6.4688,6.4351,6.4198,6.4198,6.3847,6.3648,6.3648,6.3388,6.3274,6.3266,6.2725,6.249,5.4154,5.4465,5.4525,5.4118,5.4062,5.4068,5.4062,5.4033,5.4017,5.4158,5.4203,5.4101,5.3747,5.3907,5.3989,5.3748,5.4043,5.4236,5.4088,5.4455,5.488,5.5218,5.5255,5.5584,5.6392,5.6176,5.6297,5.7114,5.7648,5.807,5.8408,5.8905,5.9316,5.9554,5.9563,5.9664,5.9914,5.9922,6.025,6.0875,6.038,6.0256,6.0415,6.0721,6.1134,6.1631,6.2319,6.3396,6.4695,6.5184,6.5413,6.5413,6.5413,6.5413,6.5413,6.5413,6.5413,6.5413,6.5413,6.5413,6.5413,6.5413,6.5413,6.5413,6.5413,6.5413,6.5413,6.5413,6.5643,6.591,6.591,6.6139,6.6216,6.5566,6.5413,6.5413,6.5413,6.5413,6.5413,6.5413,6.5413,6.5413,6.5413,6.5413,6.5413,6.5413,6.5413,6.5413,6.5413,6.5413,6.5413,6.5413,6.5413,6.5413,6.5413,6.5413,6.5413,6.5413,6.5413,6.5413,6.5413,6.4924,6.4695,6.4695,6.4153,6.3818,6.3648,6.3297,6.3074,6.2897,6.2287,6.202,5.4943,5.4761,5.4313,5.4631,5.4257,5.3996,5.4791,5.5174,5.5313,5.4918,5.4907,5.4694,5.3801,5.3653,5.369,5.3754,5.4074,5.4211,5.3923,5.4895,5.589,5.663,5.6705,5.7033,5.7838,5.7183,5.7042,5.7838,5.7922,5.8259,5.9065,5.9103,5.9122,5.915,5.9159,5.9187,5.9261,5.9261,5.9459,5.9858,5.9858,6.0099,6.053,6.1287,6.1707,6.1936,6.3587,6.4733,6.5413,6.5413,6.5413,6.5413,6.5413,6.5413,6.5413,6.549,6.5528,6.5528,6.5605,6.5643,6.5643,6.5643,6.5643,6.5643,6.5643,6.5643,6.5643,6.5643,6.6216,6.6819,6.6819,6.7362,6.7523,6.5987,6.5643,6.5643,6.5643,6.5643,6.5643,6.5643,6.5643,6.5643,6.5643,6.5643,6.5643,6.5643,6.5643,6.5643,6.5643,6.5643,6.5643,6.5643,6.5643,6.5643,6.5643,6.5643,6.5605,6.5528,6.5528,6.549,6.5413,6.5413,6.5413,6.5413,6.5345,6.5188,6.4792,6.3973,6.335,6.2988,6.2168,6.1764,5.3986,5.3971,5.3851,5.3925,5.4279,5.4798,5.5338,5.5017,5.4617,5.4523,5.4512,5.4291,5.3471,5.3324,5.3508,5.4133,5.4328,5.458,5.5112,5.5949,5.6582,5.6767,5.6767,5.7099,5.791,5.7257,5.7109,5.7932,5.7969,5.8043,5.8227,5.8275,5.8402,5.873,5.874,5.9018,5.9656,5.9656,5.9874,6.0277,6.0277,6.0657,6.1363,6.1516,6.2357,6.3701,6.4688,6.5222,6.5413,6.5413,6.5413,6.5413,6.5413,6.5413,6.549,6.6178,6.6399,6.6522,6.7133,6.737,6.737,6.737,6.737,6.737,6.737,6.737,6.737,6.737,6.7485,6.763,6.763,6.779,6.7828,6.7446,6.737,6.737,6.737,6.737,6.737,6.737,6.737,6.737,6.737,6.737,6.737,6.737,6.737,6.737,6.737,6.737,6.737,6.737,6.737,6.737,6.737,6.737,6.7095,6.6445,6.6399,6.6101,6.5413,6.5413,6.5413,6.5413,6.5085,6.4908,6.4792,6.4238,6.3913,6.3814,6.3323,6.3076,5.3944,5.3851,5.3838,5.4445,5.4937,5.5391,5.6022,5.5537,5.4961,5.4961,5.4656,5.4289,5.3838,5.4106,5.4473,5.4913,5.5317,5.5684,5.6124,5.7178,5.7948,5.7948,5.7948,5.8095,5.8535,5.785,5.7556,5.796,5.7997,5.7997,5.7997,5.7997,5.8085,5.8293,5.8304,5.8492,5.8949,5.8949,5.9122,5.9546,5.9915,6.105,6.2795,6.2818,6.3541,6.481,6.5222,6.5643,6.6025,6.6025,6.6254,6.6598,6.6598,6.6598,6.6636,6.7095,6.7286,6.7324,6.7752,6.7905,6.7905,6.7905,6.7905,6.7905,6.7905,6.7905,6.7905,6.7905,6.8211,6.8516,6.8516,6.8814,6.9082,6.9082,6.847,6.7905,6.7905,6.7905,6.7905,6.7905,6.7905,6.7905,6.7905,6.7905,6.7905,6.7905,6.7905,6.7905,6.7905,6.7905,6.7905,6.7905,6.7905,6.7905,6.7905,6.7905,6.7635,6.6988,6.6941,6.6628,6.595,6.5941,6.5659,6.5139,6.4704,6.4369,6.4174,6.394,6.3707,6.3464,6.325,6.3169,5.4007,5.3972,5.4108,5.5305,5.5511,5.5611,5.6418,5.5978,5.5401,5.5401,5.4961,5.462,5.462,5.5144,5.5695,5.5989,5.6565,5.7104,5.7361,5.8682,5.9563,5.9416,5.9416,5.9343,5.9196,5.8462,5.7997,5.7997,5.7997,5.7997,5.7997,5.7997,5.7997,5.7997,5.7997,5.8042,5.8085,5.8232,5.8589,5.9109,6.0215,6.1996,6.4319,6.4494,6.4967,6.5577,6.5679,6.6122,6.6771,6.6872,6.7286,6.7905,6.7905,6.7905,6.7905,6.8058,6.8134,6.8134,6.8287,6.8325,6.8325,6.8325,6.8325,6.8325,6.8325,6.8325,6.8325,6.8325,6.8852,6.9425,6.9425,6.9914,7.0411,7.0411,6.9349,6.8325,6.8325,6.8325,6.8325,6.8325,6.8325,6.8325,6.8325,6.8325,6.8325,6.8325,6.8325,6.8325,6.8325,6.8325,6.8325,6.8325,6.8325,6.8325,6.8325,6.8269,6.7982,6.7457,6.7335,6.7058,6.6533,6.6438,6.5957,6.502,6.4607,6.4172,6.3713,6.3634,6.3341,6.2793,6.2793,6.2793,5.3334,5.3829,5.4511,5.5376,5.5071,5.4766,5.5585,5.5144,5.4546,5.4546,5.5034,5.5438,5.5438,5.5548,5.6062,5.7457,5.7776,5.8327,5.9722,6.0713,6.1006,6.0309,6.0224,5.9967,5.9269,5.8462,5.7997,5.7997,5.7997,5.7997,5.7997,5.7997,5.7997,5.7997,5.7997,5.8164,5.8503,5.9197,6.0114,6.1219,6.3505,6.4762,6.5151,6.5885,6.6237,6.638,6.6787,6.7018,6.7159,6.7578,6.779,6.7905,6.7905,6.7905,6.7981,6.8738,6.9043,6.912,6.9807,7.0067,7.0067,7.0067,7.0067,7.0067,7.0067,7.0067,7.0067,7.0067,7.0143,7.022,7.022,7.0334,7.0411,7.0411,7.022,7.0067,7.0067,7.0067,7.0067,7.0067,7.0067,7.0067,7.0067,7.0067,7.0067,7.0067,7.0067,7.0067,7.0067,7.0067,7.0067,7.0067,7.0067,7.0067,7.0067,6.9749,6.9189,6.8366,6.7952,6.7357,6.6512,6.618,6.5898,6.578,6.5675,6.5282,6.4545,6.4193,6.3615,6.2793,6.2793,6.2793,5.3214,5.3801,5.4583,5.5401,5.5328,5.5291,5.6088,5.6014,5.5757,5.5757,5.6381,5.6822,5.6345,5.7005,5.785,5.8572,5.9428,6.0272,6.097,6.1777,6.1814,6.0566,6.0419,5.9905,5.8657,5.8217,5.7997,5.7997,5.7997,5.7997,5.7997,5.7997,5.8217,5.8646,5.8682,5.897,5.9593,5.9962,6.0865,6.2316,6.4318,6.5541,6.5986,6.6814,6.6923,6.6543,6.6985,6.7476,6.7968,6.8438,6.889,6.9311,6.9311,6.9311,6.9349,6.9731,6.9884,6.9922,7.0296,7.0411,7.0411,7.0411,7.0411,7.0411,7.0411,7.0411,7.0411,7.0411,7.0411,7.0411,7.0411,7.0411,7.0411,7.0411,7.0411,7.0411,7.0411,7.0411,7.0411,7.0411,7.0411,7.0411,7.0411,7.0411,7.0411,7.0411,7.0411,7.0411,7.0411,7.0411,7.0411,7.0411,7.0411,7.0411,7.0411,7.023,6.9766,6.8887,6.8633,6.8126,6.7209,6.7012,6.6899,6.6899,6.6013,6.5386,6.5054,6.4865,6.4567,6.4187,6.4187,6.4187,5.3214,5.3654,5.4289,5.5108,5.5291,5.5511,5.6308,5.6492,5.6554,5.6737,5.7299,5.7629,5.7435,5.8389,5.9343,5.9747,6.0823,6.1667,6.1887,6.2426,6.2205,6.0603,6.0419,5.9758,5.8143,5.7997,5.7997,5.7997,5.7997,5.8107,5.829,5.829,5.8657,5.949,5.949,5.9783,6.037,6.1043,6.2144,6.3747,6.5215,6.6219,6.6843,6.7444,6.7381,6.6833,6.7307,6.7887,6.8502,6.8997,6.959,7.023,7.0135,7.0213,7.0402,7.0273,7.0298,7.0411,7.0411,7.0411,7.0411,7.0411,7.0411,7.0411,7.0411,7.0411,7.0411,7.0411,7.0411,7.0411,7.0411,7.0411,7.0411,7.0411,7.0411,7.0411,7.0411,7.0411,7.0411,7.0411,7.0411,7.0411,7.0411,7.0411,7.0411,7.0411,7.0411,7.0411,7.0411,7.0411,7.0378,7.0247,7.0239,7.0205,7.0071,6.9972,6.9625,6.8959,6.8803,6.843,6.7741,6.77,6.77,6.77,6.6512,6.5815,6.5582,6.5582,6.5508,6.5288,6.5288,6.5288,5.3214,5.3214,5.3471,5.4252,5.4473,5.4656,5.5475,5.5658,5.5879,5.6638,5.6811,5.7324,5.8792,5.9159,5.971,6.1227,6.1569,6.1851,6.2646,6.2756,6.2205,6.0603,6.0419,5.9758,5.8143,5.7997,5.7997,5.7997,5.7997,5.8327,5.9086,5.9159,5.9526,6.0297,6.0346,6.037,6.0419,6.2732,6.4714,6.6329,6.7187,6.759,6.7627,6.7664,6.7691,6.766,6.8136,6.8367,6.844,6.8895,6.9378,6.9806,6.9334,6.9663,7.0331,6.9983,7.0082,7.0411,7.0411,7.0411,7.0411,7.0411,7.0411,7.0411,7.0411,7.0411,7.0411,7.0411,7.0411,7.0411,7.0411,7.0411,7.0411,7.0411,7.0411,7.0411,7.0411,7.0411,7.0411,7.0411,7.0411,7.0411,7.0411,7.0411,7.0411,7.0411,7.0411,7.0411,7.0411,7.0411,7.0247,6.9891,6.9844,6.9653,6.9198,6.8757,6.8502,6.8442,6.8007,6.7754,6.77,6.77,6.77,6.77,6.7627,6.7187,6.6439,6.6439,6.6035,6.5288,6.5288,6.5288,5.3067,5.3214,5.3398,5.4216,5.4399,5.462,5.5438,5.5978,5.6455,5.6737,5.7226,5.807,5.9673,5.9967,6.0334,6.141,6.2034,6.2462,6.2756,6.2793,6.2205,6.0603,6.0419,5.9758,5.8143,5.7997,5.8217,5.8719,5.8756,5.9123,5.993,5.9967,6.0346,6.1153,6.1153,6.1704,6.2768,6.4677,6.5925,6.6512,6.7333,6.77,6.77,6.77,6.77,6.7714,6.7876,6.8122,6.8442,6.8904,6.9187,6.9323,6.9155,6.9292,6.9546,6.9395,6.9765,7.034,7.034,7.067,7.1103,7.1103,7.1103,7.1164,7.1447,7.1569,7.1624,7.1956,7.2062,7.2062,7.2062,7.2062,7.1965,7.1633,7.1805,7.1887,7.1234,7.1169,7.1154,7.0854,7.1189,7.1447,7.1154,7.067,7.034,7.034,6.9896,6.9566,6.9566,6.9566,6.9506,6.9354,6.9334,6.9271,6.9112,6.8937,6.8711,6.8418,6.8222,6.8007,6.7714,6.77,6.77,6.77,6.77,6.7554,6.726,6.726,6.71,6.6843,6.6843,6.6843,5.3067,5.3214,5.3324,5.3849,5.4216,5.4546,5.5071,5.5831,5.6455,5.6737,5.7226,5.8107,5.971,6.0003,6.0444,6.1777,6.2426,6.2719,6.2426,6.2401,6.1802,6.0187,6.0003,5.9563,5.851,5.84,5.8719,5.9526,5.96,5.993,6.075,6.0786,6.119,6.1998,6.2291,6.3099,6.4494,6.5815,6.6623,6.6916,6.7444,6.7554,6.7297,6.7297,6.7136,6.6916,6.7187,6.7618,6.8197,6.8514,6.8898,6.9237,6.9076,6.9401,6.9884,6.9728,7.0099,7.0721,7.0721,7.1047,7.1513,7.1513,7.1513,7.1542,7.1868,7.1951,7.2061,7.2386,7.251,7.251,7.251,7.251,7.2396,7.2061,7.2222,7.2318,7.162,7.1678,7.1718,7.1249,7.1611,7.1857,7.1531,7.1047,7.0721,7.0721,7.0233,6.9906,6.9906,6.9906,6.984,6.9682,6.966,6.949,6.9066,6.9043,6.88,6.8197,6.8172,6.8007,6.7714,6.77,6.77,6.77,6.77,6.77,6.77,6.77,6.77,6.77,6.77,6.77,0.0,0.0,0.0,5.3214,5.3801,5.4363,5.4399,5.4997,5.5805,5.659,5.6774,5.7288,5.8866,5.9196,5.9967,6.2352,6.2756,6.2499,6.1741,6.1594,6.1006,5.9453,5.9269,5.9233,5.9233,5.9233,5.9563,6.0382,6.0456,6.0786,6.1594,6.1643,6.1998,6.2793,6.3686,6.4494,6.5288,6.6109,6.688,6.7627,6.7627,6.7223,6.6512,6.6512,6.6109,6.5398,6.6219,6.699,6.7737,6.7737,6.8496,6.9558,6.9101,6.9951,7.1384,7.0946,7.1068,7.1467,7.1467,7.1516,7.1554,7.1554,7.1554,7.1554,7.155,7.1561,7.1561,7.1595,7.1633,7.1633,7.1633,7.1633,7.1595,7.1561,7.1561,7.1561,7.1527,7.189,7.2089,7.1629,7.1527,7.1565,7.1516,7.1516,7.1467,7.1467,7.1479,7.1479,7.1479,7.1479,7.1294,7.0809,7.0796,7.0295,6.905,6.8935,6.8605,6.7811,6.7774,6.7774,6.7774,6.7737,6.7737,6.7737,6.77,6.77,6.77,6.77,6.77,6.77,6.77,6.77,5.3031,0.0,0.0,0.0,0.0,0.0,5.4289,5.4583,5.495,5.5768,5.6381,5.7104,5.8143,5.8792,5.96,6.0848,6.1557,6.2071,6.2426,6.1961,6.141,6.1006,6.0407,6.0077,6.0077,6.0077,6.0419,6.119,6.1263,6.163,6.2438,6.2462,6.2879,6.3723,6.453,6.5068,6.5288,6.6109,6.6329,6.5962,6.5962,6.6145,6.6512,6.6512,6.6696,6.7063,6.7907,6.8348,6.8568,6.8568,6.9141,6.9962,6.9798,7.0045,7.0484,7.0337,7.0733,7.137,7.137,7.174,7.222,7.222,7.222,7.2344,7.31,7.3322,7.347,7.417,7.4382,7.4382,7.4382,7.4382,7.4228,7.3492,7.3554,7.3521,7.2449,7.2631,7.2782,7.2025,7.2373,7.2669,7.2287,7.174,7.137,7.137,7.0866,7.0497,7.0497,7.0497,7.0444,7.0334,7.027,7.0142,6.9793,6.9779,6.9669,6.9449,6.9463,6.9463,6.9463,6.8862,6.8568,6.8568,6.7994,6.77,6.77,6.77,6.77,6.77,6.77,6.77,5.3067,5.3214,5.3214,5.3214,0.0,0.0,5.3801,5.4179,5.4509,5.4997,5.5721,5.6455,5.6895,5.7666,5.8462,5.9281,6.0089,6.0896,6.1692,6.141,6.108,6.108,6.037,6.015,6.086,6.0603,6.086,6.1998,6.2108,6.2328,6.2756,6.2793,6.3013,6.3539,6.4383,6.4787,6.4787,6.5595,6.5925,6.5802,6.5802,6.6035,6.6512,6.6512,6.6769,6.726,6.8054,6.8788,6.9449,6.9765,7.0169,7.0587,7.0587,7.0807,7.1101,7.1101,7.1394,7.1784,7.1784,7.2114,7.2496,7.2496,7.2496,7.2624,7.3196,7.3365,7.3491,7.4101,7.4259,7.4259,7.4259,7.4259,7.4113,7.3516,7.3566,7.3529,7.2686,7.2742,7.2828,7.2297,7.2607,7.2867,7.2553,7.2114,7.1784,7.1784,7.1394,7.1101,7.1101,7.1101,7.1101,7.1101,7.1101,7.0954,7.0624,7.0587,7.0477,7.011,7.011,7.011,7.011,6.9633,6.9412,6.9412,6.8935,6.8692,6.8692,6.8031,6.77,6.77,6.77,6.77,5.3214,5.3214,5.3214,5.3214,5.3214,0.0,5.3214,5.3739,5.4289,5.4289,5.4913,5.5475,5.5475,5.6124,5.6895,5.7629,5.8389,5.9269,6.0272,6.0309,6.0334,6.0529,5.982,5.9967,6.1594,6.108,6.1251,6.2683,6.2793,6.2793,6.2793,6.2793,6.2829,6.2939,6.3686,6.4103,6.4103,6.4897,6.5632,6.6219,6.6329,6.6402,6.6512,6.6512,6.6586,6.6806,6.7627,6.8839,7.0293,7.1087,7.1417,7.1417,7.1417,7.1857,7.2496,7.2496,7.2496,7.2496,7.2496,7.2496,7.2496,7.2496,7.2496,7.251,7.2567,7.2596,7.261,7.2644,7.2658,7.2658,7.2658,7.2658,7.2644,7.261,7.2596,7.2582,7.251,7.2496,7.2496,7.2496,7.2496,7.2496,7.2496,7.2496,7.2496,7.2496,7.2496,7.2496,7.2496,7.2496,7.2496,7.2496,7.2496,7.2202,7.149,7.1417,7.1123,7.0403,7.0367,7.0367,7.0367,7.0293,7.022,7.022,7.0146,7.011,7.011,6.8582,6.7847,6.7847,6.7737,6.77,5.3214,5.3214,5.3214,0.0,0.0,0.0,5.3214,5.3324,5.3434,5.3434,5.4069,5.462,5.462,5.528,5.5879,5.6025,5.6748,5.7985,6.0089,5.982,5.9893,6.119,6.0676,6.0811,6.2426,6.2426,6.2462,6.2793,6.2793,6.2793,6.2793,6.2793,6.3123,6.3833,6.4029,6.4103,6.4103,6.4897,6.5044,6.458,6.5228,6.5888,6.6512,6.6512,6.721,6.8495,6.9265,7.0183,7.1123,7.1931,7.2275,7.2275,7.2275,7.2349,7.2496,7.2496,7.2496,7.2496,7.2496,7.2496,7.2496,7.2496,7.2496,7.2582,7.2994,7.3141,7.3233,7.3603,7.3713,7.3713,7.3713,7.3713,7.3616,7.3246,7.3141,7.3044,7.2596,7.2496,7.2496,7.2496,7.2496,7.2496,7.2496,7.2496,7.2496,7.2496,7.2496,7.2496,7.2496,7.2496,7.2496,7.2496,7.2496,7.2459,7.2275,7.2275,7.2202,7.2055,7.2018,7.2018,7.2018,7.1417,7.105,7.105,7.044,7.011,7.011,6.9119,6.8678,6.8641,6.7981,6.77,0.0,0.0,0.0,5.3214,0.0,0.0,0.0,5.3214,5.3214,5.3214,5.3508,5.3801,5.3801,5.4473,5.4997,5.4997,5.5684,5.6602,5.785,5.8682,5.9636,6.086,6.0309,6.0444,6.2071,6.1838,6.1949,6.2756,6.2793,6.2793,6.2793,6.2793,6.3013,6.3429,6.387,6.4103,6.4103,6.4897,6.5301,6.5301,6.5705,6.6329,6.71,6.7504,6.8348,6.9559,7.0367,7.116,7.1931,7.2349,7.2496,7.2496,7.2496,7.2496,7.2496,7.2496,7.2496,7.2496,7.2496,7.2496,7.2496,7.2496,7.2496,7.2553,7.2826,7.2908,7.2939,7.3183,7.3261,7.3261,7.3261,7.3261,7.3196,7.2939,7.2908,7.2826,7.2553,7.2496,7.2496,7.2496,7.2496,7.2496,7.2496,7.2496,7.2496,7.2496,7.2496,7.2496,7.2496,7.2496,7.2496,7.2496,7.2496,7.2496,7.2496,7.2496,7.2496,7.2496,7.2496,7.2496,7.2496,7.2114,7.1894,7.1894,7.1505,7.1284,7.1284,7.0499,6.9876,6.9486,6.9082,6.8912,0.0,0.0,0.0,0.0,0.0,5.3214,0.0,0.0,0.0,5.3214,5.3214,5.3214,5.3214,5.3728,5.4106,5.3959,5.473,5.5328,5.5144,5.7079,5.8866,5.9832,5.949,5.9783,6.1227,6.0933,6.1215,6.2683,6.2793,6.2793,6.2793,6.2793,6.2866,6.305,6.3723,6.4176,6.431,6.5118,6.5852,6.6512,6.6659,6.7076,6.7737,6.8531,6.9339,7.0146,7.094,7.1747,7.2496,7.2496,7.2496,7.2496,7.2496,7.2496,7.2496,7.2496,7.2496,7.2496,7.2496,7.2496,7.2496,7.2496,7.2496,7.2496,7.2496,7.2496,7.2496,7.2496,7.2496,7.2496,7.2496,7.2496,7.2496,7.2496,7.2496,7.2496,7.2496,7.2496,7.2496,7.2496,7.2496,7.2496,7.2496,7.2496,7.2496,7.2496,7.2496,7.2496,7.2496,7.2496,7.2496,7.2496,7.2496,7.2496,7.2496,7.2496,7.2496,7.2496,7.2496,7.2496,7.2496,7.2496,7.2496,7.2496,7.2496,7.2496,7.2496,7.1857,7.1123,7.033,7.0183,7.011,0.0,0.0,0.0,0.0,5.3214,0.0,0.0,0.0,5.3214,5.3214,0.0,5.3214,5.3214,0.0,0.0,5.2391,5.3555,5.4289,5.3581,5.495,5.6576,5.8107,5.8829,5.9563,6.0456,6.108,6.1851,6.2719,6.2793,6.2793,6.2793,6.2793,6.316,6.3906,6.4066,6.442,6.5141,6.5962,6.6402,6.6512,6.7223,6.7627,6.7737,6.8531,6.9339,7.0146,7.094,7.1747,7.2496,7.2496,7.2496,7.2496,7.2496,7.2496,7.2496,7.2496,7.2496,7.2496,7.2496,7.2496,7.2496,7.2496,7.2496,7.2496,7.2496,7.2496,7.2496,7.2496,7.2496,7.2496,7.2496,7.2496,7.2496,7.2496,7.2496,7.2496,7.2496,7.2496,7.2496,7.2496,7.2496,7.2496,7.2496,7.2496,7.2496,7.2496,7.2496,7.2496,7.2496,7.2496,7.2496,7.2496,7.2496,7.2496,7.2496,7.2496,7.2496,7.2496,7.2496,7.2496,7.2496,7.2496,7.2496,7.2496,7.2496,7.2496,7.2496,7.2422,7.1931,7.116,7.044,7.011,0.0,0.0,0.0,0.0,0.0,0.0,5.3214,0.0,5.3214,0.0,0.0,0.0,0.0,0.0,0.0,0.0,5.3261,0.0,0.0,0.0,5.55,5.7116,5.7581,5.8315,5.9563,6.086,6.1741,6.2071,6.2536,6.2793,6.2793,6.3282,6.3723,6.4103,6.502,6.5632,6.5999,6.6769,6.7187,6.7187,6.7554,6.7958,6.8421,6.9229,7.0036,7.083,7.1651,7.2188,7.2496,7.2496,7.2496,7.2496,7.2496,7.2496,7.2496,7.2496,7.2496,7.2496,7.2496,7.2496,7.2496,7.2496,7.2496,7.2496,7.2496,7.2496,7.2496,7.2496,7.2496,7.2496,7.2496,7.2496,7.2496,7.2496,7.2496,7.2496,7.2496,7.2496,7.2496,7.2496,7.2496,7.2496,7.2496,7.2496,7.2496,7.2496,7.2496,7.2496,7.2496,7.2496,7.2496,7.2496,7.2496,7.2496,7.2496,7.2496,7.2496,7.2496,7.2496,7.2496,7.2496,7.2496,7.2496,7.2496,7.2496,7.2496,7.2496,7.2496,7.2349,7.1967,7.1651,7.1505,5.3544,0.0,0.0,0.0,0.0,0.0,0.0,0.0,0.0,0.0,0.0,0.0,0.0,0.0,0.0,0.0,0.0,5.3104,0.0,5.3555,0.0,0.0,0.0,0.0,0.0,6.0346,6.1374,6.1569,6.2365,6.2793,6.2793,6.3613,6.4213,6.442,6.5778,6.6623,6.6843,6.7407,6.77,6.77,6.77,6.8128,6.8921,6.9743,7.055,7.1344,7.2165,7.2496,7.2496,7.2496,7.2496,7.2496,7.2496,7.2496,7.2496,7.2496,7.2496,7.2496,7.2496,7.2496,7.2496,7.2496,7.2496,7.2496,7.2496,7.2496,7.2496,7.2496,7.2496,7.2496,7.2496,7.2496,7.2496,7.2496,7.2496,7.2496,7.2496,7.2496,7.2496,7.2496,7.2496,7.2496,7.2496,7.2496,7.2496,7.2496,7.2496,7.2496,7.2496,7.2496,7.2496,7.2496,7.2496,7.2496,7.2496,7.2496,7.2496,7.2496,7.2496,7.2496,7.2496,7.2496,7.2496,7.2496,7.2496,7.2496,7.2496,7.2496,7.2496,7.2496,7.2496,7.2496,5.4363,5.3801,5.3214,5.3214,5.3214,5.3214,0.0,0.0,5.3214,0.0,0.0,0.0,0.0,0.0,0.0,0.0,0.0,0.0,0.0,0.0,0.0,0.0,0.0,0.0,0.0,5.9501,6.075,0.0,6.2365,6.2793,6.2793,6.3613,6.4457,6.5251,6.6072,6.688,6.7664,6.77,6.77,6.77,6.77,6.8128,6.8921,6.9743,7.055,7.1344,7.2165,7.2496,7.2496,7.2496,7.2496,7.2496,7.2496,7.2496,7.2496,7.2496,7.2496,7.2496,7.2496,7.2496,7.2496,7.2496,7.2496,7.2496,7.2496,7.2496,7.2496,7.2496,7.2496,7.2496,7.2496,7.2496,7.2496,7.2496,7.2496,7.2496,7.2496,7.2496,7.2496,7.2496,7.2496,7.2496,7.2496,7.2496,7.2496,7.2496,7.2496,7.2496,7.2496,7.2496,7.2496,7.2496,7.2496,7.2496,7.2496,7.2496,7.2496,7.2496,7.2496,7.2496,7.2496,7.2496,7.2496,7.2496,7.2496,7.2496,7.2496,7.2496,7.2496,7.2496,7.2496,7.2496,5.5181,5.462,5.3995,5.3995,5.3581,5.3214,5.3214,0.0,0.0,0.0,0.0,0.0,0.0,0.0,0.0,0.0,0.0,0.0,0.0,0.0,0.0,0.0,0.0,0.0,0.0,0.0,0.0,0.0,6.1557,0.0,6.2756,6.4127,6.5007,6.5288,6.6586,6.7407,6.77,6.77,6.77,6.77,6.8238,6.8935,6.9706,7.055,7.1307,7.2114,7.2386,7.2496,7.2496,7.2496,7.2496,7.2496,7.2496,7.2496,7.2496,7.2496,7.2496,7.2496,7.2496,7.2496,7.2496,7.2496,7.2496,7.2496,7.2496,7.2496,7.2496,7.2496,7.2496,7.2496,7.2496,7.2496,7.2496,7.2496,7.2496,7.2496,7.2496,7.2496,7.2496,7.2496,7.2496,7.2496,7.2496,7.2496,7.2496,7.2496,7.2496,7.2496,7.2496,7.2496,7.2496,7.2496,7.2496,7.2496,7.2496,7.2496,7.2496,7.2496,7.2496,7.2496,7.2496,7.2496,7.2496,7.2496,7.2496,7.2239,7.1711,7.1711,7.1431,7.0917,7.0917,7.1468,5.6014,5.5438,5.484,5.484,5.4436,5.4069,5.4069,5.3838,5.3618,0.0,0.0,0.0,0.0,0.0,0.0,0.0,0.0,0.0,0.0,0.0,0.0,0.0,0.0,0.0,0.0,0.0,0.0,0.0,0.0,0.0,0.0,6.4114,6.4995,6.5288,6.6586,6.7407,6.77,6.77,6.77,6.77,6.8531,6.9339,7.011,7.094,7.1747,7.2496,7.2496,7.2496,7.2496,7.2188,7.2078,7.2041,7.1762,7.1651,7.1725,7.2275,7.2496,7.2496,7.2496,7.2496,7.2496,7.2496,7.2496,7.2496,7.2496,7.2496,7.2386,7.1798,7.2055,7.2386,7.1798,7.2055,7.2496,7.2496,7.2496,7.2496,7.2496,7.2496,7.2496,7.2496,7.2496,7.2496,7.2496,7.2496,7.2496,7.2496,7.2496,7.2496,7.2496,7.2496,7.2496,7.2496,7.2496,7.2496,7.2496,7.2496,7.2496,7.2496,7.2496,7.2496,7.2496,7.2496,7.2386,7.2078,7.2349,7.1982,7.0866,7.116,7.0866,7.011,7.011,7.066]}]]